GEFSMA_prec_meanprecacc_006.txt.gz
Total_Precipitation_Accumulation
0.00 0.01 0.01 0.02 0.01 0.00 0.00 0.00 0.00 0.00 0.00 0.00 0.00 0.00 0.00 0.00 0.01 0.08 0.17 0.20 0.27 0.24 0.19 0.11 0.06 0.05 0.06 0.04 0.03 0.03 0.03 0.03 0.02 0.03 0.06 0.06 0.06 0.04 0.00 0.01 0.02 0.02 0.01
0.00 0.00 0.02 0.02 0.01 0.00 0.00 0.00 0.00 0.00 0.00 0.00 0.00 0.00 0.00 0.00 0.00 0.02 0.10 0.20 0.26 0.20 0.22 0.21 0.14 0.10 0.07 0.05 0.05 0.05 0.06 0.05 0.03 0.03 0.04 0.04 0.04 0.02 0.00 0.01 0.02 0.03 0.03
0.00 0.00 0.02 0.02 0.01 0.00 0.00 0.00 0.00 0.00 0.00 0.00 0.00 0.00 0.00 0.00 0.00 0.00 0.00 0.02 0.05 0.05 0.06 0.11 0.13 0.11 0.08 0.07 0.08 0.04 0.03 0.04 0.04 0.04 0.03 0.03 0.02 0.01 0.00 0.01 0.02 0.03 0.02
0.00 0.00 0.00 0.02 0.02 0.00 0.00 0.01 0.00 0.01 0.00 0.00 0.00 0.00 0.00 0.00 0.00 0.00 0.00 0.00 0.00 0.00 0.01 0.01 0.03 0.06 0.12 0.15 0.15 0.07 0.03 0.02 0.02 0.02 0.03 0.03 0.01 0.01 0.01 0.03 0.02 0.03 0.01
0.02 0.01 0.01 0.01 0.02 0.02 0.03 0.03 0.03 0.01 0.01 0.01 0.00 0.00 0.00 0.00 0.00 0.00 0.00 0.00 0.00 0.00 0.00 0.00 0.00 0.00 0.01 0.05 0.11 0.11 0.04 0.01 0.01 0.01 0.01 0.02 0.02 0.02 0.03 0.04 0.01 0.00 0.00
0.11 0.05 0.02 0.02 0.02 0.07 0.11 0.09 0.08 0.05 0.03 0.02 0.00 0.00 0.00 0.00 0.00 0.00 0.00 0.00 0.00 0.00 0.00 0.00 0.00 0.00 0.00 0.00 0.01 0.01 0.01 0.01 0.00 0.00 0.01 0.01 0.01 0.01 0.02 0.03 0.00 0.00 0.00
0.14 0.11 0.03 0.02 0.02 0.05 0.12 0.17 0.16 0.14 0.05 0.01 0.00 0.00 0.00 0.00 0.00 0.00 0.00 0.00 0.00 0.00 0.00 0.00 0.00 0.00 0.00 0.00 0.00 0.00 0.00 0.01 0.01 0.01 0.00 0.00 0.00 0.00 0.01 0.03 0.01 0.00 0.00
0.10 0.10 0.08 0.05 0.04 0.06 0.13 0.13 0.10 0.15 0.08 0.02 0.00 0.01 0.01 0.00 0.00 0.00 0.00 0.00 0.00 0.00 0.00 0.00 0.00 0.00 0.00 0.00 0.00 0.00 0.00 0.00 0.01 0.01 0.01 0.01 0.00 0.00 0.00 0.02 0.02 0.01 0.00
0.24 0.20 0.14 0.12 0.10 0.05 0.08 0.09 0.06 0.11 0.08 0.02 0.00 0.01 0.02 0.02 0.00 0.00 0.00 0.00 0.00 0.00 0.00 0.00 0.00 0.00 0.00 0.00 0.00 0.00 0.00 0.00 0.01 0.02 0.02 0.01 0.01 0.01 0.00 0.00 0.02 0.02 0.02
0.24 0.27 0.19 0.13 0.12 0.07 0.05 0.07 0.05 0.05 0.06 0.02 0.00 0.00 0.00 0.01 0.00 0.00 0.00 0.00 0.00 0.00 0.00 0.00 0.00 0.00 0.00 0.00 0.00 0.00 0.00 0.00 0.01 0.02 0.04 0.03 0.01 0.01 0.01 0.00 0.00 0.02 0.03
0.07 0.10 0.11 0.11 0.10 0.08 0.05 0.06 0.06 0.08 0.05 0.03 0.01 0.00 0.00 0.00 0.00 0.00 0.01 0.00 0.00 0.00 0.00 0.00 0.00 0.00 0.00 0.00 0.00 0.00 0.00 0.00 0.00 0.00 0.01 0.01 0.01 0.01 0.02 0.02 0.01 0.01 0.01
0.02 0.02 0.04 0.11 0.15 0.14 0.12 0.10 0.08 0.11 0.09 0.07 0.04 0.01 0.01 0.00 0.00 0.00 0.01 0.01 0.01 0.00 0.00 0.00 0.00 0.00 0.00 0.00 0.00 0.00 0.00 0.00 0.00 0.00 0.00 0.00 0.00 0.01 0.03 0.04 0.04 0.03 0.02
0.01 0.01 0.03 0.08 0.17 0.21 0.21 0.17 0.16 0.13 0.08 0.09 0.08 0.04 0.01 0.01 0.00 0.00 0.00 0.00 0.01 0.00 0.00 0.00 0.00 0.00 0.00 0.00 0.00 0.00 0.00 0.00 0.00 0.00 0.00 0.00 0.00 0.00 0.01 0.02 0.03 0.03 0.03
0.02 0.03 0.05 0.09 0.21 0.33 0.34 0.26 0.20 0.15 0.08 0.09 0.08 0.04 0.04 0.02 0.00 0.00 0.00 0.01 0.02 0.01 0.00 0.00 0.00 0.00 0.00 0.00 0.00 0.00 0.00 0.00 0.00 0.00 0.00 0.00 0.00 0.00 0.00 0.00 0.00 0.00 0.00
0.02 0.03 0.05 0.09 0.16 0.30 0.42 0.41 0.28 0.17 0.10 0.08 0.06 0.04 0.05 0.04 0.01 0.00 0.00 0.01 0.03 0.04 0.03 0.01 0.00 0.00 0.00 0.00 0.00 0.00 0.00 0.00 0.00 0.00 0.00 0.00 0.00 0.00 0.00 0.00 0.00 0.00 0.00
0.02 0.02 0.03 0.07 0.13 0.24 0.39 0.48 0.43 0.28 0.14 0.07 0.05 0.06 0.07 0.06 0.04 0.02 0.01 0.00 0.01 0.03 0.06 0.02 0.00 0.00 0.00 0.00 0.00 0.00 0.00 0.00 0.00 0.00 0.00 0.00 0.00 0.00 0.00 0.00 0.00 0.00 0.00
0.02 0.02 0.04 0.04 0.08 0.15 0.28 0.46 0.51 0.40 0.23 0.12 0.06 0.06 0.06 0.03 0.03 0.03 0.02 0.01 0.01 0.02 0.06 0.04 0.00 0.00 0.00 0.00 0.00 0.00 0.00 0.00 0.00 0.00 0.00 0.00 0.00 0.00 0.00 0.00 0.00 0.00 0.00
0.01 0.02 0.03 0.03 0.05 0.08 0.14 0.25 0.37 0.40 0.31 0.19 0.11 0.09 0.09 0.06 0.04 0.02 0.02 0.03 0.05 0.06 0.07 0.08 0.01 0.01 0.00 0.00 0.00 0.00 0.00 0.00 0.00 0.00 0.00 0.00 0.00 0.00 0.00 0.00 0.00 0.00 0.00
0.00 0.01 0.02 0.03 0.05 0.06 0.07 0.12 0.17 0.22 0.24 0.19 0.11 0.08 0.06 0.05 0.07 0.05 0.04 0.07 0.12 0.09 0.08 0.09 0.03 0.01 0.01 0.00 0.00 0.00 0.00 0.00 0.00 0.00 0.00 0.00 0.00 0.00 0.00 0.00 0.00 0.00 0.00
0.00 0.00 0.01 0.04 0.07 0.07 0.06 0.07 0.10 0.11 0.10 0.08 0.08 0.07 0.04 0.04 0.05 0.03 0.03 0.08 0.14 0.12 0.08 0.08 0.03 0.02 0.03 0.01 0.00 0.00 0.00 0.00 0.00 0.00 0.00 0.00 0.00 0.00 0.00 0.00 0.00 0.00 0.00
0.01 0.01 0.01 0.01 0.01 0.03 0.03 0.04 0.06 0.06 0.05 0.03 0.03 0.03 0.03 0.03 0.05 0.03 0.02 0.05 0.10 0.08 0.05 0.04 0.04 0.03 0.02 0.01 0.00 0.00 0.00 0.00 0.00 0.00 0.00 0.00 0.00 0.00 0.00 0.00 0.00 0.00 0.00
0.03 0.05 0.04 0.02 0.01 0.01 0.02 0.02 0.04 0.04 0.04 0.03 0.03 0.02 0.01 0.02 0.04 0.03 0.02 0.03 0.06 0.07 0.07 0.07 0.06 0.05 0.03 0.01 0.01 0.00 0.00 0.00 0.00 0.00 0.00 0.00 0.00 0.00 0.00 0.00 0.00 0.00 0.00
0.03 0.03 0.04 0.04 0.02 0.01 0.01 0.01 0.02 0.03 0.04 0.03 0.03 0.04 0.03 0.01 0.02 0.03 0.05 0.04 0.03 0.03 0.05 0.09 0.09 0.11 0.09 0.04 0.01 0.00 0.00 0.00 0.00 0.00 0.00 0.00 0.00 0.00 0.00 0.00 0.00 0.01 0.00
0.14 0.11 0.10 0.10 0.05 0.03 0.02 0.00 0.00 0.01 0.03 0.03 0.03 0.04 0.04 0.02 0.01 0.03 0.04 0.05 0.04 0.04 0.06 0.06 0.10 0.19 0.14 0.05 0.01 0.00 0.00 0.00 0.00 0.00 0.00 0.00 0.00 0.00 0.00 0.00 0.00 0.00 0.00
0.17 0.15 0.15 0.12 0.08 0.07 0.04 0.01 0.00 0.01 0.02 0.02 0.02 0.02 0.02 0.02 0.01 0.01 0.04 0.11 0.13 0.11 0.15 0.13 0.11 0.11 0.08 0.03 0.01 0.00 0.00 0.00 0.00 0.00 0.00 0.00 0.00 0.00 0.00 0.00 0.00 0.00 0.00
0.09 0.11 0.12 0.13 0.11 0.09 0.07 0.02 0.01 0.01 0.01 0.01 0.01 0.01 0.01 0.01 0.00 0.00 0.04 0.10 0.08 0.09 0.14 0.14 0.09 0.07 0.06 0.03 0.01 0.00 0.00 0.00 0.00 0.00 0.00 0.00 0.00 0.00 0.00 0.00 0.00 0.00 0.00

GEFSMA_prec_meanprecacc_012.txt.gz
Total_Precipitation_Accumulation
0.00 0.01 0.01 0.02 0.01 0.00 0.00 0.00 0.00 0.00 0.00 0.00 0.00 0.00 0.00 0.01 0.06 0.12 0.22 0.26 0.33 0.29 0.23 0.14 0.08 0.06 0.08 0.05 0.05 0.05 0.05 0.04 0.04 0.05 0.08 0.08 0.08 0.04 0.01 0.01 0.03 0.05 0.05
0.00 0.00 0.02 0.02 0.01 0.00 0.00 0.00 0.00 0.00 0.00 0.00 0.00 0.00 0.00 0.01 0.02 0.05 0.16 0.34 0.42 0.30 0.29 0.30 0.21 0.16 0.12 0.07 0.07 0.06 0.07 0.05 0.04 0.04 0.05 0.06 0.05 0.03 0.01 0.01 0.03 0.05 0.06
0.00 0.00 0.02 0.02 0.01 0.00 0.00 0.00 0.00 0.00 0.00 0.00 0.00 0.00 0.00 0.00 0.00 0.00 0.02 0.08 0.14 0.15 0.13 0.17 0.21 0.19 0.15 0.11 0.10 0.05 0.04 0.04 0.05 0.05 0.05 0.04 0.03 0.02 0.01 0.01 0.03 0.04 0.03
0.00 0.00 0.00 0.02 0.02 0.00 0.00 0.01 0.01 0.01 0.00 0.00 0.00 0.00 0.00 0.00 0.00 0.00 0.00 0.00 0.01 0.01 0.02 0.02 0.04 0.09 0.17 0.21 0.20 0.09 0.03 0.02 0.02 0.02 0.04 0.04 0.02 0.01 0.01 0.03 0.02 0.03 0.02
0.02 0.01 0.01 0.01 0.02 0.02 0.03 0.03 0.03 0.01 0.01 0.01 0.00 0.00 0.00 0.00 0.00 0.00 0.00 0.00 0.00 0.00 0.00 0.00 0.00 0.00 0.02 0.06 0.13 0.13 0.06 0.02 0.01 0.01 0.01 0.02 0.03 0.02 0.03 0.04 0.01 0.00 0.00
0.12 0.05 0.02 0.02 0.02 0.07 0.12 0.09 0.10 0.08 0.05 0.02 0.00 0.00 0.00 0.00 0.00 0.00 0.00 0.00 0.00 0.00 0.00 0.00 0.00 0.00 0.00 0.00 0.01 0.02 0.02 0.02 0.01 0.01 0.01 0.01 0.01 0.01 0.02 0.03 0.01 0.00 0.00
0.16 0.12 0.04 0.02 0.03 0.05 0.12 0.18 0.23 0.27 0.14 0.02 0.02 0.03 0.01 0.00 0.00 0.00 0.00 0.00 0.00 0.00 0.00 0.00 0.00 0.00 0.00 0.00 0.00 0.00 0.00 0.02 0.02 0.02 0.01 0.01 0.00 0.00 0.01 0.03 0.01 0.00 0.00
0.16 0.12 0.09 0.06 0.05 0.08 0.15 0.19 0.24 0.33 0.21 0.05 0.06 0.17 0.10 0.03 0.00 0.00 0.00 0.00 0.00 0.00 0.00 0.00 0.00 0.00 0.00 0.00 0.00 0.00 0.00 0.01 0.03 0.03 0.02 0.01 0.00 0.00 0.00 0.02 0.03 0.02 0.01
0.35 0.28 0.18 0.14 0.11 0.07 0.12 0.17 0.22 0.35 0.22 0.06 0.03 0.11 0.18 0.15 0.03 0.00 0.00 0.00 0.00 0.00 0.00 0.00 0.00 0.00 0.00 0.00 0.00 0.00 0.00 0.00 0.02 0.04 0.04 0.02 0.01 0.01 0.01 0.01 0.02 0.03 0.02
0.38 0.39 0.26 0.19 0.17 0.11 0.12 0.15 0.18 0.29 0.32 0.19 0.07 0.03 0.04 0.06 0.04 0.04 0.01 0.00 0.00 0.00 0.00 0.00 0.00 0.00 0.00 0.00 0.00 0.00 0.00 0.00 0.01 0.02 0.04 0.03 0.02 0.02 0.02 0.01 0.01 0.02 0.04
0.17 0.18 0.17 0.16 0.17 0.15 0.13 0.15 0.21 0.34 0.33 0.29 0.16 0.08 0.04 0.03 0.01 0.04 0.06 0.02 0.00 0.00 0.00 0.00 0.00 0.00 0.00 0.00 0.00 0.00 0.00 0.00 0.00 0.00 0.01 0.02 0.02 0.03 0.05 0.04 0.03 0.03 0.03
0.12 0.10 0.11 0.16 0.22 0.22 0.20 0.20 0.25 0.36 0.35 0.34 0.23 0.11 0.08 0.05 0.01 0.01 0.04 0.06 0.03 0.00 0.00 0.00 0.00 0.00 0.00 0.00 0.00 0.00 0.00 0.00 0.00 0.00 0.00 0.00 0.00 0.01 0.04 0.06 0.06 0.05 0.04
0.08 0.09 0.13 0.20 0.30 0.34 0.32 0.30 0.35 0.38 0.35 0.39 0.29 0.16 0.08 0.03 0.01 0.00 0.01 0.02 0.05 0.02 0.00 0.00 0.00 0.00 0.00 0.00 0.00 0.00 0.00 0.00 0.00 0.00 0.00 0.00 0.00 0.00 0.01 0.02 0.03 0.03 0.03
0.06 0.07 0.12 0.21 0.38 0.53 0.52 0.42 0.37 0.37 0.32 0.38 0.31 0.22 0.20 0.08 0.02 0.00 0.01 0.05 0.12 0.13 0.06 0.01 0.00 0.00 0.00 0.00 0.00 0.00 0.00 0.00 0.00 0.00 0.00 0.00 0.00 0.00 0.00 0.00 0.00 0.00 0.00
0.04 0.05 0.08 0.15 0.25 0.44 0.58 0.56 0.42 0.34 0.29 0.34 0.31 0.26 0.30 0.21 0.05 0.01 0.00 0.03 0.13 0.20 0.20 0.11 0.04 0.00 0.00 0.00 0.00 0.00 0.00 0.00 0.00 0.00 0.00 0.00 0.00 0.00 0.00 0.00 0.00 0.00 0.00
0.03 0.04 0.05 0.08 0.16 0.29 0.46 0.57 0.55 0.44 0.33 0.30 0.34 0.35 0.40 0.33 0.17 0.06 0.02 0.01 0.02 0.13 0.21 0.14 0.08 0.01 0.00 0.00 0.00 0.00 0.00 0.00 0.00 0.00 0.00 0.00 0.00 0.00 0.00 0.00 0.00 0.00 0.00
0.03 0.03 0.06 0.06 0.12 0.19 0.33 0.54 0.65 0.60 0.47 0.39 0.35 0.39 0.44 0.39 0.33 0.20 0.11 0.09 0.07 0.10 0.19 0.14 0.07 0.02 0.01 0.00 0.00 0.00 0.00 0.00 0.00 0.00 0.00 0.00 0.00 0.00 0.00 0.00 0.00 0.00 0.00
0.01 0.04 0.05 0.05 0.09 0.12 0.19 0.32 0.49 0.59 0.58 0.49 0.43 0.42 0.47 0.45 0.46 0.36 0.27 0.20 0.17 0.16 0.20 0.20 0.10 0.05 0.03 0.01 0.00 0.00 0.00 0.00 0.00 0.00 0.00 0.00 0.00 0.00 0.00 0.00 0.00 0.00 0.00
0.02 0.03 0.05 0.07 0.11 0.12 0.12 0.16 0.23 0.31 0.41 0.44 0.42 0.38 0.35 0.36 0.43 0.36 0.28 0.24 0.27 0.21 0.22 0.24 0.16 0.07 0.05 0.02 0.01 0.00 0.00 0.00 0.00 0.00 0.00 0.00 0.00 0.00 0.00 0.00 0.00 0.00 0.00
0.02 0.02 0.04 0.09 0.14 0.15 0.14 0.12 0.15 0.15 0.16 0.19 0.26 0.29 0.28 0.27 0.28 0.22 0.19 0.23 0.34 0.30 0.28 0.29 0.20 0.09 0.07 0.04 0.01 0.00 0.00 0.00 0.00 0.00 0.00 0.00 0.00 0.00 0.00 0.00 0.00 0.00 0.00
0.02 0.02 0.03 0.04 0.06 0.09 0.10 0.12 0.13 0.10 0.09 0.06 0.07 0.09 0.12 0.15 0.17 0.13 0.12 0.20 0.32 0.32 0.27 0.27 0.24 0.14 0.06 0.04 0.02 0.00 0.00 0.00 0.00 0.00 0.00 0.00 0.00 0.00 0.00 0.00 0.00 0.00 0.00
0.03 0.05 0.05 0.03 0.04 0.04 0.04 0.07 0.08 0.07 0.08 0.07 0.05 0.03 0.03 0.05 0.08 0.07 0.06 0.07 0.14 0.20 0.24 0.28 0.28 0.20 0.10 0.04 0.03 0.01 0.00 0.00 0.00 0.00 0.00 0.00 0.00 0.00 0.00 0.00 0.00 0.00 0.00
0.06 0.07 0.07 0.06 0.05 0.06 0.05 0.02 0.02 0.04 0.07 0.07 0.07 0.08 0.05 0.02 0.03 0.04 0.06 0.05 0.03 0.04 0.12 0.24 0.27 0.30 0.33 0.18 0.07 0.03 0.01 0.01 0.00 0.00 0.00 0.00 0.00 0.00 0.00 0.00 0.00 0.01 0.00
0.21 0.18 0.19 0.18 0.17 0.16 0.11 0.03 0.01 0.02 0.04 0.05 0.06 0.07 0.07 0.04 0.02 0.03 0.06 0.07 0.06 0.07 0.14 0.12 0.18 0.34 0.36 0.29 0.16 0.09 0.07 0.05 0.02 0.00 0.00 0.00 0.00 0.00 0.00 0.00 0.00 0.00 0.00
0.31 0.29 0.30 0.29 0.26 0.22 0.16 0.06 0.01 0.01 0.02 0.03 0.03 0.03 0.04 0.03 0.03 0.05 0.08 0.16 0.20 0.20 0.28 0.27 0.24 0.25 0.23 0.19 0.16 0.12 0.09 0.06 0.03 0.00 0.00 0.00 0.00 0.00 0.00 0.00 0.00 0.00 0.00
0.19 0.23 0.24 0.25 0.27 0.25 0.24 0.09 0.03 0.03 0.03 0.04 0.04 0.04 0.06 0.05 0.05 0.06 0.09 0.18 0.16 0.18 0.23 0.22 0.16 0.13 0.10 0.07 0.07 0.07 0.08 0.07 0.06 0.02 0.00 0.00 0.00 0.00 0.00 0.00 0.00 0.00 0.00

GEFSMA_prec_meanprecacc_018.txt.gz
Total_Precipitation_Accumulation
0.01 0.01 0.02 0.02 0.01 0.00 0.00 0.00 0.00 0.00 0.00 0.00 0.02 0.03 0.02 0.02 0.06 0.13 0.23 0.29 0.38 0.35 0.27 0.16 0.09 0.07 0.08 0.06 0.06 0.07 0.08 0.07 0.06 0.06 0.08 0.08 0.08 0.04 0.01 0.02 0.04 0.06 0.06
0.01 0.01 0.03 0.02 0.01 0.01 0.00 0.00 0.00 0.00 0.00 0.00 0.01 0.01 0.01 0.02 0.02 0.06 0.17 0.37 0.49 0.41 0.40 0.35 0.24 0.17 0.13 0.08 0.08 0.08 0.09 0.07 0.05 0.05 0.05 0.06 0.05 0.03 0.01 0.02 0.04 0.06 0.06
0.00 0.00 0.02 0.03 0.02 0.01 0.00 0.00 0.00 0.00 0.00 0.00 0.00 0.00 0.00 0.01 0.01 0.01 0.02 0.08 0.17 0.24 0.27 0.26 0.26 0.23 0.16 0.12 0.11 0.05 0.04 0.05 0.05 0.05 0.05 0.05 0.03 0.02 0.01 0.01 0.03 0.04 0.04
0.01 0.01 0.01 0.03 0.03 0.01 0.00 0.01 0.01 0.01 0.00 0.00 0.00 0.00 0.00 0.00 0.00 0.00 0.00 0.00 0.01 0.04 0.10 0.09 0.10 0.13 0.19 0.22 0.20 0.10 0.03 0.02 0.02 0.03 0.04 0.04 0.02 0.01 0.01 0.03 0.02 0.03 0.02
0.05 0.02 0.01 0.02 0.02 0.03 0.03 0.04 0.03 0.02 0.01 0.01 0.00 0.00 0.00 0.00 0.00 0.00 0.00 0.00 0.00 0.00 0.01 0.01 0.02 0.02 0.03 0.07 0.14 0.14 0.06 0.02 0.02 0.01 0.01 0.03 0.03 0.02 0.03 0.04 0.01 0.00 0.00
0.22 0.11 0.04 0.03 0.03 0.07 0.12 0.10 0.11 0.10 0.05 0.02 0.00 0.00 0.00 0.00 0.00 0.00 0.00 0.00 0.00 0.00 0.00 0.00 0.00 0.00 0.00 0.00 0.01 0.02 0.03 0.02 0.01 0.01 0.01 0.01 0.01 0.01 0.03 0.04 0.01 0.00 0.00
0.31 0.26 0.13 0.09 0.07 0.07 0.13 0.19 0.25 0.32 0.19 0.04 0.03 0.04 0.01 0.00 0.00 0.00 0.00 0.00 0.00 0.00 0.00 0.00 0.00 0.00 0.00 0.00 0.00 0.00 0.01 0.03 0.03 0.02 0.01 0.01 0.01 0.00 0.01 0.04 0.02 0.01 0.00
0.35 0.35 0.29 0.23 0.17 0.15 0.19 0.21 0.28 0.42 0.31 0.11 0.11 0.21 0.12 0.03 0.00 0.00 0.00 0.00 0.00 0.00 0.00 0.00 0.00 0.00 0.00 0.00 0.00 0.00 0.01 0.03 0.05 0.04 0.02 0.01 0.01 0.00 0.00 0.02 0.03 0.02 0.01
0.53 0.54 0.49 0.41 0.32 0.20 0.21 0.24 0.32 0.49 0.38 0.21 0.16 0.21 0.21 0.16 0.04 0.00 0.00 0.00 0.00 0.00 0.00 0.00 0.00 0.00 0.00 0.00 0.00 0.00 0.00 0.00 0.02 0.04 0.04 0.02 0.01 0.01 0.01 0.01 0.03 0.04 0.03
0.46 0.54 0.50 0.47 0.44 0.31 0.31 0.31 0.33 0.45 0.49 0.32 0.21 0.16 0.12 0.10 0.06 0.04 0.01 0.00 0.00 0.00 0.00 0.00 0.00 0.00 0.00 0.00 0.00 0.00 0.00 0.00 0.01 0.03 0.04 0.04 0.03 0.03 0.03 0.02 0.02 0.03 0.05
0.20 0.24 0.30 0.40 0.46 0.46 0.44 0.47 0.45 0.54 0.50 0.41 0.25 0.20 0.20 0.17 0.12 0.07 0.07 0.02 0.00 0.00 0.00 0.00 0.00 0.00 0.00 0.00 0.00 0.00 0.00 0.00 0.00 0.00 0.01 0.02 0.02 0.04 0.06 0.05 0.04 0.04 0.03
0.13 0.12 0.17 0.28 0.45 0.58 0.59 0.57 0.56 0.64 0.59 0.52 0.33 0.21 0.23 0.23 0.21 0.15 0.09 0.07 0.03 0.00 0.00 0.00 0.00 0.00 0.00 0.00 0.00 0.00 0.00 0.00 0.00 0.00 0.00 0.00 0.00 0.01 0.04 0.07 0.07 0.06 0.05
0.08 0.12 0.18 0.29 0.46 0.59 0.65 0.63 0.65 0.64 0.58 0.59 0.43 0.27 0.19 0.18 0.18 0.18 0.17 0.08 0.05 0.02 0.00 0.00 0.00 0.00 0.00 0.00 0.00 0.00 0.00 0.00 0.00 0.00 0.00 0.00 0.00 0.00 0.01 0.02 0.03 0.04 0.05
0.06 0.08 0.15 0.27 0.46 0.66 0.71 0.64 0.59 0.57 0.53 0.57 0.48 0.36 0.35 0.24 0.19 0.18 0.19 0.19 0.17 0.14 0.07 0.01 0.00 0.00 0.00 0.00 0.00 0.00 0.00 0.00 0.00 0.00 0.00 0.00 0.00 0.00 0.00 0.00 0.00 0.01 0.01
0.04 0.05 0.09 0.17 0.29 0.50 0.66 0.67 0.55 0.52 0.47 0.51 0.47 0.41 0.47 0.45 0.33 0.23 0.22 0.22 0.25 0.24 0.21 0.13 0.05 0.01 0.01 0.00 0.00 0.00 0.00 0.00 0.00 0.00 0.00 0.00 0.00 0.00 0.00 0.00 0.00 0.00 0.00
0.03 0.04 0.05 0.09 0.18 0.31 0.49 0.61 0.61 0.56 0.47 0.43 0.49 0.53 0.57 0.60 0.59 0.41 0.29 0.24 0.19 0.23 0.25 0.16 0.09 0.03 0.03 0.02 0.01 0.00 0.00 0.00 0.00 0.00 0.00 0.00 0.00 0.00 0.00 0.00 0.00 0.00 0.00
0.03 0.04 0.06 0.06 0.12 0.20 0.34 0.55 0.66 0.64 0.53 0.48 0.48 0.55 0.63 0.64 0.74 0.65 0.49 0.38 0.30 0.29 0.30 0.19 0.09 0.04 0.03 0.02 0.02 0.01 0.00 0.00 0.00 0.00 0.00 0.00 0.00 0.00 0.00 0.00 0.00 0.00 0.00
0.02 0.04 0.06 0.06 0.10 0.13 0.19 0.32 0.49 0.59 0.58 0.51 0.48 0.52 0.61 0.67 0.78 0.80 0.73 0.59 0.48 0.40 0.37 0.31 0.15 0.08 0.07 0.03 0.02 0.01 0.01 0.00 0.00 0.00 0.00 0.00 0.00 0.00 0.00 0.00 0.00 0.00 0.00
0.02 0.04 0.07 0.10 0.14 0.15 0.13 0.16 0.23 0.32 0.41 0.45 0.44 0.42 0.42 0.50 0.65 0.76 0.76 0.70 0.65 0.50 0.44 0.41 0.27 0.15 0.11 0.06 0.03 0.01 0.01 0.00 0.00 0.00 0.00 0.00 0.00 0.00 0.00 0.00 0.00 0.00 0.00
0.03 0.04 0.07 0.14 0.20 0.19 0.16 0.14 0.15 0.15 0.16 0.19 0.26 0.31 0.32 0.35 0.43 0.49 0.56 0.64 0.74 0.63 0.51 0.46 0.34 0.19 0.14 0.09 0.04 0.01 0.01 0.00 0.00 0.00 0.00 0.00 0.00 0.00 0.00 0.00 0.00 0.00 0.00
0.04 0.05 0.06 0.08 0.12 0.14 0.13 0.16 0.15 0.10 0.09 0.06 0.07 0.10 0.14 0.22 0.30 0.32 0.37 0.49 0.64 0.64 0.53 0.45 0.39 0.25 0.13 0.08 0.04 0.02 0.01 0.01 0.00 0.00 0.00 0.00 0.00 0.00 0.00 0.00 0.00 0.00 0.00
0.08 0.11 0.10 0.08 0.09 0.10 0.10 0.14 0.11 0.08 0.09 0.07 0.05 0.03 0.03 0.07 0.14 0.17 0.21 0.26 0.37 0.45 0.49 0.49 0.43 0.31 0.17 0.09 0.07 0.04 0.01 0.00 0.00 0.00 0.00 0.00 0.00 0.00 0.00 0.00 0.00 0.00 0.00
0.15 0.16 0.16 0.14 0.13 0.17 0.11 0.08 0.09 0.07 0.08 0.08 0.08 0.09 0.07 0.02 0.04 0.06 0.11 0.15 0.14 0.16 0.26 0.39 0.38 0.37 0.38 0.22 0.11 0.07 0.04 0.02 0.01 0.00 0.00 0.00 0.00 0.00 0.00 0.00 0.00 0.01 0.00
0.32 0.30 0.31 0.30 0.27 0.28 0.19 0.09 0.09 0.06 0.06 0.07 0.09 0.10 0.10 0.07 0.05 0.05 0.07 0.09 0.09 0.12 0.20 0.19 0.24 0.40 0.41 0.33 0.20 0.15 0.14 0.10 0.05 0.01 0.00 0.00 0.00 0.00 0.00 0.00 0.00 0.00 0.00
0.38 0.39 0.42 0.41 0.35 0.30 0.23 0.12 0.07 0.05 0.05 0.05 0.06 0.06 0.06 0.06 0.06 0.08 0.12 0.20 0.23 0.24 0.34 0.35 0.33 0.33 0.31 0.28 0.25 0.22 0.16 0.11 0.06 0.02 0.01 0.00 0.00 0.00 0.00 0.00 0.00 0.00 0.00
0.23 0.30 0.32 0.35 0.36 0.33 0.35 0.18 0.12 0.10 0.07 0.09 0.10 0.09 0.10 0.08 0.09 0.11 0.14 0.21 0.19 0.21 0.28 0.30 0.26 0.21 0.17 0.15 0.15 0.14 0.15 0.13 0.09 0.03 0.01 0.01 0.00 0.00 0.00 0.00 0.00 0.00 0.00

GEFSMA_prec_meanprecacc_024.txt.gz
Total_Precipitation_Accumulation
0.01 0.01 0.02 0.02 0.01 0.00 0.00 0.00 0.00 0.00 0.00 0.00 0.02 0.03 0.02 0.02 0.06 0.13 0.23 0.31 0.41 0.39 0.31 0.18 0.09 0.08 0.09 0.07 0.08 0.10 0.13 0.15 0.16 0.14 0.12 0.09 0.08 0.05 0.02 0.03 0.04 0.06 0.06
0.01 0.01 0.03 0.02 0.01 0.01 0.00 0.00 0.00 0.00 0.00 0.00 0.01 0.01 0.02 0.02 0.02 0.06 0.17 0.38 0.51 0.44 0.45 0.40 0.27 0.19 0.15 0.10 0.10 0.10 0.13 0.13 0.12 0.11 0.09 0.09 0.07 0.04 0.01 0.03 0.04 0.06 0.07
0.01 0.01 0.02 0.03 0.02 0.01 0.00 0.00 0.00 0.00 0.00 0.00 0.00 0.00 0.00 0.01 0.01 0.01 0.02 0.09 0.18 0.27 0.33 0.34 0.33 0.27 0.20 0.14 0.13 0.08 0.08 0.10 0.10 0.11 0.10 0.08 0.05 0.03 0.01 0.02 0.03 0.04 0.04
0.02 0.01 0.01 0.03 0.03 0.01 0.00 0.01 0.01 0.01 0.00 0.00 0.00 0.00 0.00 0.00 0.00 0.00 0.00 0.01 0.02 0.06 0.15 0.17 0.19 0.20 0.23 0.24 0.22 0.12 0.06 0.06 0.06 0.07 0.09 0.09 0.05 0.03 0.03 0.04 0.02 0.03 0.02
0.11 0.08 0.05 0.06 0.04 0.03 0.04 0.04 0.04 0.02 0.02 0.01 0.01 0.00 0.00 0.00 0.00 0.00 0.00 0.00 0.00 0.01 0.02 0.04 0.05 0.05 0.07 0.09 0.15 0.15 0.08 0.04 0.05 0.05 0.05 0.06 0.06 0.05 0.07 0.06 0.02 0.01 0.00
0.37 0.25 0.20 0.20 0.18 0.16 0.16 0.11 0.12 0.11 0.06 0.03 0.00 0.00 0.01 0.00 0.00 0.00 0.00 0.00 0.00 0.00 0.00 0.00 0.00 0.00 0.01 0.01 0.02 0.03 0.04 0.04 0.03 0.03 0.03 0.03 0.03 0.03 0.05 0.06 0.02 0.01 0.01
0.48 0.41 0.34 0.35 0.36 0.31 0.29 0.28 0.29 0.34 0.20 0.05 0.04 0.04 0.01 0.00 0.00 0.00 0.00 0.00 0.00 0.00 0.00 0.00 0.00 0.00 0.00 0.00 0.00 0.01 0.03 0.06 0.05 0.03 0.02 0.01 0.01 0.01 0.02 0.05 0.04 0.02 0.01
0.50 0.53 0.51 0.49 0.49 0.49 0.47 0.41 0.41 0.50 0.37 0.16 0.14 0.23 0.12 0.03 0.00 0.00 0.00 0.00 0.00 0.00 0.00 0.00 0.00 0.00 0.00 0.00 0.00 0.00 0.02 0.05 0.07 0.04 0.02 0.01 0.01 0.00 0.01 0.03 0.05 0.04 0.03
0.66 0.66 0.65 0.60 0.56 0.49 0.51 0.55 0.58 0.72 0.57 0.34 0.25 0.27 0.24 0.17 0.04 0.00 0.00 0.00 0.00 0.00 0.00 0.00 0.00 0.00 0.00 0.00 0.00 0.00 0.00 0.01 0.04 0.05 0.04 0.02 0.02 0.02 0.01 0.01 0.04 0.05 0.05
0.55 0.64 0.60 0.59 0.56 0.48 0.54 0.61 0.68 0.84 0.84 0.58 0.39 0.28 0.19 0.13 0.08 0.05 0.01 0.00 0.00 0.00 0.00 0.00 0.00 0.00 0.00 0.00 0.00 0.00 0.00 0.00 0.01 0.03 0.05 0.05 0.04 0.04 0.04 0.03 0.03 0.04 0.06
0.28 0.31 0.38 0.47 0.53 0.54 0.58 0.69 0.75 0.92 0.91 0.78 0.52 0.41 0.36 0.26 0.16 0.09 0.08 0.02 0.00 0.00 0.00 0.00 0.00 0.00 0.00 0.00 0.00 0.00 0.00 0.00 0.00 0.01 0.01 0.03 0.03 0.05 0.07 0.06 0.06 0.05 0.04
0.18 0.17 0.21 0.33 0.49 0.63 0.68 0.71 0.78 0.94 0.96 0.92 0.70 0.50 0.45 0.39 0.31 0.21 0.12 0.08 0.03 0.00 0.00 0.00 0.00 0.00 0.00 0.00 0.00 0.00 0.00 0.00 0.00 0.00 0.00 0.00 0.01 0.01 0.05 0.07 0.07 0.08 0.07
0.10 0.14 0.20 0.32 0.48 0.61 0.68 0.70 0.75 0.80 0.84 0.94 0.83 0.64 0.48 0.37 0.32 0.29 0.25 0.13 0.08 0.03 0.00 0.00 0.00 0.00 0.00 0.00 0.00 0.00 0.00 0.00 0.00 0.00 0.00 0.00 0.00 0.00 0.01 0.02 0.04 0.05 0.06
0.07 0.09 0.16 0.28 0.47 0.67 0.73 0.67 0.64 0.64 0.67 0.79 0.76 0.68 0.64 0.46 0.35 0.29 0.29 0.27 0.22 0.16 0.07 0.01 0.00 0.00 0.00 0.00 0.00 0.00 0.00 0.00 0.00 0.00 0.00 0.00 0.00 0.00 0.00 0.00 0.00 0.01 0.02
0.05 0.05 0.09 0.17 0.30 0.50 0.67 0.69 0.58 0.56 0.53 0.62 0.64 0.63 0.68 0.66 0.50 0.36 0.33 0.32 0.33 0.29 0.22 0.13 0.05 0.02 0.01 0.00 0.00 0.00 0.00 0.00 0.00 0.00 0.00 0.00 0.00 0.00 0.00 0.00 0.00 0.00 0.00
0.04 0.04 0.05 0.09 0.18 0.32 0.49 0.61 0.61 0.57 0.49 0.47 0.58 0.68 0.75 0.78 0.74 0.53 0.41 0.35 0.28 0.29 0.28 0.19 0.11 0.04 0.03 0.03 0.01 0.00 0.00 0.00 0.00 0.00 0.00 0.00 0.00 0.00 0.00 0.00 0.00 0.00 0.00
0.03 0.04 0.06 0.06 0.12 0.20 0.34 0.55 0.66 0.64 0.54 0.50 0.52 0.60 0.70 0.76 0.89 0.78 0.62 0.50 0.41 0.37 0.35 0.23 0.13 0.07 0.05 0.03 0.04 0.02 0.00 0.00 0.00 0.00 0.00 0.00 0.00 0.00 0.00 0.00 0.00 0.00 0.00
0.02 0.04 0.07 0.07 0.10 0.14 0.19 0.32 0.49 0.59 0.58 0.52 0.49 0.53 0.64 0.73 0.86 0.91 0.85 0.72 0.61 0.53 0.47 0.39 0.21 0.13 0.10 0.07 0.05 0.03 0.02 0.01 0.00 0.00 0.00 0.00 0.00 0.00 0.00 0.00 0.00 0.00 0.00
0.03 0.05 0.08 0.10 0.14 0.15 0.14 0.17 0.23 0.32 0.41 0.45 0.44 0.42 0.43 0.52 0.69 0.82 0.86 0.82 0.79 0.68 0.61 0.54 0.37 0.22 0.16 0.11 0.06 0.03 0.02 0.02 0.01 0.00 0.00 0.00 0.00 0.00 0.00 0.00 0.00 0.00 0.00
0.04 0.05 0.08 0.14 0.21 0.20 0.17 0.15 0.16 0.16 0.16 0.19 0.26 0.31 0.32 0.36 0.45 0.52 0.62 0.74 0.88 0.82 0.73 0.69 0.52 0.31 0.22 0.15 0.08 0.04 0.02 0.01 0.01 0.00 0.00 0.00 0.00 0.00 0.00 0.00 0.00 0.00 0.00
0.06 0.07 0.08 0.10 0.14 0.17 0.16 0.19 0.16 0.11 0.09 0.06 0.07 0.10 0.14 0.22 0.31 0.35 0.42 0.57 0.76 0.82 0.76 0.71 0.63 0.44 0.26 0.17 0.10 0.05 0.02 0.02 0.01 0.00 0.00 0.00 0.00 0.00 0.00 0.00 0.00 0.00 0.00
0.12 0.14 0.13 0.10 0.12 0.13 0.14 0.18 0.13 0.09 0.09 0.08 0.05 0.03 0.03 0.07 0.15 0.20 0.26 0.33 0.46 0.59 0.69 0.74 0.68 0.52 0.35 0.23 0.15 0.09 0.04 0.01 0.01 0.01 0.00 0.00 0.00 0.00 0.00 0.00 0.00 0.00 0.00
0.19 0.20 0.20 0.17 0.16 0.21 0.16 0.11 0.12 0.08 0.09 0.09 0.08 0.09 0.07 0.03 0.04 0.06 0.14 0.20 0.21 0.26 0.40 0.58 0.62 0.61 0.60 0.40 0.24 0.14 0.07 0.03 0.02 0.01 0.01 0.00 0.00 0.00 0.00 0.00 0.00 0.01 0.00
0.36 0.34 0.34 0.33 0.29 0.30 0.23 0.12 0.13 0.09 0.08 0.09 0.10 0.10 0.10 0.07 0.05 0.05 0.08 0.09 0.10 0.15 0.25 0.28 0.36 0.56 0.61 0.54 0.37 0.27 0.23 0.15 0.07 0.02 0.01 0.00 0.00 0.00 0.00 0.00 0.00 0.00 0.00
0.40 0.41 0.44 0.43 0.36 0.32 0.27 0.16 0.12 0.08 0.08 0.08 0.08 0.07 0.06 0.06 0.07 0.09 0.13 0.20 0.23 0.25 0.36 0.39 0.40 0.42 0.41 0.39 0.37 0.33 0.26 0.19 0.11 0.05 0.03 0.01 0.00 0.01 0.00 0.00 0.00 0.00 0.00
0.23 0.30 0.32 0.35 0.37 0.35 0.39 0.22 0.16 0.14 0.12 0.12 0.12 0.11 0.13 0.11 0.12 0.13 0.14 0.22 0.19 0.21 0.29 0.32 0.29 0.25 0.22 0.20 0.22 0.21 0.23 0.20 0.15 0.08 0.05 0.03 0.01 0.01 0.00 0.00 0.00 0.00 0.00

GEFSMA_prec_meanprecacc_030.txt.gz
Total_Precipitation_Accumulation
0.01 0.01 0.02 0.02 0.01 0.00 0.00 0.00 0.00 0.00 0.00 0.00 0.02 0.03 0.02 0.02 0.06 0.13 0.24 0.32 0.44 0.42 0.34 0.21 0.10 0.08 0.11 0.09 0.11 0.14 0.19 0.23 0.25 0.22 0.16 0.11 0.09 0.05 0.02 0.03 0.04 0.06 0.06
0.01 0.01 0.03 0.02 0.01 0.01 0.00 0.00 0.00 0.00 0.00 0.00 0.01 0.01 0.02 0.02 0.02 0.06 0.17 0.39 0.53 0.48 0.49 0.45 0.30 0.20 0.16 0.12 0.13 0.14 0.18 0.18 0.18 0.19 0.15 0.11 0.08 0.04 0.02 0.03 0.04 0.06 0.07
0.01 0.01 0.02 0.03 0.02 0.01 0.00 0.00 0.00 0.00 0.00 0.00 0.00 0.00 0.00 0.01 0.01 0.01 0.02 0.09 0.20 0.30 0.38 0.39 0.38 0.30 0.22 0.16 0.15 0.11 0.11 0.13 0.14 0.16 0.15 0.11 0.07 0.03 0.02 0.02 0.03 0.04 0.04
0.02 0.01 0.01 0.03 0.03 0.01 0.00 0.01 0.01 0.01 0.00 0.01 0.01 0.01 0.00 0.00 0.00 0.00 0.00 0.01 0.03 0.08 0.20 0.21 0.23 0.25 0.26 0.26 0.24 0.13 0.07 0.07 0.08 0.10 0.13 0.12 0.07 0.04 0.04 0.04 0.03 0.03 0.02
0.13 0.13 0.11 0.09 0.05 0.03 0.04 0.04 0.04 0.02 0.02 0.03 0.02 0.01 0.00 0.00 0.01 0.00 0.00 0.00 0.01 0.02 0.06 0.06 0.08 0.09 0.10 0.12 0.16 0.16 0.08 0.05 0.05 0.06 0.07 0.08 0.08 0.06 0.07 0.07 0.03 0.01 0.01
0.45 0.40 0.40 0.33 0.24 0.19 0.17 0.12 0.12 0.11 0.07 0.05 0.01 0.01 0.01 0.01 0.00 0.00 0.00 0.00 0.00 0.00 0.00 0.01 0.01 0.01 0.02 0.03 0.03 0.04 0.05 0.05 0.04 0.03 0.04 0.04 0.04 0.04 0.07 0.08 0.04 0.02 0.01
0.66 0.66 0.62 0.59 0.52 0.41 0.38 0.35 0.33 0.37 0.22 0.06 0.06 0.06 0.02 0.01 0.00 0.00 0.00 0.00 0.00 0.00 0.00 0.00 0.00 0.00 0.00 0.00 0.01 0.02 0.04 0.08 0.06 0.04 0.02 0.02 0.02 0.02 0.03 0.06 0.05 0.04 0.03
0.71 0.75 0.81 0.78 0.74 0.70 0.65 0.55 0.52 0.60 0.44 0.19 0.18 0.27 0.15 0.05 0.02 0.01 0.00 0.00 0.00 0.00 0.00 0.00 0.00 0.00 0.00 0.00 0.00 0.01 0.03 0.07 0.09 0.05 0.03 0.01 0.01 0.01 0.01 0.03 0.05 0.05 0.04
0.82 0.84 0.85 0.82 0.77 0.69 0.69 0.72 0.72 0.86 0.70 0.42 0.29 0.31 0.28 0.22 0.07 0.01 0.00 0.00 0.00 0.00 0.00 0.00 0.00 0.00 0.00 0.00 0.00 0.01 0.00 0.02 0.05 0.05 0.04 0.03 0.02 0.02 0.01 0.02 0.04 0.05 0.05
0.64 0.74 0.71 0.71 0.67 0.60 0.67 0.75 0.79 0.95 0.97 0.68 0.46 0.34 0.23 0.18 0.12 0.08 0.03 0.00 0.00 0.00 0.00 0.00 0.00 0.00 0.00 0.00 0.00 0.00 0.00 0.00 0.01 0.03 0.05 0.05 0.04 0.04 0.04 0.03 0.03 0.05 0.06
0.34 0.37 0.44 0.53 0.59 0.60 0.65 0.77 0.81 0.98 0.98 0.87 0.62 0.50 0.44 0.32 0.20 0.13 0.11 0.04 0.01 0.00 0.00 0.00 0.00 0.00 0.00 0.00 0.00 0.00 0.00 0.00 0.00 0.01 0.02 0.03 0.03 0.05 0.07 0.07 0.06 0.06 0.05
0.21 0.20 0.24 0.36 0.53 0.66 0.71 0.75 0.81 0.97 1.00 0.97 0.78 0.59 0.54 0.49 0.42 0.30 0.19 0.12 0.05 0.01 0.00 0.00 0.00 0.00 0.00 0.00 0.00 0.00 0.00 0.00 0.00 0.00 0.00 0.00 0.01 0.01 0.05 0.07 0.08 0.08 0.08
0.14 0.17 0.22 0.34 0.50 0.63 0.70 0.71 0.76 0.81 0.85 0.95 0.87 0.73 0.59 0.49 0.45 0.39 0.34 0.20 0.12 0.05 0.01 0.00 0.00 0.00 0.00 0.00 0.00 0.00 0.00 0.00 0.00 0.00 0.00 0.00 0.00 0.00 0.01 0.02 0.04 0.05 0.06
0.10 0.10 0.17 0.29 0.48 0.68 0.73 0.68 0.64 0.65 0.67 0.80 0.78 0.73 0.72 0.55 0.46 0.42 0.40 0.38 0.31 0.22 0.11 0.03 0.00 0.00 0.00 0.00 0.00 0.00 0.00 0.00 0.00 0.00 0.00 0.00 0.00 0.00 0.00 0.00 0.00 0.01 0.02
0.06 0.06 0.10 0.18 0.30 0.50 0.67 0.69 0.59 0.57 0.54 0.63 0.66 0.66 0.73 0.73 0.58 0.46 0.45 0.44 0.43 0.37 0.29 0.18 0.07 0.02 0.01 0.00 0.00 0.00 0.00 0.00 0.00 0.00 0.00 0.00 0.00 0.00 0.00 0.00 0.00 0.00 0.00
0.05 0.05 0.06 0.09 0.18 0.32 0.49 0.62 0.62 0.58 0.49 0.48 0.59 0.70 0.78 0.82 0.81 0.62 0.51 0.47 0.40 0.38 0.35 0.23 0.14 0.05 0.04 0.03 0.01 0.00 0.00 0.00 0.00 0.00 0.00 0.00 0.00 0.00 0.00 0.00 0.00 0.00 0.00
0.05 0.05 0.07 0.06 0.12 0.20 0.34 0.55 0.66 0.64 0.54 0.50 0.52 0.61 0.73 0.80 0.95 0.86 0.71 0.59 0.51 0.46 0.42 0.29 0.17 0.09 0.06 0.04 0.05 0.02 0.01 0.00 0.00 0.00 0.00 0.00 0.00 0.00 0.00 0.00 0.00 0.00 0.00
0.03 0.04 0.07 0.07 0.10 0.14 0.20 0.32 0.49 0.59 0.59 0.52 0.49 0.53 0.66 0.75 0.90 0.98 0.93 0.81 0.72 0.63 0.56 0.48 0.29 0.19 0.14 0.09 0.07 0.04 0.03 0.01 0.00 0.00 0.00 0.00 0.00 0.00 0.00 0.00 0.00 0.00 0.00
0.04 0.05 0.08 0.11 0.14 0.16 0.14 0.17 0.23 0.32 0.42 0.45 0.44 0.42 0.44 0.53 0.72 0.88 0.94 0.92 0.91 0.79 0.72 0.64 0.46 0.31 0.23 0.15 0.09 0.05 0.03 0.03 0.02 0.01 0.00 0.00 0.00 0.00 0.00 0.00 0.00 0.00 0.00
0.05 0.06 0.09 0.16 0.22 0.22 0.19 0.16 0.17 0.17 0.17 0.20 0.26 0.32 0.33 0.37 0.47 0.57 0.68 0.82 1.01 0.97 0.89 0.82 0.63 0.41 0.30 0.21 0.12 0.07 0.05 0.03 0.02 0.02 0.01 0.01 0.00 0.00 0.00 0.00 0.00 0.00 0.00
0.09 0.10 0.11 0.13 0.18 0.20 0.18 0.21 0.18 0.12 0.10 0.08 0.07 0.10 0.14 0.23 0.32 0.36 0.44 0.62 0.86 0.97 0.93 0.88 0.78 0.57 0.37 0.26 0.16 0.11 0.09 0.08 0.04 0.02 0.01 0.01 0.00 0.00 0.00 0.00 0.00 0.00 0.00
0.15 0.16 0.16 0.16 0.19 0.18 0.20 0.22 0.16 0.11 0.11 0.10 0.07 0.04 0.03 0.07 0.15 0.20 0.26 0.35 0.51 0.67 0.82 0.91 0.87 0.72 0.53 0.38 0.28 0.22 0.15 0.11 0.07 0.04 0.01 0.02 0.01 0.01 0.02 0.01 0.01 0.00 0.00
0.22 0.24 0.24 0.21 0.22 0.27 0.22 0.14 0.15 0.13 0.15 0.15 0.12 0.11 0.08 0.03 0.04 0.07 0.14 0.20 0.22 0.28 0.43 0.65 0.75 0.78 0.80 0.60 0.44 0.31 0.22 0.18 0.14 0.08 0.04 0.03 0.02 0.01 0.02 0.01 0.00 0.01 0.00
0.37 0.36 0.36 0.35 0.32 0.34 0.26 0.15 0.16 0.16 0.19 0.19 0.17 0.14 0.13 0.08 0.05 0.06 0.08 0.10 0.11 0.16 0.26 0.29 0.41 0.67 0.75 0.72 0.59 0.53 0.51 0.42 0.30 0.18 0.10 0.07 0.04 0.03 0.02 0.01 0.00 0.00 0.00
0.40 0.42 0.44 0.43 0.37 0.33 0.28 0.18 0.16 0.17 0.19 0.21 0.17 0.12 0.11 0.09 0.10 0.11 0.13 0.21 0.24 0.26 0.36 0.40 0.41 0.45 0.48 0.48 0.50 0.50 0.47 0.43 0.36 0.28 0.20 0.12 0.07 0.05 0.02 0.01 0.01 0.00 0.00
0.23 0.30 0.32 0.35 0.38 0.36 0.39 0.23 0.19 0.20 0.21 0.23 0.19 0.17 0.20 0.17 0.16 0.15 0.15 0.23 0.22 0.23 0.29 0.32 0.30 0.26 0.25 0.26 0.29 0.30 0.36 0.35 0.30 0.24 0.19 0.14 0.10 0.08 0.05 0.03 0.01 0.00 0.00

GEFSMA_prec_meanprecacc_036.txt.gz
Total_Precipitation_Accumulation
0.01 0.01 0.02 0.02 0.01 0.00 0.00 0.00 0.00 0.00 0.00 0.00 0.03 0.03 0.02 0.02 0.06 0.13 0.25 0.32 0.44 0.42 0.35 0.21 0.11 0.09 0.11 0.09 0.11 0.15 0.20 0.24 0.27 0.24 0.19 0.13 0.10 0.05 0.02 0.03 0.04 0.06 0.06
0.01 0.01 0.03 0.02 0.01 0.01 0.00 0.00 0.00 0.00 0.00 0.00 0.01 0.01 0.02 0.02 0.02 0.06 0.18 0.39 0.53 0.48 0.49 0.45 0.30 0.20 0.17 0.13 0.14 0.15 0.18 0.19 0.20 0.21 0.17 0.12 0.09 0.05 0.02 0.03 0.04 0.06 0.07
0.01 0.01 0.02 0.03 0.02 0.01 0.00 0.00 0.00 0.00 0.00 0.00 0.00 0.00 0.00 0.01 0.01 0.01 0.02 0.09 0.21 0.30 0.38 0.39 0.38 0.30 0.23 0.17 0.16 0.12 0.12 0.14 0.16 0.18 0.17 0.13 0.09 0.05 0.03 0.02 0.04 0.04 0.04
0.02 0.02 0.01 0.04 0.03 0.01 0.00 0.01 0.01 0.01 0.00 0.01 0.01 0.01 0.00 0.00 0.00 0.00 0.00 0.01 0.04 0.10 0.21 0.21 0.24 0.25 0.27 0.27 0.24 0.14 0.08 0.08 0.10 0.12 0.16 0.16 0.11 0.08 0.06 0.06 0.03 0.03 0.02
0.13 0.13 0.12 0.10 0.05 0.03 0.04 0.04 0.04 0.02 0.02 0.03 0.02 0.01 0.00 0.00 0.01 0.00 0.00 0.00 0.01 0.03 0.08 0.07 0.08 0.09 0.11 0.13 0.17 0.16 0.09 0.05 0.06 0.07 0.08 0.11 0.11 0.09 0.10 0.09 0.04 0.02 0.01
0.46 0.43 0.43 0.34 0.25 0.20 0.18 0.12 0.12 0.11 0.07 0.05 0.02 0.01 0.01 0.01 0.00 0.00 0.00 0.00 0.00 0.00 0.01 0.01 0.03 0.02 0.02 0.03 0.03 0.04 0.05 0.06 0.04 0.04 0.04 0.05 0.06 0.06 0.09 0.10 0.06 0.05 0.03
0.69 0.74 0.68 0.64 0.57 0.45 0.40 0.36 0.35 0.38 0.23 0.07 0.07 0.08 0.03 0.01 0.00 0.00 0.00 0.00 0.00 0.00 0.00 0.00 0.01 0.01 0.01 0.00 0.01 0.02 0.05 0.08 0.07 0.04 0.03 0.02 0.02 0.03 0.04 0.08 0.07 0.07 0.05
0.78 0.82 0.89 0.86 0.82 0.78 0.72 0.60 0.59 0.69 0.50 0.21 0.22 0.33 0.21 0.09 0.03 0.01 0.00 0.00 0.00 0.00 0.00 0.00 0.00 0.00 0.00 0.01 0.00 0.01 0.04 0.08 0.10 0.06 0.03 0.02 0.01 0.01 0.01 0.04 0.06 0.06 0.05
0.95 0.95 0.96 0.94 0.87 0.79 0.79 0.84 0.86 1.06 0.86 0.50 0.33 0.38 0.37 0.31 0.15 0.04 0.01 0.00 0.00 0.00 0.00 0.00 0.00 0.00 0.00 0.01 0.01 0.01 0.01 0.02 0.05 0.06 0.05 0.03 0.02 0.02 0.02 0.02 0.04 0.06 0.05
0.78 0.88 0.85 0.83 0.77 0.72 0.82 0.89 0.88 1.09 1.14 0.81 0.55 0.39 0.28 0.24 0.23 0.17 0.06 0.01 0.01 0.01 0.00 0.00 0.00 0.00 0.00 0.00 0.01 0.01 0.00 0.00 0.01 0.03 0.06 0.05 0.04 0.04 0.04 0.03 0.04 0.05 0.06
0.52 0.56 0.61 0.70 0.75 0.76 0.81 0.90 0.93 1.13 1.14 1.02 0.76 0.63 0.53 0.40 0.26 0.24 0.24 0.09 0.02 0.01 0.00 0.00 0.00 0.00 0.00 0.00 0.00 0.00 0.00 0.00 0.00 0.01 0.02 0.03 0.04 0.05 0.07 0.07 0.06 0.06 0.05
0.43 0.40 0.43 0.54 0.70 0.82 0.87 0.91 0.96 1.11 1.14 1.10 0.91 0.71 0.64 0.58 0.51 0.46 0.35 0.23 0.10 0.02 0.02 0.01 0.01 0.01 0.00 0.00 0.00 0.00 0.00 0.00 0.00 0.00 0.01 0.01 0.01 0.02 0.05 0.07 0.08 0.08 0.08
0.35 0.37 0.40 0.50 0.65 0.75 0.80 0.82 0.87 0.92 0.96 1.06 0.98 0.83 0.70 0.60 0.60 0.55 0.49 0.35 0.26 0.10 0.04 0.03 0.02 0.01 0.01 0.00 0.00 0.00 0.00 0.00 0.00 0.00 0.00 0.00 0.00 0.00 0.01 0.02 0.04 0.05 0.07
0.29 0.25 0.29 0.40 0.58 0.77 0.82 0.77 0.73 0.72 0.73 0.86 0.84 0.80 0.80 0.64 0.58 0.55 0.55 0.59 0.51 0.39 0.20 0.07 0.03 0.02 0.01 0.01 0.00 0.00 0.00 0.00 0.00 0.00 0.00 0.00 0.00 0.00 0.00 0.00 0.00 0.01 0.02
0.22 0.18 0.20 0.27 0.37 0.56 0.72 0.75 0.64 0.61 0.57 0.66 0.69 0.70 0.77 0.79 0.66 0.57 0.60 0.61 0.60 0.53 0.46 0.30 0.15 0.07 0.05 0.03 0.02 0.01 0.00 0.00 0.00 0.00 0.00 0.00 0.00 0.00 0.00 0.00 0.00 0.00 0.00
0.20 0.16 0.14 0.16 0.24 0.36 0.52 0.64 0.64 0.60 0.51 0.50 0.62 0.73 0.82 0.87 0.87 0.69 0.62 0.62 0.55 0.52 0.47 0.33 0.22 0.12 0.13 0.11 0.09 0.03 0.01 0.01 0.01 0.00 0.00 0.00 0.00 0.00 0.00 0.00 0.00 0.00 0.00
0.17 0.13 0.13 0.13 0.18 0.24 0.36 0.57 0.68 0.65 0.55 0.51 0.54 0.62 0.75 0.84 1.01 0.93 0.81 0.70 0.63 0.58 0.52 0.42 0.29 0.18 0.18 0.17 0.17 0.07 0.02 0.01 0.01 0.01 0.00 0.00 0.00 0.00 0.00 0.00 0.00 0.00 0.00
0.11 0.12 0.13 0.11 0.14 0.16 0.21 0.33 0.50 0.60 0.59 0.52 0.49 0.54 0.67 0.78 0.95 1.06 1.03 0.92 0.83 0.75 0.67 0.59 0.45 0.33 0.26 0.23 0.24 0.18 0.09 0.04 0.02 0.03 0.02 0.01 0.00 0.00 0.00 0.00 0.00 0.00 0.00
0.11 0.12 0.14 0.14 0.16 0.17 0.15 0.18 0.24 0.33 0.42 0.45 0.44 0.42 0.44 0.55 0.77 0.96 1.03 1.04 1.04 0.96 0.87 0.76 0.60 0.49 0.39 0.29 0.25 0.22 0.15 0.12 0.09 0.09 0.08 0.03 0.01 0.00 0.00 0.00 0.00 0.00 0.00
0.13 0.12 0.13 0.19 0.25 0.25 0.21 0.19 0.19 0.18 0.18 0.20 0.27 0.32 0.33 0.38 0.50 0.61 0.74 0.91 1.13 1.12 1.05 0.97 0.78 0.57 0.46 0.35 0.27 0.24 0.22 0.19 0.16 0.12 0.10 0.07 0.03 0.01 0.00 0.00 0.00 0.00 0.00
0.16 0.15 0.16 0.17 0.23 0.27 0.28 0.30 0.22 0.14 0.12 0.09 0.09 0.11 0.16 0.25 0.33 0.38 0.45 0.66 0.93 1.08 1.07 1.02 0.93 0.73 0.50 0.39 0.27 0.23 0.25 0.28 0.25 0.18 0.15 0.11 0.07 0.04 0.03 0.02 0.02 0.01 0.00
0.21 0.23 0.23 0.24 0.29 0.29 0.36 0.34 0.21 0.15 0.14 0.13 0.10 0.06 0.06 0.10 0.17 0.21 0.28 0.36 0.53 0.71 0.90 1.02 1.00 0.85 0.67 0.53 0.44 0.37 0.31 0.29 0.27 0.21 0.22 0.24 0.19 0.16 0.15 0.13 0.11 0.10 0.05
0.27 0.30 0.30 0.29 0.31 0.38 0.33 0.19 0.17 0.16 0.19 0.18 0.15 0.14 0.11 0.06 0.07 0.09 0.19 0.23 0.25 0.31 0.46 0.69 0.84 0.90 0.93 0.73 0.59 0.47 0.38 0.35 0.34 0.29 0.26 0.28 0.27 0.25 0.24 0.18 0.13 0.12 0.09
0.40 0.39 0.40 0.39 0.36 0.38 0.30 0.18 0.18 0.19 0.24 0.23 0.20 0.16 0.17 0.13 0.13 0.13 0.13 0.15 0.17 0.21 0.31 0.32 0.46 0.73 0.81 0.79 0.68 0.64 0.66 0.57 0.45 0.33 0.27 0.26 0.26 0.26 0.22 0.18 0.13 0.09 0.05
0.41 0.43 0.45 0.44 0.38 0.34 0.30 0.19 0.18 0.22 0.26 0.28 0.22 0.18 0.18 0.19 0.25 0.22 0.19 0.28 0.33 0.33 0.41 0.43 0.44 0.47 0.49 0.50 0.53 0.54 0.53 0.51 0.48 0.41 0.34 0.27 0.24 0.22 0.18 0.16 0.13 0.08 0.05
0.23 0.31 0.33 0.36 0.38 0.36 0.40 0.24 0.21 0.25 0.29 0.31 0.28 0.26 0.33 0.28 0.30 0.25 0.19 0.32 0.35 0.34 0.35 0.39 0.36 0.32 0.28 0.29 0.30 0.34 0.44 0.44 0.41 0.35 0.28 0.22 0.19 0.17 0.15 0.12 0.09 0.06 0.05

GEFSMA_prec_meanprecacc_042.txt.gz
Total_Precipitation_Accumulation
0.02 0.02 0.02 0.02 0.01 0.00 0.00 0.00 0.00 0.00 0.00 0.01 0.03 0.03 0.03 0.02 0.06 0.13 0.25 0.32 0.44 0.42 0.35 0.21 0.11 0.09 0.11 0.10 0.12 0.16 0.21 0.26 0.30 0.27 0.20 0.14 0.11 0.05 0.02 0.03 0.04 0.06 0.06
0.02 0.02 0.03 0.02 0.01 0.01 0.00 0.00 0.00 0.00 0.00 0.00 0.01 0.01 0.02 0.02 0.02 0.06 0.18 0.39 0.53 0.48 0.50 0.45 0.30 0.21 0.17 0.13 0.14 0.16 0.19 0.21 0.23 0.24 0.19 0.13 0.10 0.06 0.02 0.03 0.04 0.06 0.07
0.02 0.02 0.03 0.03 0.02 0.01 0.00 0.00 0.00 0.00 0.00 0.00 0.00 0.00 0.00 0.01 0.01 0.01 0.02 0.09 0.21 0.30 0.38 0.39 0.38 0.31 0.24 0.18 0.16 0.13 0.13 0.15 0.18 0.20 0.19 0.15 0.10 0.07 0.04 0.04 0.05 0.05 0.04
0.05 0.03 0.02 0.04 0.03 0.01 0.00 0.01 0.01 0.01 0.00 0.01 0.01 0.01 0.00 0.00 0.00 0.00 0.00 0.01 0.04 0.10 0.21 0.21 0.24 0.26 0.27 0.27 0.25 0.14 0.09 0.09 0.11 0.14 0.18 0.18 0.13 0.10 0.09 0.08 0.05 0.04 0.02
0.17 0.16 0.13 0.10 0.05 0.04 0.04 0.04 0.04 0.02 0.02 0.03 0.02 0.02 0.01 0.00 0.01 0.00 0.01 0.01 0.02 0.04 0.08 0.07 0.08 0.09 0.11 0.13 0.17 0.17 0.09 0.06 0.06 0.08 0.10 0.13 0.12 0.11 0.12 0.11 0.06 0.03 0.02
0.49 0.47 0.47 0.36 0.26 0.20 0.18 0.12 0.12 0.12 0.07 0.05 0.02 0.02 0.01 0.01 0.01 0.00 0.01 0.01 0.01 0.01 0.01 0.01 0.03 0.02 0.02 0.03 0.03 0.05 0.06 0.06 0.05 0.04 0.05 0.07 0.07 0.07 0.10 0.13 0.09 0.08 0.06
0.75 0.83 0.75 0.68 0.60 0.47 0.42 0.38 0.36 0.40 0.24 0.08 0.08 0.09 0.04 0.01 0.01 0.01 0.00 0.01 0.01 0.01 0.00 0.00 0.01 0.01 0.01 0.00 0.01 0.02 0.05 0.09 0.08 0.05 0.04 0.04 0.03 0.04 0.06 0.10 0.11 0.11 0.11
0.88 0.91 0.97 0.94 0.87 0.82 0.74 0.62 0.62 0.72 0.53 0.24 0.24 0.36 0.22 0.10 0.04 0.02 0.01 0.01 0.01 0.01 0.01 0.01 0.00 0.00 0.00 0.01 0.00 0.01 0.04 0.08 0.10 0.06 0.04 0.02 0.02 0.02 0.02 0.05 0.08 0.09 0.10
1.13 1.11 1.11 1.05 0.97 0.86 0.85 0.89 0.91 1.13 0.93 0.57 0.40 0.44 0.40 0.31 0.15 0.04 0.02 0.02 0.02 0.01 0.01 0.00 0.00 0.00 0.00 0.01 0.01 0.01 0.01 0.02 0.06 0.06 0.05 0.03 0.03 0.02 0.02 0.03 0.05 0.07 0.07
1.10 1.14 1.05 0.98 0.90 0.82 0.92 0.98 0.97 1.19 1.23 0.90 0.65 0.46 0.34 0.30 0.26 0.18 0.07 0.04 0.04 0.04 0.01 0.01 0.00 0.00 0.00 0.00 0.01 0.01 0.00 0.00 0.01 0.04 0.06 0.05 0.05 0.05 0.04 0.04 0.04 0.05 0.06
0.97 0.89 0.86 0.89 0.89 0.89 0.95 1.04 1.08 1.26 1.27 1.15 0.89 0.75 0.64 0.49 0.31 0.28 0.26 0.11 0.05 0.04 0.02 0.01 0.02 0.01 0.00 0.00 0.00 0.00 0.00 0.00 0.01 0.01 0.03 0.04 0.04 0.05 0.07 0.07 0.06 0.06 0.05
1.01 0.81 0.73 0.76 0.89 1.01 1.04 1.06 1.12 1.26 1.29 1.27 1.07 0.87 0.78 0.69 0.58 0.51 0.38 0.26 0.12 0.03 0.03 0.03 0.04 0.02 0.01 0.01 0.00 0.00 0.00 0.00 0.00 0.00 0.01 0.01 0.01 0.02 0.05 0.07 0.08 0.08 0.08
0.85 0.80 0.78 0.78 0.87 0.95 0.98 0.98 1.03 1.06 1.11 1.23 1.13 0.97 0.82 0.69 0.68 0.60 0.52 0.37 0.27 0.11 0.05 0.04 0.05 0.05 0.03 0.02 0.01 0.01 0.00 0.00 0.00 0.00 0.00 0.00 0.00 0.00 0.01 0.02 0.04 0.05 0.07
0.70 0.61 0.58 0.64 0.77 0.93 0.96 0.92 0.89 0.87 0.87 0.98 0.95 0.91 0.88 0.71 0.65 0.60 0.59 0.62 0.53 0.41 0.21 0.08 0.06 0.05 0.04 0.02 0.02 0.01 0.01 0.00 0.00 0.00 0.00 0.00 0.00 0.00 0.00 0.00 0.00 0.01 0.02
0.57 0.48 0.43 0.45 0.52 0.70 0.86 0.89 0.78 0.73 0.67 0.75 0.78 0.78 0.85 0.85 0.72 0.62 0.64 0.65 0.62 0.54 0.47 0.31 0.17 0.11 0.10 0.07 0.05 0.03 0.02 0.01 0.01 0.00 0.00 0.00 0.00 0.00 0.00 0.00 0.00 0.00 0.00
0.40 0.36 0.30 0.31 0.38 0.49 0.66 0.79 0.77 0.70 0.60 0.58 0.69 0.80 0.87 0.91 0.91 0.72 0.65 0.64 0.58 0.53 0.48 0.34 0.25 0.16 0.18 0.16 0.14 0.08 0.05 0.03 0.02 0.01 0.01 0.00 0.00 0.00 0.00 0.00 0.00 0.00 0.00
0.29 0.27 0.31 0.32 0.38 0.41 0.52 0.72 0.80 0.75 0.63 0.57 0.58 0.66 0.77 0.86 1.03 0.96 0.82 0.71 0.65 0.59 0.52 0.43 0.31 0.20 0.20 0.21 0.23 0.15 0.07 0.04 0.03 0.03 0.02 0.00 0.00 0.00 0.00 0.00 0.00 0.00 0.00
0.23 0.28 0.30 0.32 0.34 0.32 0.37 0.47 0.61 0.70 0.67 0.58 0.54 0.58 0.69 0.80 0.97 1.07 1.04 0.92 0.84 0.76 0.68 0.60 0.47 0.35 0.29 0.27 0.29 0.26 0.18 0.10 0.08 0.08 0.07 0.03 0.01 0.00 0.00 0.00 0.00 0.00 0.00
0.32 0.38 0.40 0.40 0.40 0.39 0.34 0.35 0.38 0.45 0.51 0.51 0.48 0.46 0.47 0.57 0.78 0.97 1.04 1.04 1.05 0.97 0.88 0.77 0.61 0.51 0.41 0.31 0.28 0.29 0.25 0.21 0.17 0.18 0.18 0.13 0.06 0.02 0.01 0.00 0.00 0.00 0.00
0.36 0.37 0.38 0.42 0.50 0.48 0.44 0.41 0.37 0.31 0.27 0.28 0.33 0.36 0.36 0.40 0.52 0.63 0.75 0.92 1.13 1.13 1.05 0.97 0.79 0.59 0.47 0.37 0.30 0.28 0.29 0.27 0.27 0.24 0.24 0.22 0.17 0.09 0.04 0.02 0.01 0.00 0.00
0.33 0.34 0.36 0.38 0.44 0.50 0.53 0.52 0.39 0.26 0.20 0.16 0.15 0.16 0.21 0.29 0.36 0.40 0.47 0.67 0.94 1.09 1.08 1.03 0.93 0.74 0.51 0.40 0.29 0.26 0.30 0.36 0.33 0.30 0.30 0.26 0.23 0.17 0.13 0.09 0.06 0.04 0.02
0.31 0.35 0.35 0.35 0.42 0.43 0.51 0.46 0.29 0.22 0.21 0.19 0.16 0.11 0.13 0.16 0.20 0.24 0.29 0.37 0.53 0.72 0.91 1.02 1.01 0.86 0.68 0.54 0.45 0.39 0.35 0.35 0.35 0.33 0.36 0.42 0.41 0.38 0.37 0.31 0.27 0.23 0.15
0.32 0.34 0.35 0.35 0.36 0.44 0.39 0.24 0.20 0.19 0.23 0.23 0.20 0.19 0.16 0.12 0.13 0.14 0.23 0.26 0.27 0.32 0.47 0.70 0.85 0.91 0.94 0.75 0.60 0.49 0.41 0.41 0.42 0.39 0.40 0.45 0.49 0.50 0.50 0.44 0.38 0.36 0.31
0.41 0.40 0.42 0.41 0.39 0.41 0.33 0.20 0.20 0.20 0.25 0.25 0.24 0.22 0.24 0.22 0.20 0.21 0.21 0.23 0.24 0.25 0.34 0.35 0.48 0.74 0.82 0.79 0.68 0.65 0.67 0.59 0.48 0.37 0.33 0.36 0.41 0.45 0.45 0.44 0.39 0.33 0.29
0.41 0.43 0.45 0.46 0.40 0.36 0.31 0.20 0.19 0.23 0.27 0.29 0.25 0.22 0.23 0.24 0.33 0.33 0.26 0.34 0.40 0.37 0.46 0.47 0.48 0.50 0.50 0.50 0.54 0.54 0.53 0.51 0.49 0.42 0.36 0.31 0.32 0.32 0.32 0.33 0.31 0.28 0.26
0.23 0.31 0.33 0.36 0.38 0.36 0.40 0.24 0.21 0.25 0.29 0.32 0.30 0.30 0.37 0.33 0.38 0.32 0.23 0.36 0.41 0.40 0.40 0.44 0.42 0.36 0.31 0.31 0.32 0.35 0.46 0.46 0.42 0.36 0.30 0.23 0.21 0.20 0.19 0.17 0.14 0.13 0.13

GEFSMA_prec_meanprecacc_048.txt.gz
Total_Precipitation_Accumulation
0.02 0.02 0.02 0.02 0.01 0.00 0.00 0.00 0.00 0.00 0.00 0.01 0.03 0.03 0.03 0.02 0.06 0.13 0.25 0.33 0.44 0.42 0.35 0.21 0.11 0.10 0.12 0.11 0.14 0.18 0.23 0.28 0.33 0.31 0.23 0.15 0.12 0.06 0.02 0.04 0.04 0.07 0.07
0.02 0.02 0.03 0.03 0.02 0.01 0.00 0.00 0.00 0.00 0.00 0.00 0.01 0.01 0.02 0.02 0.02 0.06 0.18 0.39 0.53 0.48 0.50 0.45 0.30 0.21 0.17 0.14 0.15 0.17 0.22 0.23 0.26 0.28 0.23 0.16 0.11 0.07 0.03 0.04 0.05 0.06 0.07
0.03 0.03 0.04 0.03 0.02 0.01 0.00 0.00 0.00 0.00 0.00 0.00 0.00 0.00 0.00 0.01 0.01 0.01 0.02 0.09 0.21 0.30 0.38 0.39 0.38 0.31 0.24 0.18 0.17 0.13 0.15 0.17 0.21 0.24 0.23 0.18 0.13 0.09 0.05 0.06 0.07 0.07 0.05
0.08 0.07 0.05 0.05 0.04 0.01 0.01 0.01 0.01 0.01 0.00 0.01 0.01 0.01 0.00 0.00 0.01 0.00 0.00 0.01 0.04 0.10 0.21 0.21 0.24 0.26 0.27 0.28 0.25 0.15 0.10 0.10 0.12 0.17 0.22 0.22 0.17 0.13 0.12 0.12 0.10 0.07 0.04
0.25 0.23 0.19 0.15 0.08 0.05 0.05 0.04 0.04 0.02 0.02 0.03 0.02 0.02 0.01 0.00 0.01 0.00 0.01 0.01 0.02 0.04 0.08 0.07 0.08 0.09 0.11 0.14 0.18 0.17 0.10 0.07 0.08 0.10 0.13 0.16 0.16 0.14 0.16 0.15 0.10 0.07 0.05
0.62 0.60 0.58 0.45 0.31 0.23 0.19 0.13 0.13 0.12 0.08 0.06 0.02 0.02 0.01 0.01 0.01 0.00 0.01 0.01 0.01 0.01 0.01 0.01 0.03 0.03 0.02 0.03 0.04 0.06 0.07 0.07 0.06 0.06 0.09 0.11 0.10 0.10 0.14 0.18 0.15 0.12 0.10
0.96 1.03 0.92 0.82 0.69 0.51 0.45 0.39 0.37 0.41 0.25 0.09 0.09 0.10 0.04 0.02 0.01 0.01 0.01 0.01 0.01 0.01 0.00 0.00 0.01 0.01 0.01 0.01 0.01 0.03 0.06 0.10 0.09 0.07 0.07 0.07 0.07 0.07 0.10 0.15 0.16 0.17 0.18
1.19 1.20 1.25 1.18 1.04 0.92 0.82 0.68 0.66 0.75 0.55 0.27 0.26 0.37 0.23 0.11 0.05 0.03 0.02 0.01 0.02 0.02 0.02 0.01 0.00 0.00 0.00 0.01 0.00 0.02 0.05 0.09 0.11 0.08 0.05 0.05 0.05 0.04 0.05 0.09 0.13 0.14 0.16
1.55 1.52 1.51 1.43 1.27 1.07 1.00 1.00 0.99 1.18 0.97 0.61 0.43 0.46 0.41 0.32 0.16 0.05 0.02 0.02 0.02 0.02 0.01 0.01 0.01 0.00 0.00 0.01 0.01 0.01 0.01 0.03 0.07 0.07 0.07 0.05 0.04 0.04 0.04 0.05 0.08 0.10 0.10
1.56 1.59 1.52 1.44 1.32 1.18 1.19 1.17 1.12 1.30 1.32 0.98 0.72 0.53 0.38 0.32 0.27 0.18 0.07 0.04 0.04 0.04 0.01 0.01 0.01 0.01 0.00 0.00 0.01 0.01 0.01 0.01 0.03 0.05 0.07 0.07 0.06 0.06 0.05 0.05 0.05 0.07 0.08
1.42 1.38 1.32 1.33 1.33 1.30 1.30 1.33 1.31 1.45 1.43 1.29 1.01 0.87 0.75 0.57 0.37 0.31 0.27 0.12 0.06 0.04 0.02 0.02 0.02 0.01 0.00 0.00 0.00 0.00 0.01 0.01 0.02 0.03 0.04 0.05 0.04 0.06 0.08 0.07 0.07 0.07 0.06
1.39 1.28 1.23 1.21 1.27 1.33 1.33 1.33 1.35 1.48 1.49 1.44 1.21 1.00 0.91 0.80 0.69 0.61 0.44 0.30 0.15 0.05 0.03 0.03 0.04 0.02 0.01 0.01 0.01 0.00 0.00 0.01 0.01 0.02 0.02 0.02 0.02 0.02 0.05 0.08 0.08 0.09 0.09
1.09 1.10 1.15 1.19 1.27 1.30 1.29 1.27 1.30 1.31 1.34 1.44 1.33 1.14 0.96 0.82 0.79 0.71 0.61 0.45 0.33 0.15 0.07 0.05 0.05 0.05 0.03 0.02 0.01 0.01 0.01 0.01 0.01 0.01 0.01 0.01 0.01 0.02 0.02 0.03 0.05 0.06 0.07
0.88 0.85 0.87 0.94 1.09 1.26 1.27 1.21 1.17 1.11 1.08 1.17 1.12 1.05 1.01 0.83 0.76 0.71 0.69 0.71 0.59 0.45 0.23 0.08 0.06 0.05 0.04 0.02 0.02 0.02 0.01 0.01 0.01 0.01 0.01 0.01 0.02 0.02 0.02 0.02 0.02 0.02 0.02
0.66 0.62 0.61 0.67 0.75 0.93 1.10 1.14 1.01 0.92 0.84 0.90 0.92 0.91 0.96 0.95 0.83 0.73 0.75 0.74 0.70 0.59 0.49 0.32 0.18 0.11 0.10 0.07 0.05 0.03 0.02 0.02 0.03 0.02 0.02 0.02 0.02 0.02 0.01 0.01 0.01 0.01 0.01
0.46 0.44 0.41 0.45 0.55 0.67 0.82 0.95 0.95 0.86 0.73 0.70 0.80 0.90 0.95 1.00 1.00 0.80 0.72 0.71 0.63 0.57 0.50 0.36 0.26 0.16 0.18 0.16 0.14 0.08 0.05 0.04 0.04 0.05 0.04 0.03 0.03 0.02 0.01 0.01 0.01 0.01 0.01
0.34 0.35 0.41 0.44 0.51 0.60 0.74 0.92 0.99 0.93 0.78 0.71 0.70 0.75 0.86 0.94 1.10 1.03 0.89 0.77 0.69 0.62 0.54 0.44 0.31 0.20 0.20 0.21 0.23 0.15 0.08 0.05 0.04 0.06 0.05 0.04 0.03 0.02 0.02 0.01 0.01 0.00 0.00
0.27 0.34 0.37 0.42 0.46 0.46 0.55 0.68 0.81 0.87 0.81 0.71 0.64 0.67 0.77 0.87 1.04 1.13 1.10 0.97 0.87 0.79 0.69 0.61 0.47 0.35 0.29 0.27 0.29 0.27 0.18 0.11 0.09 0.10 0.09 0.05 0.03 0.03 0.02 0.01 0.01 0.00 0.00
0.36 0.43 0.46 0.49 0.49 0.48 0.45 0.47 0.52 0.58 0.62 0.60 0.56 0.53 0.54 0.63 0.84 1.02 1.08 1.07 1.06 0.98 0.89 0.78 0.62 0.51 0.41 0.31 0.28 0.29 0.25 0.21 0.18 0.19 0.21 0.16 0.10 0.07 0.05 0.03 0.02 0.01 0.01
0.39 0.41 0.42 0.47 0.56 0.55 0.51 0.49 0.45 0.39 0.34 0.35 0.39 0.43 0.43 0.46 0.57 0.67 0.78 0.94 1.15 1.14 1.07 0.98 0.79 0.59 0.48 0.37 0.30 0.28 0.29 0.28 0.27 0.26 0.27 0.26 0.22 0.14 0.10 0.07 0.05 0.04 0.03
0.36 0.38 0.40 0.42 0.48 0.54 0.59 0.59 0.44 0.32 0.26 0.22 0.20 0.22 0.26 0.34 0.41 0.43 0.49 0.69 0.95 1.10 1.08 1.03 0.93 0.74 0.51 0.41 0.30 0.26 0.30 0.36 0.34 0.31 0.31 0.30 0.27 0.23 0.19 0.15 0.12 0.09 0.07
0.35 0.39 0.39 0.39 0.46 0.48 0.57 0.53 0.35 0.28 0.26 0.25 0.22 0.16 0.17 0.21 0.24 0.27 0.31 0.39 0.55 0.73 0.92 1.03 1.01 0.86 0.68 0.54 0.46 0.39 0.35 0.35 0.37 0.34 0.38 0.45 0.45 0.44 0.45 0.40 0.37 0.34 0.25
0.33 0.35 0.36 0.36 0.39 0.48 0.44 0.28 0.25 0.23 0.26 0.26 0.24 0.23 0.21 0.16 0.16 0.18 0.25 0.28 0.29 0.33 0.48 0.71 0.85 0.91 0.94 0.75 0.60 0.49 0.41 0.41 0.43 0.41 0.42 0.49 0.54 0.57 0.60 0.58 0.55 0.51 0.45
0.41 0.40 0.42 0.42 0.40 0.43 0.35 0.22 0.22 0.22 0.27 0.28 0.27 0.26 0.29 0.26 0.24 0.25 0.24 0.25 0.26 0.27 0.36 0.36 0.49 0.75 0.83 0.80 0.69 0.65 0.67 0.60 0.49 0.38 0.33 0.38 0.44 0.51 0.54 0.57 0.56 0.49 0.44
0.41 0.43 0.46 0.46 0.40 0.36 0.32 0.21 0.20 0.24 0.28 0.31 0.28 0.25 0.27 0.28 0.37 0.37 0.30 0.38 0.43 0.40 0.48 0.50 0.50 0.52 0.53 0.52 0.54 0.54 0.53 0.51 0.49 0.42 0.37 0.32 0.33 0.35 0.37 0.40 0.41 0.39 0.37
0.23 0.31 0.33 0.36 0.38 0.36 0.40 0.25 0.22 0.25 0.30 0.34 0.32 0.32 0.40 0.37 0.42 0.37 0.27 0.40 0.45 0.43 0.42 0.46 0.44 0.38 0.33 0.32 0.34 0.36 0.46 0.46 0.42 0.36 0.30 0.24 0.21 0.21 0.21 0.19 0.19 0.21 0.20

GEFSMA_prec_meanprecacc_054.txt.gz
Total_Precipitation_Accumulation
0.06 0.04 0.03 0.02 0.01 0.00 0.00 0.00 0.00 0.00 0.00 0.01 0.03 0.03 0.03 0.02 0.06 0.13 0.25 0.33 0.44 0.43 0.36 0.23 0.13 0.12 0.15 0.14 0.16 0.20 0.26 0.31 0.35 0.34 0.26 0.18 0.13 0.07 0.03 0.04 0.05 0.07 0.07
0.08 0.06 0.05 0.04 0.02 0.01 0.00 0.00 0.00 0.00 0.00 0.00 0.01 0.01 0.02 0.02 0.02 0.06 0.18 0.39 0.53 0.48 0.50 0.47 0.31 0.23 0.19 0.15 0.17 0.19 0.24 0.25 0.28 0.30 0.25 0.18 0.13 0.08 0.03 0.04 0.05 0.07 0.07
0.10 0.10 0.09 0.06 0.04 0.02 0.00 0.00 0.00 0.00 0.00 0.00 0.00 0.00 0.00 0.01 0.01 0.01 0.02 0.09 0.21 0.30 0.38 0.40 0.39 0.32 0.25 0.19 0.18 0.15 0.16 0.19 0.22 0.26 0.26 0.21 0.15 0.10 0.07 0.07 0.07 0.07 0.06
0.18 0.16 0.14 0.13 0.09 0.04 0.02 0.02 0.02 0.01 0.00 0.01 0.01 0.01 0.00 0.00 0.01 0.00 0.00 0.01 0.04 0.10 0.21 0.21 0.24 0.26 0.28 0.28 0.26 0.17 0.11 0.11 0.13 0.18 0.24 0.24 0.18 0.15 0.14 0.14 0.11 0.09 0.05
0.39 0.39 0.32 0.27 0.17 0.13 0.09 0.06 0.04 0.02 0.02 0.03 0.03 0.02 0.01 0.01 0.01 0.00 0.01 0.01 0.02 0.04 0.08 0.07 0.08 0.09 0.12 0.14 0.18 0.18 0.11 0.09 0.09 0.11 0.15 0.18 0.17 0.16 0.18 0.17 0.12 0.09 0.07
0.81 0.81 0.76 0.61 0.45 0.36 0.28 0.18 0.15 0.13 0.08 0.06 0.02 0.02 0.02 0.01 0.01 0.00 0.01 0.01 0.01 0.01 0.01 0.01 0.03 0.03 0.02 0.04 0.04 0.06 0.07 0.08 0.07 0.07 0.10 0.12 0.12 0.12 0.16 0.19 0.16 0.15 0.13
1.23 1.28 1.15 1.04 0.89 0.67 0.57 0.49 0.43 0.45 0.28 0.10 0.11 0.12 0.05 0.02 0.01 0.01 0.01 0.01 0.01 0.01 0.00 0.00 0.01 0.01 0.01 0.01 0.01 0.03 0.06 0.10 0.10 0.08 0.08 0.09 0.09 0.09 0.11 0.16 0.17 0.19 0.20
1.48 1.47 1.52 1.47 1.33 1.16 1.01 0.82 0.75 0.82 0.61 0.30 0.31 0.43 0.28 0.14 0.06 0.03 0.02 0.01 0.02 0.02 0.02 0.01 0.00 0.00 0.00 0.01 0.00 0.02 0.05 0.09 0.12 0.08 0.06 0.06 0.05 0.05 0.06 0.10 0.14 0.16 0.17
1.74 1.73 1.77 1.74 1.60 1.36 1.24 1.20 1.13 1.30 1.06 0.67 0.47 0.53 0.48 0.37 0.21 0.06 0.02 0.03 0.02 0.02 0.01 0.01 0.01 0.00 0.00 0.01 0.01 0.01 0.01 0.03 0.07 0.08 0.07 0.05 0.05 0.04 0.04 0.05 0.08 0.11 0.12
1.70 1.77 1.75 1.70 1.61 1.46 1.44 1.40 1.28 1.44 1.45 1.09 0.80 0.59 0.43 0.38 0.35 0.24 0.09 0.04 0.05 0.04 0.02 0.01 0.01 0.01 0.00 0.00 0.01 0.01 0.01 0.01 0.03 0.06 0.08 0.08 0.06 0.06 0.06 0.05 0.06 0.07 0.09
1.54 1.54 1.50 1.52 1.52 1.50 1.50 1.55 1.49 1.60 1.55 1.42 1.12 0.96 0.83 0.64 0.43 0.39 0.34 0.16 0.07 0.05 0.03 0.02 0.03 0.02 0.01 0.01 0.01 0.01 0.01 0.01 0.02 0.04 0.06 0.07 0.06 0.07 0.08 0.08 0.07 0.07 0.07
1.47 1.37 1.35 1.36 1.44 1.52 1.51 1.51 1.51 1.61 1.61 1.57 1.35 1.11 1.02 0.91 0.78 0.70 0.53 0.37 0.21 0.08 0.05 0.04 0.05 0.04 0.03 0.02 0.02 0.02 0.01 0.01 0.02 0.02 0.04 0.04 0.04 0.03 0.06 0.08 0.08 0.09 0.09
1.15 1.17 1.23 1.28 1.36 1.42 1.43 1.44 1.46 1.45 1.47 1.59 1.49 1.30 1.11 0.95 0.90 0.80 0.70 0.53 0.41 0.20 0.09 0.07 0.07 0.07 0.05 0.03 0.03 0.03 0.02 0.01 0.01 0.02 0.02 0.02 0.03 0.02 0.03 0.04 0.05 0.06 0.08
0.97 0.93 0.94 1.01 1.16 1.33 1.37 1.33 1.30 1.26 1.24 1.34 1.28 1.21 1.17 0.99 0.90 0.81 0.78 0.80 0.68 0.53 0.29 0.12 0.08 0.07 0.05 0.04 0.03 0.03 0.02 0.02 0.02 0.02 0.02 0.02 0.02 0.02 0.02 0.03 0.03 0.03 0.03
0.73 0.68 0.68 0.73 0.81 0.99 1.16 1.23 1.12 1.04 0.97 1.03 1.06 1.05 1.11 1.09 0.97 0.87 0.88 0.86 0.81 0.68 0.55 0.36 0.21 0.13 0.12 0.08 0.07 0.05 0.03 0.03 0.04 0.03 0.03 0.02 0.02 0.02 0.02 0.02 0.02 0.02 0.02
0.52 0.51 0.47 0.50 0.59 0.70 0.86 1.01 1.04 1.01 0.92 0.88 0.96 1.05 1.10 1.13 1.13 0.93 0.85 0.83 0.74 0.67 0.58 0.41 0.29 0.19 0.21 0.19 0.16 0.09 0.06 0.06 0.05 0.06 0.05 0.04 0.03 0.03 0.02 0.02 0.02 0.01 0.01
0.38 0.39 0.45 0.47 0.54 0.63 0.78 0.97 1.05 1.02 0.93 0.91 0.91 0.96 1.05 1.11 1.27 1.18 1.03 0.89 0.79 0.71 0.62 0.51 0.36 0.24 0.24 0.24 0.25 0.17 0.10 0.07 0.06 0.07 0.07 0.06 0.05 0.04 0.03 0.02 0.02 0.01 0.01
0.30 0.36 0.40 0.44 0.48 0.49 0.59 0.75 0.89 0.95 0.92 0.84 0.79 0.82 0.95 1.06 1.24 1.31 1.25 1.09 0.98 0.87 0.79 0.70 0.54 0.39 0.32 0.29 0.30 0.29 0.21 0.14 0.13 0.14 0.11 0.06 0.05 0.05 0.04 0.04 0.03 0.02 0.02
0.38 0.45 0.50 0.53 0.53 0.53 0.52 0.55 0.61 0.69 0.73 0.70 0.66 0.64 0.66 0.76 0.97 1.15 1.20 1.18 1.15 1.06 0.97 0.86 0.68 0.54 0.43 0.32 0.29 0.30 0.26 0.23 0.20 0.21 0.23 0.18 0.12 0.10 0.08 0.06 0.05 0.04 0.03
0.41 0.43 0.44 0.50 0.59 0.58 0.55 0.54 0.52 0.49 0.46 0.47 0.51 0.54 0.55 0.57 0.69 0.79 0.89 1.03 1.23 1.22 1.13 1.04 0.83 0.61 0.49 0.38 0.32 0.31 0.31 0.29 0.29 0.27 0.28 0.27 0.24 0.16 0.12 0.10 0.08 0.07 0.06
0.38 0.40 0.42 0.44 0.50 0.56 0.61 0.62 0.48 0.39 0.35 0.31 0.30 0.31 0.36 0.44 0.51 0.54 0.60 0.80 1.06 1.18 1.14 1.07 0.97 0.76 0.53 0.43 0.31 0.27 0.32 0.37 0.35 0.33 0.35 0.32 0.31 0.27 0.24 0.19 0.15 0.12 0.10
0.36 0.40 0.39 0.40 0.48 0.50 0.59 0.56 0.39 0.33 0.32 0.32 0.30 0.24 0.25 0.28 0.30 0.33 0.37 0.45 0.63 0.81 0.98 1.08 1.05 0.89 0.70 0.55 0.47 0.40 0.37 0.38 0.39 0.36 0.41 0.48 0.48 0.47 0.48 0.43 0.40 0.38 0.29
0.33 0.36 0.36 0.37 0.40 0.50 0.47 0.32 0.30 0.28 0.31 0.32 0.30 0.30 0.30 0.24 0.25 0.24 0.30 0.32 0.32 0.38 0.53 0.75 0.89 0.93 0.96 0.76 0.61 0.51 0.44 0.44 0.45 0.42 0.45 0.52 0.56 0.59 0.62 0.60 0.58 0.55 0.49
0.41 0.40 0.42 0.42 0.40 0.44 0.38 0.27 0.27 0.27 0.32 0.34 0.33 0.33 0.39 0.35 0.32 0.35 0.31 0.32 0.31 0.29 0.39 0.38 0.50 0.76 0.84 0.81 0.70 0.66 0.69 0.60 0.50 0.39 0.36 0.41 0.47 0.53 0.58 0.62 0.62 0.54 0.48
0.41 0.43 0.46 0.46 0.41 0.37 0.34 0.25 0.24 0.29 0.34 0.38 0.35 0.32 0.35 0.37 0.45 0.47 0.40 0.48 0.49 0.42 0.50 0.52 0.52 0.54 0.55 0.53 0.56 0.56 0.55 0.54 0.51 0.44 0.38 0.34 0.35 0.37 0.40 0.44 0.43 0.44 0.43
0.24 0.31 0.33 0.36 0.38 0.36 0.41 0.28 0.26 0.28 0.32 0.37 0.37 0.37 0.47 0.44 0.47 0.44 0.36 0.52 0.55 0.48 0.44 0.47 0.45 0.39 0.34 0.34 0.36 0.38 0.49 0.51 0.46 0.39 0.31 0.26 0.24 0.23 0.24 0.22 0.20 0.23 0.23

GEFSMA_prec_meanprecacc_060.txt.gz
Total_Precipitation_Accumulation
0.16 0.10 0.06 0.06 0.03 0.02 0.02 0.01 0.00 0.00 0.00 0.01 0.03 0.04 0.03 0.02 0.06 0.13 0.25 0.33 0.44 0.43 0.37 0.24 0.14 0.14 0.17 0.15 0.17 0.21 0.26 0.31 0.37 0.36 0.27 0.19 0.14 0.08 0.04 0.04 0.05 0.07 0.07
0.20 0.16 0.09 0.07 0.04 0.02 0.02 0.02 0.01 0.00 0.00 0.00 0.01 0.02 0.02 0.02 0.02 0.06 0.18 0.39 0.53 0.48 0.51 0.48 0.32 0.23 0.20 0.16 0.17 0.20 0.24 0.26 0.29 0.32 0.26 0.18 0.13 0.08 0.04 0.04 0.05 0.07 0.08
0.23 0.21 0.16 0.11 0.07 0.03 0.01 0.01 0.01 0.01 0.00 0.00 0.00 0.00 0.00 0.01 0.01 0.01 0.03 0.10 0.21 0.30 0.38 0.40 0.39 0.33 0.25 0.19 0.18 0.15 0.16 0.19 0.24 0.27 0.27 0.21 0.15 0.11 0.07 0.07 0.07 0.07 0.06
0.29 0.32 0.27 0.21 0.14 0.09 0.04 0.03 0.03 0.03 0.01 0.01 0.02 0.01 0.00 0.00 0.01 0.01 0.01 0.01 0.04 0.10 0.21 0.21 0.24 0.26 0.28 0.29 0.27 0.17 0.12 0.12 0.14 0.19 0.25 0.25 0.19 0.16 0.14 0.14 0.12 0.09 0.05
0.52 0.57 0.49 0.40 0.28 0.23 0.14 0.09 0.06 0.04 0.03 0.04 0.03 0.02 0.01 0.01 0.01 0.00 0.01 0.01 0.02 0.04 0.08 0.07 0.08 0.09 0.12 0.14 0.18 0.19 0.12 0.09 0.09 0.12 0.15 0.19 0.18 0.16 0.18 0.18 0.12 0.10 0.07
0.96 1.01 0.96 0.79 0.63 0.52 0.41 0.25 0.19 0.16 0.10 0.07 0.03 0.02 0.02 0.01 0.01 0.00 0.01 0.01 0.01 0.01 0.02 0.01 0.03 0.03 0.02 0.04 0.04 0.06 0.08 0.08 0.07 0.08 0.11 0.13 0.13 0.13 0.16 0.20 0.17 0.15 0.14
1.38 1.43 1.30 1.22 1.07 0.83 0.71 0.60 0.53 0.53 0.34 0.13 0.15 0.15 0.07 0.03 0.02 0.01 0.01 0.01 0.01 0.01 0.01 0.00 0.01 0.01 0.01 0.01 0.01 0.03 0.07 0.11 0.10 0.08 0.08 0.10 0.10 0.09 0.11 0.16 0.17 0.19 0.21
1.61 1.60 1.65 1.61 1.52 1.36 1.18 0.97 0.90 0.96 0.71 0.35 0.37 0.53 0.36 0.20 0.08 0.04 0.03 0.02 0.02 0.02 0.02 0.01 0.01 0.00 0.00 0.01 0.00 0.02 0.05 0.09 0.12 0.09 0.06 0.06 0.06 0.05 0.06 0.10 0.14 0.16 0.18
1.86 1.85 1.89 1.88 1.78 1.54 1.41 1.37 1.31 1.50 1.23 0.78 0.55 0.65 0.59 0.48 0.30 0.09 0.04 0.04 0.03 0.02 0.02 0.02 0.02 0.01 0.01 0.01 0.02 0.01 0.01 0.03 0.07 0.08 0.07 0.06 0.05 0.04 0.04 0.05 0.09 0.12 0.12
1.80 1.88 1.88 1.83 1.76 1.63 1.61 1.57 1.45 1.62 1.64 1.24 0.91 0.66 0.50 0.46 0.46 0.34 0.16 0.08 0.08 0.06 0.03 0.02 0.02 0.02 0.02 0.02 0.03 0.02 0.01 0.01 0.03 0.06 0.09 0.08 0.06 0.06 0.06 0.05 0.06 0.08 0.09
1.66 1.67 1.65 1.68 1.68 1.67 1.68 1.73 1.68 1.79 1.72 1.55 1.25 1.06 0.92 0.72 0.52 0.50 0.45 0.26 0.14 0.09 0.06 0.05 0.05 0.04 0.03 0.03 0.04 0.06 0.05 0.02 0.02 0.05 0.07 0.08 0.07 0.08 0.09 0.08 0.08 0.08 0.07
1.60 1.52 1.51 1.53 1.60 1.68 1.68 1.71 1.72 1.80 1.80 1.75 1.50 1.25 1.13 1.02 0.88 0.82 0.64 0.49 0.34 0.17 0.11 0.09 0.09 0.07 0.06 0.05 0.08 0.14 0.11 0.05 0.02 0.02 0.04 0.05 0.05 0.05 0.07 0.09 0.09 0.09 0.09
1.27 1.29 1.36 1.42 1.52 1.60 1.60 1.60 1.65 1.63 1.66 1.78 1.67 1.46 1.23 1.05 1.00 0.91 0.83 0.64 0.51 0.28 0.16 0.13 0.13 0.11 0.10 0.07 0.09 0.13 0.08 0.04 0.02 0.02 0.02 0.03 0.04 0.04 0.05 0.05 0.06 0.07 0.08
1.11 1.07 1.09 1.16 1.33 1.50 1.54 1.51 1.46 1.41 1.43 1.54 1.47 1.39 1.33 1.11 1.01 0.92 0.89 0.94 0.81 0.64 0.39 0.20 0.15 0.13 0.12 0.08 0.10 0.12 0.06 0.04 0.02 0.02 0.02 0.02 0.03 0.03 0.04 0.04 0.04 0.04 0.04
0.87 0.81 0.81 0.86 0.94 1.12 1.31 1.39 1.29 1.18 1.13 1.20 1.23 1.22 1.26 1.22 1.09 0.98 0.99 0.99 0.95 0.81 0.68 0.48 0.30 0.19 0.17 0.13 0.12 0.09 0.06 0.05 0.05 0.04 0.03 0.03 0.03 0.03 0.03 0.04 0.04 0.03 0.02
0.65 0.64 0.62 0.65 0.73 0.83 0.98 1.13 1.17 1.14 1.05 1.03 1.10 1.19 1.24 1.25 1.24 1.04 0.96 0.94 0.86 0.79 0.69 0.51 0.38 0.26 0.25 0.22 0.19 0.12 0.08 0.08 0.07 0.08 0.08 0.06 0.05 0.04 0.04 0.04 0.04 0.03 0.02
0.48 0.50 0.56 0.60 0.65 0.73 0.88 1.08 1.18 1.15 1.06 1.02 1.01 1.06 1.16 1.21 1.37 1.28 1.12 0.99 0.89 0.82 0.73 0.62 0.46 0.31 0.30 0.29 0.29 0.20 0.13 0.10 0.09 0.10 0.10 0.09 0.08 0.07 0.05 0.05 0.04 0.03 0.02
0.39 0.44 0.48 0.52 0.56 0.56 0.66 0.81 0.96 1.02 1.00 0.91 0.87 0.91 1.05 1.19 1.38 1.45 1.40 1.24 1.11 0.99 0.90 0.84 0.67 0.50 0.40 0.35 0.37 0.35 0.27 0.21 0.20 0.19 0.15 0.10 0.08 0.08 0.07 0.07 0.06 0.05 0.03
0.44 0.50 0.54 0.59 0.59 0.59 0.58 0.60 0.65 0.73 0.78 0.75 0.72 0.72 0.75 0.86 1.09 1.27 1.34 1.34 1.33 1.23 1.12 0.99 0.80 0.66 0.54 0.40 0.37 0.38 0.32 0.31 0.26 0.26 0.27 0.21 0.16 0.14 0.12 0.09 0.07 0.05 0.04
0.43 0.46 0.47 0.52 0.61 0.61 0.58 0.58 0.56 0.53 0.51 0.52 0.55 0.61 0.64 0.67 0.80 0.92 1.01 1.17 1.37 1.35 1.26 1.16 0.94 0.72 0.59 0.46 0.42 0.43 0.41 0.41 0.37 0.32 0.32 0.31 0.28 0.20 0.16 0.13 0.11 0.09 0.07
0.39 0.41 0.44 0.46 0.52 0.57 0.62 0.64 0.51 0.43 0.40 0.37 0.35 0.39 0.45 0.54 0.61 0.65 0.70 0.93 1.18 1.29 1.25 1.18 1.08 0.88 0.63 0.51 0.41 0.39 0.44 0.50 0.46 0.42 0.45 0.41 0.39 0.35 0.29 0.22 0.17 0.13 0.11
0.36 0.40 0.40 0.41 0.50 0.51 0.60 0.57 0.42 0.37 0.37 0.38 0.37 0.32 0.33 0.36 0.38 0.41 0.46 0.56 0.75 0.93 1.11 1.21 1.17 1.00 0.79 0.62 0.54 0.48 0.46 0.49 0.48 0.46 0.52 0.55 0.54 0.53 0.52 0.47 0.43 0.39 0.30
0.34 0.36 0.37 0.38 0.41 0.51 0.49 0.34 0.33 0.32 0.37 0.39 0.38 0.39 0.36 0.31 0.32 0.32 0.38 0.41 0.41 0.47 0.64 0.87 1.00 1.01 1.01 0.81 0.66 0.56 0.50 0.53 0.51 0.47 0.52 0.57 0.60 0.63 0.65 0.62 0.60 0.57 0.51
0.41 0.41 0.43 0.43 0.41 0.45 0.40 0.28 0.29 0.30 0.37 0.40 0.40 0.42 0.48 0.44 0.41 0.45 0.42 0.44 0.39 0.36 0.48 0.48 0.59 0.82 0.88 0.85 0.74 0.71 0.75 0.66 0.54 0.44 0.40 0.44 0.50 0.55 0.60 0.64 0.65 0.58 0.51
0.41 0.44 0.46 0.46 0.41 0.37 0.34 0.25 0.25 0.32 0.39 0.43 0.41 0.40 0.45 0.46 0.55 0.56 0.52 0.62 0.60 0.49 0.55 0.58 0.59 0.59 0.59 0.58 0.61 0.62 0.61 0.62 0.57 0.49 0.42 0.36 0.37 0.40 0.43 0.45 0.45 0.46 0.46
0.24 0.32 0.33 0.36 0.39 0.37 0.42 0.29 0.28 0.32 0.38 0.44 0.45 0.45 0.57 0.54 0.56 0.53 0.45 0.63 0.65 0.55 0.48 0.49 0.46 0.41 0.35 0.35 0.39 0.46 0.60 0.63 0.56 0.45 0.36 0.30 0.27 0.27 0.28 0.25 0.22 0.24 0.24

GEFSMA_prec_meanprecacc_066.txt.gz
Total_Precipitation_Accumulation
0.32 0.24 0.17 0.14 0.08 0.03 0.03 0.02 0.01 0.01 0.01 0.01 0.03 0.05 0.06 0.05 0.08 0.15 0.26 0.34 0.45 0.44 0.37 0.24 0.15 0.14 0.18 0.16 0.18 0.22 0.27 0.32 0.38 0.36 0.27 0.20 0.14 0.08 0.04 0.05 0.06 0.08 0.08
0.42 0.33 0.23 0.18 0.15 0.10 0.07 0.04 0.02 0.01 0.00 0.00 0.01 0.02 0.04 0.04 0.04 0.08 0.18 0.40 0.54 0.49 0.51 0.48 0.34 0.24 0.21 0.17 0.19 0.21 0.25 0.26 0.30 0.33 0.27 0.19 0.13 0.09 0.04 0.04 0.05 0.08 0.09
0.43 0.37 0.31 0.24 0.21 0.17 0.12 0.08 0.05 0.02 0.01 0.01 0.01 0.00 0.01 0.02 0.03 0.02 0.03 0.10 0.21 0.30 0.39 0.42 0.41 0.33 0.26 0.20 0.19 0.17 0.17 0.20 0.24 0.28 0.28 0.22 0.16 0.11 0.07 0.07 0.08 0.08 0.07
0.54 0.50 0.45 0.41 0.33 0.27 0.19 0.14 0.11 0.07 0.03 0.02 0.02 0.01 0.00 0.01 0.01 0.01 0.01 0.02 0.04 0.10 0.21 0.22 0.26 0.27 0.29 0.29 0.27 0.19 0.13 0.12 0.14 0.19 0.26 0.26 0.20 0.16 0.15 0.15 0.12 0.10 0.06
0.71 0.74 0.67 0.62 0.52 0.45 0.33 0.22 0.16 0.11 0.08 0.06 0.04 0.02 0.01 0.01 0.02 0.01 0.01 0.02 0.03 0.04 0.09 0.07 0.08 0.09 0.12 0.15 0.19 0.19 0.13 0.10 0.09 0.12 0.16 0.19 0.18 0.17 0.19 0.19 0.13 0.11 0.08
1.06 1.14 1.12 0.98 0.86 0.76 0.63 0.46 0.36 0.26 0.16 0.11 0.07 0.05 0.03 0.02 0.02 0.02 0.02 0.02 0.03 0.02 0.02 0.02 0.03 0.03 0.02 0.04 0.04 0.07 0.08 0.10 0.08 0.08 0.11 0.14 0.14 0.13 0.17 0.20 0.18 0.16 0.16
1.46 1.53 1.44 1.41 1.29 1.07 0.95 0.84 0.74 0.66 0.42 0.20 0.21 0.20 0.10 0.05 0.06 0.05 0.04 0.03 0.04 0.04 0.03 0.02 0.01 0.02 0.01 0.01 0.01 0.04 0.07 0.11 0.11 0.09 0.09 0.11 0.11 0.10 0.11 0.16 0.18 0.20 0.22
1.69 1.69 1.75 1.74 1.68 1.55 1.40 1.18 1.09 1.10 0.82 0.46 0.46 0.60 0.40 0.24 0.12 0.08 0.07 0.06 0.07 0.06 0.06 0.05 0.03 0.02 0.01 0.01 0.01 0.02 0.05 0.10 0.13 0.09 0.07 0.07 0.07 0.06 0.06 0.10 0.14 0.17 0.19
1.91 1.91 1.96 1.96 1.88 1.67 1.55 1.54 1.49 1.65 1.37 0.90 0.66 0.73 0.62 0.50 0.32 0.14 0.10 0.11 0.10 0.09 0.09 0.09 0.07 0.06 0.05 0.03 0.03 0.02 0.02 0.04 0.08 0.09 0.08 0.07 0.06 0.05 0.05 0.06 0.09 0.12 0.13
1.84 1.94 1.94 1.90 1.84 1.72 1.72 1.71 1.60 1.78 1.81 1.39 1.02 0.74 0.54 0.49 0.49 0.37 0.21 0.17 0.16 0.12 0.10 0.08 0.07 0.07 0.07 0.06 0.07 0.05 0.03 0.02 0.05 0.08 0.10 0.09 0.07 0.07 0.06 0.06 0.07 0.08 0.10
1.72 1.73 1.73 1.78 1.78 1.79 1.80 1.89 1.87 1.99 1.89 1.72 1.38 1.16 1.00 0.78 0.56 0.54 0.50 0.33 0.24 0.18 0.15 0.13 0.11 0.10 0.09 0.09 0.11 0.13 0.09 0.04 0.04 0.07 0.09 0.10 0.08 0.09 0.10 0.09 0.08 0.08 0.08
1.68 1.61 1.60 1.63 1.72 1.82 1.84 1.87 1.90 2.03 2.04 1.96 1.69 1.39 1.24 1.10 0.95 0.87 0.69 0.54 0.42 0.27 0.20 0.18 0.18 0.16 0.15 0.14 0.18 0.25 0.19 0.10 0.04 0.05 0.07 0.09 0.10 0.09 0.11 0.12 0.12 0.11 0.11
1.37 1.39 1.48 1.55 1.66 1.76 1.78 1.81 1.87 1.84 1.89 2.02 1.92 1.65 1.38 1.14 1.07 0.98 0.89 0.69 0.55 0.35 0.25 0.22 0.23 0.21 0.19 0.18 0.21 0.27 0.19 0.12 0.06 0.04 0.04 0.05 0.07 0.08 0.10 0.09 0.10 0.11 0.11
1.23 1.20 1.24 1.33 1.51 1.68 1.73 1.71 1.66 1.62 1.64 1.76 1.73 1.65 1.54 1.27 1.13 1.00 0.97 1.01 0.86 0.67 0.44 0.28 0.23 0.22 0.21 0.19 0.22 0.26 0.17 0.12 0.09 0.06 0.05 0.04 0.05 0.07 0.08 0.08 0.09 0.08 0.08
1.00 0.94 0.97 1.03 1.11 1.31 1.52 1.61 1.49 1.39 1.33 1.40 1.45 1.47 1.50 1.44 1.28 1.13 1.11 1.08 1.03 0.87 0.72 0.52 0.36 0.26 0.26 0.22 0.23 0.19 0.18 0.16 0.13 0.09 0.08 0.06 0.06 0.06 0.07 0.07 0.07 0.06 0.05
0.81 0.80 0.78 0.81 0.90 1.00 1.17 1.34 1.35 1.28 1.22 1.21 1.30 1.38 1.44 1.47 1.45 1.23 1.11 1.06 0.95 0.86 0.75 0.55 0.42 0.31 0.32 0.29 0.26 0.18 0.16 0.16 0.13 0.13 0.12 0.11 0.08 0.07 0.08 0.08 0.08 0.06 0.04
0.60 0.64 0.72 0.74 0.80 0.88 1.02 1.21 1.31 1.29 1.17 1.15 1.16 1.20 1.30 1.34 1.50 1.43 1.28 1.13 1.00 0.89 0.79 0.67 0.51 0.36 0.35 0.35 0.36 0.26 0.18 0.15 0.13 0.14 0.13 0.12 0.12 0.12 0.10 0.10 0.10 0.08 0.06
0.44 0.52 0.57 0.60 0.63 0.66 0.78 0.94 1.07 1.12 1.08 0.99 0.95 1.00 1.15 1.29 1.48 1.56 1.51 1.35 1.22 1.08 0.97 0.90 0.73 0.56 0.45 0.41 0.43 0.43 0.35 0.29 0.27 0.26 0.21 0.16 0.14 0.14 0.13 0.14 0.13 0.10 0.07
0.48 0.54 0.59 0.63 0.64 0.64 0.63 0.66 0.73 0.82 0.84 0.80 0.77 0.77 0.81 0.92 1.16 1.34 1.42 1.43 1.43 1.34 1.22 1.08 0.88 0.73 0.61 0.48 0.44 0.45 0.40 0.39 0.35 0.35 0.34 0.29 0.24 0.24 0.21 0.18 0.14 0.11 0.09
0.45 0.47 0.48 0.54 0.63 0.63 0.60 0.59 0.58 0.58 0.55 0.56 0.60 0.67 0.71 0.73 0.85 0.96 1.07 1.24 1.45 1.44 1.36 1.25 1.03 0.79 0.66 0.53 0.49 0.51 0.50 0.49 0.45 0.41 0.40 0.38 0.35 0.28 0.24 0.20 0.16 0.13 0.11
0.39 0.41 0.44 0.47 0.53 0.58 0.63 0.65 0.52 0.44 0.42 0.41 0.41 0.45 0.51 0.59 0.65 0.68 0.74 0.97 1.24 1.37 1.33 1.26 1.14 0.94 0.69 0.56 0.46 0.45 0.51 0.58 0.54 0.51 0.53 0.46 0.43 0.38 0.33 0.26 0.21 0.18 0.14
0.36 0.40 0.40 0.42 0.51 0.52 0.61 0.58 0.43 0.38 0.39 0.41 0.41 0.37 0.36 0.39 0.42 0.44 0.50 0.60 0.78 0.98 1.17 1.28 1.23 1.05 0.84 0.67 0.60 0.54 0.53 0.56 0.58 0.55 0.60 0.62 0.58 0.55 0.54 0.48 0.46 0.43 0.32
0.34 0.36 0.37 0.38 0.42 0.52 0.51 0.36 0.34 0.33 0.39 0.42 0.43 0.44 0.40 0.34 0.37 0.36 0.41 0.44 0.44 0.50 0.68 0.92 1.05 1.06 1.07 0.86 0.71 0.61 0.56 0.59 0.61 0.55 0.59 0.61 0.63 0.64 0.66 0.64 0.62 0.60 0.52
0.41 0.41 0.43 0.43 0.42 0.46 0.40 0.29 0.30 0.32 0.38 0.42 0.46 0.50 0.55 0.49 0.46 0.50 0.46 0.47 0.43 0.40 0.53 0.53 0.64 0.88 0.94 0.90 0.79 0.76 0.80 0.72 0.60 0.50 0.45 0.46 0.51 0.56 0.60 0.65 0.66 0.59 0.52
0.42 0.44 0.47 0.47 0.42 0.38 0.35 0.27 0.27 0.34 0.41 0.46 0.45 0.48 0.54 0.54 0.63 0.63 0.58 0.69 0.65 0.53 0.62 0.65 0.66 0.66 0.65 0.64 0.67 0.68 0.69 0.69 0.63 0.54 0.44 0.38 0.38 0.40 0.43 0.45 0.46 0.47 0.48
0.24 0.32 0.34 0.37 0.40 0.38 0.44 0.31 0.30 0.35 0.41 0.49 0.50 0.50 0.63 0.62 0.64 0.60 0.52 0.70 0.71 0.60 0.52 0.53 0.51 0.45 0.40 0.40 0.46 0.54 0.68 0.69 0.61 0.48 0.37 0.31 0.28 0.27 0.28 0.26 0.23 0.24 0.25

GEFSMA_prec_meanprecacc_072.txt.gz
Total_Precipitation_Accumulation
0.42 0.35 0.27 0.24 0.16 0.10 0.08 0.06 0.03 0.02 0.01 0.01 0.03 0.06 0.06 0.05 0.09 0.15 0.27 0.36 0.49 0.49 0.41 0.26 0.16 0.16 0.20 0.18 0.19 0.24 0.30 0.34 0.40 0.39 0.30 0.22 0.17 0.11 0.06 0.05 0.06 0.09 0.09
0.56 0.48 0.39 0.33 0.29 0.23 0.18 0.15 0.09 0.05 0.01 0.01 0.01 0.03 0.04 0.05 0.06 0.08 0.19 0.41 0.56 0.52 0.55 0.51 0.36 0.26 0.22 0.19 0.20 0.22 0.27 0.28 0.32 0.35 0.29 0.21 0.15 0.10 0.05 0.05 0.06 0.08 0.09
0.57 0.51 0.47 0.40 0.35 0.33 0.30 0.27 0.20 0.10 0.04 0.02 0.02 0.01 0.01 0.03 0.04 0.03 0.03 0.10 0.22 0.32 0.42 0.45 0.45 0.37 0.28 0.22 0.22 0.19 0.19 0.21 0.26 0.29 0.30 0.25 0.17 0.13 0.09 0.08 0.08 0.08 0.07
0.67 0.63 0.60 0.54 0.47 0.44 0.37 0.33 0.30 0.22 0.12 0.06 0.04 0.02 0.01 0.01 0.02 0.02 0.01 0.02 0.04 0.11 0.23 0.25 0.29 0.30 0.32 0.33 0.31 0.22 0.15 0.14 0.15 0.20 0.27 0.28 0.21 0.17 0.16 0.16 0.13 0.10 0.07
0.79 0.85 0.80 0.78 0.69 0.62 0.53 0.43 0.36 0.29 0.22 0.15 0.08 0.04 0.03 0.02 0.03 0.02 0.02 0.03 0.04 0.05 0.09 0.09 0.11 0.12 0.14 0.18 0.22 0.23 0.15 0.12 0.11 0.13 0.17 0.20 0.19 0.18 0.20 0.20 0.14 0.11 0.09
1.12 1.22 1.21 1.11 1.03 0.95 0.83 0.70 0.60 0.48 0.34 0.27 0.17 0.10 0.06 0.04 0.04 0.03 0.03 0.04 0.03 0.03 0.03 0.03 0.04 0.04 0.04 0.06 0.07 0.09 0.11 0.12 0.10 0.10 0.12 0.15 0.15 0.14 0.17 0.21 0.19 0.17 0.17
1.50 1.57 1.48 1.50 1.43 1.22 1.12 1.08 1.01 0.89 0.61 0.38 0.36 0.28 0.15 0.08 0.08 0.07 0.07 0.05 0.05 0.05 0.04 0.03 0.02 0.02 0.02 0.02 0.03 0.06 0.10 0.14 0.14 0.11 0.11 0.12 0.12 0.11 0.12 0.17 0.19 0.21 0.23
1.71 1.71 1.78 1.79 1.76 1.68 1.55 1.35 1.29 1.32 1.01 0.65 0.65 0.75 0.49 0.29 0.15 0.11 0.10 0.09 0.09 0.08 0.08 0.07 0.04 0.03 0.01 0.02 0.01 0.03 0.08 0.13 0.16 0.12 0.10 0.10 0.09 0.07 0.07 0.11 0.15 0.17 0.20
1.93 1.93 1.98 1.99 1.93 1.74 1.66 1.67 1.64 1.84 1.55 1.09 0.84 0.91 0.74 0.56 0.36 0.17 0.13 0.15 0.14 0.12 0.12 0.12 0.09 0.08 0.07 0.04 0.04 0.03 0.03 0.05 0.10 0.12 0.11 0.10 0.09 0.07 0.06 0.07 0.10 0.13 0.14
1.86 1.95 1.95 1.92 1.87 1.76 1.78 1.82 1.74 1.94 1.99 1.59 1.20 0.88 0.65 0.55 0.54 0.39 0.24 0.20 0.20 0.16 0.13 0.11 0.09 0.09 0.09 0.08 0.09 0.07 0.04 0.04 0.07 0.11 0.13 0.13 0.11 0.10 0.09 0.08 0.09 0.10 0.11
1.75 1.76 1.75 1.79 1.80 1.81 1.84 1.97 1.99 2.12 2.04 1.92 1.59 1.35 1.14 0.88 0.62 0.58 0.52 0.35 0.27 0.21 0.19 0.17 0.15 0.13 0.13 0.12 0.13 0.15 0.11 0.05 0.06 0.12 0.16 0.16 0.14 0.13 0.14 0.12 0.11 0.10 0.09
1.70 1.63 1.62 1.65 1.75 1.87 1.89 1.93 2.00 2.16 2.18 2.14 1.90 1.60 1.44 1.26 1.05 0.94 0.73 0.57 0.45 0.31 0.24 0.22 0.22 0.18 0.17 0.16 0.21 0.29 0.22 0.13 0.07 0.10 0.14 0.17 0.18 0.16 0.17 0.18 0.17 0.16 0.15
1.39 1.42 1.52 1.58 1.69 1.81 1.85 1.89 1.97 1.96 2.02 2.19 2.14 1.89 1.62 1.36 1.24 1.11 0.99 0.76 0.60 0.39 0.28 0.25 0.27 0.25 0.22 0.21 0.24 0.31 0.23 0.15 0.09 0.07 0.09 0.10 0.13 0.14 0.15 0.15 0.17 0.19 0.18
1.26 1.22 1.27 1.37 1.55 1.73 1.80 1.81 1.76 1.73 1.77 1.91 1.92 1.89 1.81 1.52 1.34 1.17 1.09 1.11 0.93 0.71 0.47 0.31 0.27 0.26 0.25 0.23 0.27 0.33 0.24 0.18 0.13 0.09 0.08 0.09 0.10 0.11 0.12 0.13 0.15 0.15 0.14
1.04 0.98 1.00 1.08 1.17 1.39 1.60 1.70 1.59 1.50 1.48 1.56 1.62 1.69 1.76 1.72 1.56 1.39 1.32 1.23 1.14 0.94 0.76 0.55 0.39 0.30 0.30 0.27 0.29 0.26 0.26 0.25 0.21 0.15 0.12 0.11 0.10 0.10 0.11 0.12 0.12 0.10 0.09
0.87 0.86 0.84 0.87 0.98 1.09 1.27 1.44 1.48 1.42 1.38 1.38 1.47 1.59 1.68 1.75 1.76 1.54 1.40 1.31 1.14 0.99 0.84 0.61 0.47 0.36 0.38 0.35 0.32 0.24 0.23 0.25 0.22 0.21 0.18 0.16 0.13 0.12 0.12 0.13 0.12 0.10 0.08
0.66 0.71 0.83 0.85 0.90 0.97 1.11 1.31 1.43 1.42 1.34 1.33 1.33 1.38 1.48 1.55 1.73 1.66 1.52 1.37 1.22 1.06 0.91 0.76 0.57 0.41 0.40 0.41 0.43 0.33 0.25 0.22 0.20 0.20 0.19 0.17 0.17 0.17 0.15 0.15 0.15 0.13 0.11
0.47 0.57 0.65 0.68 0.71 0.73 0.86 1.06 1.22 1.25 1.21 1.14 1.11 1.17 1.33 1.47 1.67 1.76 1.71 1.57 1.44 1.29 1.14 1.03 0.84 0.64 0.52 0.47 0.50 0.52 0.45 0.38 0.34 0.32 0.27 0.21 0.19 0.21 0.20 0.20 0.19 0.17 0.14
0.51 0.58 0.63 0.68 0.69 0.70 0.69 0.73 0.84 0.95 0.95 0.91 0.89 0.89 0.94 1.06 1.29 1.48 1.57 1.60 1.60 1.51 1.39 1.23 1.01 0.84 0.71 0.56 0.53 0.55 0.52 0.52 0.46 0.45 0.43 0.36 0.31 0.30 0.28 0.25 0.22 0.20 0.18
0.46 0.49 0.50 0.57 0.66 0.67 0.63 0.62 0.64 0.68 0.68 0.69 0.70 0.75 0.80 0.82 0.93 1.06 1.18 1.37 1.59 1.58 1.52 1.41 1.16 0.91 0.77 0.65 0.61 0.63 0.62 0.61 0.58 0.52 0.50 0.45 0.41 0.34 0.30 0.27 0.25 0.22 0.20
0.40 0.43 0.46 0.48 0.54 0.61 0.66 0.66 0.54 0.49 0.51 0.52 0.52 0.53 0.58 0.66 0.71 0.76 0.82 1.08 1.37 1.50 1.47 1.40 1.27 1.05 0.80 0.69 0.60 0.58 0.64 0.73 0.69 0.63 0.63 0.54 0.49 0.42 0.37 0.31 0.27 0.25 0.22
0.37 0.41 0.41 0.43 0.52 0.53 0.63 0.60 0.44 0.39 0.41 0.46 0.51 0.46 0.42 0.44 0.48 0.51 0.56 0.67 0.87 1.08 1.27 1.39 1.33 1.14 0.94 0.78 0.71 0.67 0.66 0.70 0.75 0.67 0.69 0.72 0.65 0.61 0.59 0.53 0.52 0.49 0.38
0.34 0.37 0.38 0.39 0.43 0.53 0.54 0.38 0.36 0.35 0.40 0.44 0.47 0.51 0.46 0.39 0.43 0.42 0.47 0.50 0.49 0.56 0.76 1.01 1.13 1.12 1.13 0.93 0.80 0.71 0.68 0.73 0.75 0.66 0.69 0.72 0.73 0.72 0.72 0.69 0.68 0.65 0.56
0.41 0.41 0.43 0.43 0.42 0.47 0.43 0.31 0.32 0.33 0.40 0.44 0.50 0.58 0.60 0.53 0.52 0.58 0.53 0.53 0.48 0.44 0.57 0.59 0.70 0.94 1.01 0.98 0.87 0.85 0.93 0.87 0.75 0.64 0.54 0.55 0.59 0.62 0.65 0.69 0.70 0.62 0.54
0.42 0.44 0.47 0.48 0.43 0.39 0.38 0.28 0.28 0.35 0.41 0.47 0.49 0.54 0.60 0.57 0.67 0.70 0.64 0.73 0.68 0.57 0.64 0.69 0.70 0.72 0.73 0.74 0.77 0.76 0.78 0.80 0.78 0.69 0.56 0.47 0.46 0.46 0.47 0.48 0.48 0.49 0.49
0.24 0.32 0.34 0.37 0.40 0.38 0.45 0.33 0.31 0.35 0.43 0.51 0.54 0.54 0.68 0.66 0.68 0.65 0.56 0.73 0.73 0.63 0.55 0.56 0.54 0.50 0.46 0.47 0.55 0.63 0.77 0.78 0.71 0.59 0.45 0.37 0.34 0.32 0.32 0.28 0.24 0.25 0.26

GEFSMA_prec_meanprecacc_078.txt.gz
Total_Precipitation_Accumulation
0.54 0.50 0.42 0.39 0.29 0.22 0.20 0.20 0.18 0.15 0.11 0.06 0.04 0.06 0.06 0.05 0.10 0.16 0.28 0.37 0.51 0.53 0.46 0.30 0.19 0.18 0.22 0.21 0.23 0.29 0.36 0.39 0.43 0.43 0.33 0.25 0.19 0.13 0.08 0.07 0.07 0.09 0.10
0.65 0.61 0.53 0.46 0.42 0.35 0.33 0.34 0.28 0.24 0.18 0.12 0.06 0.05 0.05 0.06 0.06 0.09 0.20 0.42 0.57 0.54 0.59 0.56 0.41 0.30 0.25 0.22 0.24 0.27 0.31 0.32 0.35 0.39 0.33 0.24 0.17 0.12 0.07 0.06 0.07 0.09 0.10
0.65 0.61 0.56 0.48 0.46 0.48 0.46 0.45 0.39 0.29 0.20 0.14 0.08 0.06 0.04 0.05 0.06 0.04 0.05 0.11 0.22 0.33 0.43 0.49 0.52 0.43 0.33 0.27 0.27 0.24 0.23 0.25 0.29 0.34 0.35 0.27 0.19 0.15 0.11 0.10 0.09 0.09 0.08
0.73 0.71 0.68 0.62 0.59 0.59 0.53 0.51 0.50 0.41 0.27 0.18 0.13 0.09 0.06 0.04 0.04 0.03 0.03 0.02 0.04 0.11 0.24 0.27 0.34 0.36 0.39 0.39 0.38 0.28 0.20 0.17 0.18 0.25 0.32 0.31 0.23 0.19 0.17 0.17 0.14 0.11 0.08
0.82 0.91 0.87 0.87 0.79 0.74 0.66 0.58 0.52 0.45 0.36 0.26 0.18 0.13 0.08 0.05 0.04 0.03 0.03 0.03 0.04 0.05 0.11 0.10 0.13 0.15 0.19 0.24 0.30 0.30 0.21 0.15 0.13 0.16 0.20 0.24 0.22 0.20 0.21 0.21 0.15 0.12 0.10
1.15 1.25 1.27 1.18 1.12 1.04 0.95 0.83 0.77 0.64 0.49 0.41 0.30 0.19 0.12 0.09 0.06 0.04 0.04 0.04 0.04 0.03 0.03 0.03 0.06 0.06 0.06 0.10 0.13 0.18 0.17 0.16 0.13 0.12 0.15 0.17 0.17 0.15 0.18 0.22 0.19 0.18 0.18
1.52 1.59 1.51 1.54 1.49 1.30 1.22 1.22 1.19 1.07 0.78 0.55 0.52 0.39 0.23 0.14 0.12 0.09 0.08 0.06 0.07 0.05 0.04 0.04 0.03 0.04 0.04 0.03 0.05 0.11 0.17 0.20 0.18 0.15 0.14 0.15 0.14 0.12 0.13 0.18 0.19 0.22 0.24
1.73 1.73 1.80 1.82 1.81 1.75 1.64 1.45 1.44 1.49 1.18 0.82 0.83 0.95 0.62 0.38 0.20 0.13 0.12 0.11 0.11 0.10 0.09 0.08 0.05 0.04 0.02 0.03 0.03 0.05 0.11 0.19 0.21 0.17 0.14 0.13 0.11 0.08 0.08 0.12 0.15 0.18 0.22
1.94 1.96 2.01 2.03 1.97 1.79 1.73 1.75 1.76 2.00 1.73 1.28 1.02 1.12 0.91 0.67 0.44 0.21 0.15 0.16 0.17 0.15 0.15 0.14 0.11 0.08 0.07 0.05 0.05 0.03 0.03 0.07 0.14 0.17 0.16 0.14 0.12 0.09 0.08 0.08 0.11 0.14 0.15
1.87 1.97 1.97 1.95 1.90 1.79 1.82 1.87 1.82 2.06 2.15 1.77 1.40 1.07 0.81 0.69 0.67 0.48 0.28 0.22 0.23 0.19 0.16 0.14 0.10 0.10 0.10 0.09 0.10 0.08 0.05 0.05 0.08 0.14 0.18 0.18 0.16 0.13 0.11 0.09 0.10 0.11 0.12
1.76 1.77 1.77 1.82 1.84 1.84 1.87 2.01 2.04 2.20 2.16 2.07 1.76 1.54 1.35 1.06 0.75 0.68 0.60 0.41 0.31 0.24 0.21 0.20 0.17 0.16 0.15 0.14 0.16 0.16 0.12 0.06 0.06 0.14 0.21 0.23 0.20 0.18 0.18 0.15 0.13 0.12 0.11
1.71 1.64 1.63 1.67 1.77 1.89 1.92 1.96 2.04 2.22 2.27 2.27 2.05 1.76 1.62 1.47 1.24 1.09 0.83 0.65 0.53 0.37 0.28 0.25 0.26 0.23 0.21 0.21 0.24 0.32 0.23 0.13 0.08 0.12 0.17 0.23 0.24 0.22 0.22 0.22 0.20 0.19 0.17
1.41 1.44 1.53 1.60 1.71 1.83 1.88 1.93 2.04 2.03 2.10 2.28 2.24 2.00 1.76 1.53 1.45 1.32 1.17 0.91 0.72 0.47 0.34 0.29 0.29 0.29 0.26 0.24 0.29 0.35 0.24 0.16 0.10 0.08 0.09 0.12 0.16 0.19 0.20 0.19 0.20 0.22 0.22
1.28 1.24 1.28 1.38 1.58 1.76 1.84 1.87 1.84 1.81 1.85 1.99 1.98 1.98 1.92 1.65 1.52 1.37 1.28 1.30 1.10 0.84 0.55 0.35 0.29 0.29 0.28 0.26 0.32 0.37 0.25 0.19 0.14 0.10 0.09 0.10 0.10 0.13 0.15 0.17 0.19 0.19 0.19
1.07 1.01 1.02 1.08 1.19 1.41 1.64 1.76 1.65 1.56 1.54 1.62 1.69 1.78 1.88 1.87 1.74 1.58 1.52 1.44 1.34 1.11 0.88 0.63 0.44 0.33 0.32 0.30 0.34 0.30 0.28 0.28 0.23 0.17 0.14 0.12 0.11 0.11 0.13 0.14 0.15 0.13 0.13
0.92 0.90 0.87 0.90 1.00 1.12 1.31 1.49 1.54 1.49 1.45 1.46 1.57 1.68 1.78 1.88 1.92 1.73 1.63 1.54 1.36 1.19 1.00 0.73 0.55 0.41 0.42 0.38 0.37 0.28 0.27 0.33 0.27 0.24 0.20 0.18 0.15 0.14 0.14 0.15 0.14 0.12 0.10
0.71 0.74 0.86 0.88 0.94 1.01 1.15 1.36 1.50 1.50 1.43 1.42 1.43 1.47 1.59 1.66 1.87 1.84 1.74 1.61 1.46 1.28 1.09 0.90 0.68 0.49 0.49 0.47 0.47 0.37 0.30 0.27 0.25 0.26 0.23 0.20 0.19 0.19 0.18 0.20 0.19 0.16 0.13
0.50 0.60 0.69 0.73 0.75 0.77 0.90 1.13 1.30 1.34 1.29 1.23 1.21 1.26 1.44 1.59 1.79 1.90 1.87 1.75 1.64 1.51 1.34 1.20 0.98 0.75 0.62 0.57 0.59 0.59 0.51 0.43 0.40 0.39 0.34 0.27 0.25 0.25 0.24 0.24 0.23 0.21 0.18
0.52 0.61 0.68 0.73 0.74 0.75 0.72 0.78 0.90 1.02 1.05 1.01 0.99 1.00 1.04 1.17 1.41 1.61 1.69 1.72 1.76 1.72 1.62 1.45 1.22 1.02 0.85 0.69 0.63 0.63 0.58 0.59 0.53 0.53 0.51 0.44 0.38 0.38 0.35 0.31 0.26 0.24 0.22
0.47 0.52 0.55 0.61 0.69 0.70 0.67 0.66 0.69 0.74 0.75 0.78 0.80 0.86 0.90 0.91 1.04 1.17 1.29 1.49 1.71 1.72 1.69 1.61 1.39 1.13 0.96 0.81 0.74 0.74 0.73 0.71 0.66 0.59 0.58 0.53 0.48 0.40 0.35 0.31 0.28 0.25 0.23
0.40 0.45 0.49 0.51 0.57 0.63 0.68 0.69 0.58 0.52 0.56 0.60 0.62 0.63 0.67 0.75 0.81 0.87 0.93 1.18 1.47 1.61 1.59 1.56 1.45 1.24 0.99 0.86 0.74 0.70 0.76 0.85 0.83 0.75 0.75 0.64 0.56 0.48 0.41 0.34 0.30 0.28 0.25
0.38 0.43 0.43 0.45 0.53 0.55 0.66 0.63 0.47 0.42 0.44 0.51 0.58 0.56 0.54 0.54 0.57 0.60 0.66 0.76 0.96 1.18 1.39 1.52 1.48 1.30 1.09 0.94 0.85 0.80 0.80 0.83 0.88 0.80 0.80 0.85 0.76 0.70 0.66 0.58 0.56 0.52 0.41
0.34 0.37 0.38 0.40 0.44 0.56 0.57 0.41 0.38 0.38 0.43 0.47 0.51 0.58 0.55 0.49 0.52 0.51 0.56 0.59 0.57 0.64 0.88 1.13 1.27 1.26 1.28 1.09 0.99 0.89 0.83 0.88 0.88 0.78 0.78 0.83 0.83 0.82 0.80 0.77 0.76 0.71 0.61
0.42 0.41 0.44 0.44 0.44 0.49 0.45 0.32 0.33 0.35 0.41 0.46 0.53 0.62 0.66 0.60 0.60 0.65 0.60 0.60 0.55 0.51 0.65 0.67 0.80 1.06 1.16 1.15 1.05 1.06 1.13 1.07 0.92 0.78 0.66 0.67 0.70 0.72 0.73 0.76 0.78 0.69 0.60
0.42 0.44 0.47 0.48 0.43 0.39 0.39 0.29 0.28 0.36 0.42 0.49 0.52 0.57 0.63 0.61 0.72 0.77 0.71 0.79 0.75 0.65 0.73 0.77 0.80 0.81 0.85 0.91 0.95 0.93 0.95 0.98 0.97 0.86 0.67 0.56 0.55 0.54 0.54 0.54 0.53 0.55 0.55
0.24 0.32 0.34 0.38 0.40 0.38 0.46 0.33 0.32 0.36 0.44 0.55 0.59 0.58 0.71 0.69 0.71 0.70 0.64 0.81 0.82 0.70 0.62 0.66 0.62 0.57 0.53 0.59 0.70 0.79 0.92 0.92 0.85 0.74 0.57 0.45 0.42 0.40 0.40 0.35 0.28 0.28 0.30

GEFSMA_prec_meanprecacc_084.txt.gz
Total_Precipitation_Accumulation
0.69 0.67 0.60 0.59 0.45 0.38 0.42 0.44 0.40 0.37 0.29 0.16 0.13 0.14 0.12 0.08 0.11 0.17 0.29 0.37 0.52 0.53 0.47 0.32 0.21 0.20 0.22 0.22 0.24 0.31 0.39 0.43 0.47 0.46 0.37 0.29 0.22 0.16 0.10 0.08 0.08 0.11 0.11
0.74 0.77 0.70 0.65 0.59 0.50 0.49 0.60 0.50 0.46 0.43 0.32 0.17 0.13 0.11 0.08 0.07 0.10 0.22 0.43 0.58 0.55 0.60 0.58 0.44 0.33 0.28 0.24 0.26 0.29 0.34 0.37 0.38 0.41 0.36 0.27 0.19 0.14 0.08 0.07 0.08 0.11 0.12
0.71 0.71 0.70 0.65 0.62 0.62 0.59 0.63 0.59 0.49 0.38 0.30 0.20 0.12 0.08 0.07 0.07 0.05 0.07 0.13 0.23 0.33 0.44 0.51 0.54 0.45 0.36 0.29 0.29 0.26 0.26 0.28 0.31 0.36 0.39 0.31 0.21 0.16 0.12 0.11 0.10 0.10 0.09
0.78 0.76 0.77 0.75 0.77 0.76 0.69 0.67 0.68 0.62 0.45 0.35 0.29 0.20 0.12 0.09 0.06 0.05 0.04 0.04 0.06 0.12 0.25 0.28 0.35 0.38 0.41 0.41 0.40 0.30 0.22 0.19 0.20 0.27 0.36 0.35 0.26 0.20 0.18 0.18 0.15 0.12 0.09
0.85 0.94 0.93 0.97 0.93 0.90 0.84 0.75 0.69 0.62 0.54 0.45 0.34 0.26 0.18 0.13 0.10 0.05 0.05 0.05 0.06 0.07 0.12 0.11 0.14 0.16 0.20 0.25 0.32 0.33 0.23 0.17 0.14 0.17 0.22 0.26 0.25 0.21 0.22 0.22 0.15 0.13 0.11
1.16 1.27 1.32 1.25 1.23 1.18 1.11 1.02 1.01 0.86 0.67 0.60 0.49 0.34 0.22 0.18 0.15 0.11 0.09 0.07 0.06 0.06 0.07 0.06 0.07 0.07 0.07 0.10 0.15 0.21 0.20 0.19 0.15 0.14 0.16 0.18 0.19 0.17 0.20 0.23 0.20 0.18 0.18
1.54 1.62 1.55 1.60 1.59 1.42 1.37 1.39 1.41 1.30 1.00 0.77 0.76 0.60 0.38 0.23 0.21 0.18 0.15 0.11 0.09 0.09 0.10 0.08 0.05 0.05 0.05 0.04 0.05 0.12 0.19 0.24 0.22 0.17 0.16 0.16 0.15 0.13 0.14 0.18 0.20 0.22 0.25
1.76 1.77 1.85 1.88 1.88 1.85 1.76 1.60 1.61 1.67 1.39 1.04 1.05 1.21 0.86 0.55 0.29 0.21 0.19 0.15 0.13 0.14 0.14 0.13 0.09 0.07 0.04 0.05 0.04 0.05 0.12 0.22 0.26 0.21 0.17 0.16 0.14 0.10 0.09 0.12 0.16 0.19 0.22
1.99 2.00 2.05 2.08 2.03 1.87 1.82 1.88 1.92 2.18 1.91 1.47 1.23 1.35 1.11 0.85 0.60 0.31 0.24 0.25 0.22 0.20 0.20 0.21 0.18 0.15 0.11 0.09 0.09 0.04 0.03 0.07 0.16 0.19 0.19 0.18 0.16 0.12 0.09 0.09 0.12 0.16 0.16
1.91 2.00 2.01 1.99 1.95 1.86 1.89 1.96 1.94 2.20 2.31 1.94 1.58 1.25 0.97 0.85 0.85 0.64 0.39 0.31 0.31 0.24 0.21 0.21 0.19 0.18 0.16 0.13 0.15 0.09 0.05 0.05 0.09 0.16 0.21 0.21 0.18 0.16 0.13 0.11 0.12 0.13 0.13
1.78 1.79 1.80 1.86 1.88 1.90 1.94 2.08 2.14 2.31 2.28 2.21 1.92 1.70 1.50 1.19 0.86 0.81 0.76 0.55 0.44 0.31 0.26 0.26 0.24 0.21 0.20 0.20 0.24 0.22 0.13 0.06 0.07 0.15 0.23 0.26 0.23 0.20 0.20 0.17 0.15 0.14 0.13
1.76 1.68 1.66 1.71 1.81 1.95 1.98 2.04 2.13 2.32 2.39 2.41 2.23 1.93 1.78 1.60 1.33 1.17 0.93 0.78 0.70 0.51 0.39 0.34 0.32 0.29 0.26 0.27 0.33 0.42 0.29 0.14 0.08 0.12 0.19 0.25 0.27 0.26 0.25 0.25 0.23 0.21 0.20
1.47 1.49 1.56 1.64 1.75 1.88 1.93 1.99 2.11 2.11 2.20 2.43 2.40 2.15 1.90 1.67 1.59 1.45 1.29 1.04 0.88 0.62 0.48 0.42 0.39 0.37 0.33 0.36 0.42 0.49 0.33 0.18 0.10 0.08 0.10 0.13 0.18 0.22 0.24 0.23 0.24 0.25 0.26
1.34 1.29 1.32 1.41 1.62 1.81 1.89 1.93 1.91 1.89 1.94 2.10 2.10 2.11 2.04 1.78 1.66 1.49 1.39 1.44 1.24 0.97 0.68 0.47 0.39 0.38 0.36 0.35 0.44 0.51 0.32 0.22 0.15 0.10 0.09 0.10 0.11 0.13 0.18 0.21 0.24 0.25 0.25
1.13 1.07 1.08 1.13 1.23 1.46 1.70 1.83 1.74 1.65 1.63 1.72 1.79 1.88 1.98 1.98 1.88 1.73 1.65 1.58 1.49 1.25 1.01 0.75 0.56 0.43 0.44 0.41 0.49 0.40 0.34 0.32 0.25 0.18 0.14 0.13 0.11 0.12 0.14 0.16 0.18 0.15 0.16
0.95 0.94 0.91 0.93 1.04 1.16 1.37 1.58 1.64 1.59 1.54 1.54 1.65 1.77 1.89 2.00 2.05 1.85 1.76 1.67 1.50 1.34 1.16 0.88 0.69 0.55 0.58 0.52 0.54 0.38 0.37 0.43 0.33 0.26 0.20 0.18 0.16 0.14 0.15 0.16 0.15 0.14 0.11
0.73 0.76 0.90 0.94 0.99 1.05 1.21 1.46 1.61 1.61 1.54 1.52 1.51 1.55 1.67 1.76 1.98 1.95 1.85 1.72 1.57 1.39 1.21 1.05 0.84 0.63 0.65 0.66 0.63 0.50 0.41 0.38 0.31 0.29 0.24 0.21 0.20 0.20 0.19 0.21 0.20 0.18 0.15
0.51 0.61 0.72 0.76 0.79 0.81 0.96 1.22 1.41 1.44 1.39 1.32 1.29 1.35 1.53 1.70 1.91 2.02 1.99 1.86 1.74 1.60 1.43 1.31 1.12 0.88 0.77 0.74 0.76 0.75 0.64 0.56 0.49 0.47 0.39 0.29 0.26 0.27 0.26 0.26 0.26 0.24 0.21
0.55 0.63 0.71 0.76 0.78 0.79 0.79 0.86 0.98 1.10 1.13 1.10 1.09 1.10 1.14 1.29 1.54 1.74 1.82 1.85 1.88 1.82 1.72 1.55 1.33 1.15 0.98 0.84 0.81 0.79 0.73 0.73 0.66 0.64 0.59 0.49 0.42 0.42 0.39 0.34 0.30 0.27 0.25
0.50 0.55 0.58 0.66 0.75 0.77 0.74 0.73 0.75 0.81 0.80 0.84 0.89 0.94 0.97 1.00 1.15 1.30 1.43 1.63 1.83 1.83 1.82 1.73 1.51 1.25 1.08 0.95 0.92 0.91 0.89 0.86 0.81 0.70 0.67 0.59 0.53 0.46 0.41 0.37 0.32 0.29 0.27
0.42 0.47 0.51 0.54 0.61 0.67 0.71 0.72 0.62 0.58 0.61 0.66 0.71 0.72 0.73 0.81 0.89 0.96 1.04 1.32 1.62 1.75 1.72 1.69 1.58 1.38 1.13 1.00 0.90 0.85 0.90 1.01 1.00 0.93 0.88 0.72 0.62 0.53 0.46 0.40 0.36 0.33 0.30
0.39 0.44 0.44 0.45 0.55 0.57 0.67 0.64 0.50 0.48 0.50 0.58 0.67 0.64 0.58 0.58 0.61 0.65 0.73 0.86 1.08 1.29 1.51 1.64 1.61 1.42 1.22 1.07 1.00 0.97 0.96 0.98 1.04 0.97 0.96 0.98 0.86 0.78 0.72 0.64 0.62 0.58 0.46
0.35 0.38 0.39 0.40 0.45 0.57 0.58 0.42 0.39 0.42 0.48 0.54 0.60 0.66 0.60 0.51 0.55 0.56 0.63 0.67 0.66 0.73 0.98 1.25 1.39 1.39 1.42 1.23 1.13 1.05 0.98 1.01 1.01 0.90 0.92 0.98 0.97 0.94 0.89 0.85 0.84 0.77 0.67
0.42 0.42 0.44 0.44 0.44 0.49 0.46 0.33 0.33 0.38 0.45 0.50 0.58 0.67 0.72 0.64 0.63 0.70 0.67 0.69 0.64 0.59 0.74 0.75 0.89 1.17 1.30 1.31 1.22 1.24 1.34 1.25 1.09 0.94 0.81 0.82 0.82 0.83 0.83 0.84 0.85 0.75 0.65
0.42 0.44 0.48 0.48 0.43 0.40 0.39 0.30 0.29 0.37 0.45 0.52 0.54 0.59 0.66 0.63 0.74 0.80 0.77 0.86 0.83 0.73 0.83 0.86 0.88 0.89 0.94 1.02 1.10 1.12 1.18 1.21 1.19 1.07 0.83 0.69 0.66 0.63 0.63 0.63 0.62 0.62 0.61
0.24 0.32 0.34 0.38 0.41 0.38 0.46 0.33 0.32 0.38 0.48 0.59 0.63 0.61 0.73 0.70 0.73 0.72 0.69 0.88 0.91 0.80 0.70 0.74 0.71 0.65 0.60 0.66 0.80 0.91 1.05 1.08 1.03 0.93 0.73 0.58 0.53 0.49 0.51 0.45 0.36 0.35 0.36

GEFSMA_prec_meanprecacc_090.txt.gz
Total_Precipitation_Accumulation
0.72 0.72 0.66 0.66 0.53 0.48 0.50 0.51 0.47 0.46 0.38 0.27 0.23 0.24 0.27 0.22 0.20 0.23 0.33 0.43 0.59 0.62 0.54 0.37 0.24 0.21 0.23 0.23 0.25 0.32 0.40 0.44 0.48 0.48 0.39 0.31 0.23 0.17 0.11 0.09 0.10 0.12 0.12
0.77 0.81 0.75 0.72 0.67 0.59 0.59 0.71 0.61 0.56 0.52 0.42 0.27 0.25 0.26 0.23 0.19 0.20 0.28 0.49 0.64 0.61 0.66 0.64 0.47 0.34 0.28 0.24 0.27 0.30 0.35 0.38 0.39 0.42 0.38 0.29 0.21 0.15 0.09 0.08 0.09 0.11 0.12
0.75 0.77 0.77 0.72 0.69 0.70 0.68 0.72 0.72 0.68 0.53 0.44 0.33 0.24 0.21 0.20 0.20 0.16 0.14 0.20 0.27 0.38 0.50 0.57 0.59 0.48 0.37 0.30 0.30 0.27 0.26 0.29 0.33 0.38 0.41 0.32 0.22 0.17 0.13 0.12 0.11 0.10 0.10
0.80 0.79 0.82 0.82 0.84 0.85 0.80 0.78 0.81 0.76 0.62 0.52 0.45 0.35 0.24 0.21 0.21 0.20 0.15 0.12 0.13 0.15 0.28 0.34 0.41 0.43 0.44 0.42 0.41 0.31 0.23 0.20 0.21 0.28 0.37 0.36 0.27 0.21 0.19 0.18 0.15 0.12 0.09
0.87 0.96 0.96 1.01 0.99 0.98 0.95 0.88 0.82 0.75 0.68 0.59 0.47 0.39 0.29 0.23 0.22 0.20 0.23 0.19 0.17 0.14 0.15 0.15 0.20 0.20 0.25 0.28 0.33 0.34 0.25 0.17 0.15 0.18 0.23 0.27 0.25 0.22 0.23 0.22 0.16 0.13 0.11
1.18 1.29 1.33 1.27 1.26 1.23 1.18 1.10 1.11 0.97 0.78 0.72 0.62 0.45 0.31 0.27 0.26 0.22 0.23 0.22 0.17 0.16 0.15 0.10 0.10 0.09 0.10 0.14 0.18 0.23 0.21 0.19 0.16 0.15 0.17 0.19 0.20 0.17 0.20 0.24 0.21 0.19 0.19
1.55 1.63 1.56 1.61 1.61 1.44 1.42 1.46 1.48 1.39 1.10 0.90 0.87 0.69 0.47 0.31 0.30 0.28 0.26 0.23 0.22 0.22 0.23 0.16 0.09 0.08 0.07 0.07 0.08 0.15 0.21 0.25 0.23 0.18 0.17 0.17 0.16 0.14 0.15 0.19 0.20 0.23 0.25
1.78 1.78 1.85 1.89 1.89 1.86 1.80 1.66 1.69 1.75 1.48 1.18 1.18 1.32 0.96 0.64 0.36 0.29 0.30 0.26 0.25 0.27 0.29 0.27 0.19 0.13 0.08 0.07 0.05 0.07 0.14 0.24 0.27 0.22 0.18 0.17 0.15 0.11 0.10 0.13 0.17 0.19 0.23
2.01 2.02 2.06 2.09 2.05 1.88 1.85 1.93 2.00 2.27 2.01 1.60 1.38 1.50 1.23 0.95 0.70 0.39 0.35 0.37 0.35 0.35 0.37 0.42 0.36 0.29 0.22 0.15 0.11 0.06 0.05 0.09 0.19 0.22 0.20 0.19 0.17 0.13 0.10 0.10 0.13 0.17 0.18
1.92 2.02 2.03 2.01 1.97 1.88 1.92 1.98 1.99 2.27 2.40 2.04 1.70 1.37 1.08 0.97 0.97 0.72 0.47 0.42 0.45 0.37 0.36 0.39 0.39 0.38 0.33 0.25 0.22 0.12 0.07 0.06 0.10 0.18 0.23 0.23 0.20 0.17 0.14 0.12 0.13 0.14 0.15
1.80 1.81 1.82 1.88 1.90 1.93 1.97 2.11 2.17 2.35 2.34 2.27 2.00 1.80 1.61 1.29 0.95 0.90 0.83 0.63 0.55 0.43 0.39 0.42 0.44 0.44 0.41 0.37 0.37 0.29 0.17 0.09 0.09 0.18 0.26 0.29 0.25 0.22 0.21 0.18 0.16 0.16 0.14
1.78 1.70 1.68 1.72 1.82 1.97 2.01 2.06 2.15 2.34 2.43 2.47 2.30 2.02 1.88 1.69 1.40 1.24 0.99 0.84 0.77 0.61 0.53 0.48 0.48 0.47 0.46 0.45 0.46 0.58 0.40 0.19 0.11 0.15 0.23 0.30 0.32 0.30 0.28 0.28 0.26 0.23 0.22
1.49 1.50 1.58 1.65 1.76 1.88 1.94 2.01 2.13 2.13 2.23 2.48 2.46 2.23 1.99 1.76 1.67 1.53 1.35 1.08 0.91 0.68 0.58 0.54 0.50 0.50 0.50 0.55 0.60 0.70 0.54 0.29 0.16 0.12 0.13 0.16 0.22 0.27 0.29 0.28 0.29 0.29 0.29
1.38 1.32 1.35 1.43 1.63 1.83 1.90 1.95 1.93 1.92 1.97 2.14 2.16 2.17 2.12 1.87 1.76 1.56 1.45 1.49 1.27 1.02 0.74 0.54 0.47 0.47 0.49 0.54 0.65 0.73 0.52 0.38 0.24 0.16 0.12 0.12 0.14 0.17 0.22 0.26 0.30 0.31 0.31
1.18 1.11 1.12 1.16 1.25 1.48 1.72 1.85 1.76 1.68 1.66 1.76 1.83 1.93 2.05 2.06 1.97 1.80 1.71 1.64 1.54 1.29 1.04 0.79 0.61 0.49 0.53 0.56 0.72 0.61 0.50 0.47 0.38 0.26 0.19 0.15 0.13 0.13 0.16 0.20 0.23 0.20 0.21
0.99 0.98 0.94 0.95 1.06 1.19 1.39 1.60 1.66 1.62 1.58 1.59 1.70 1.84 1.96 2.06 2.11 1.91 1.81 1.72 1.55 1.38 1.18 0.91 0.72 0.60 0.66 0.65 0.74 0.60 0.55 0.60 0.47 0.36 0.27 0.22 0.18 0.16 0.16 0.18 0.18 0.17 0.15
0.74 0.77 0.92 0.96 1.01 1.07 1.23 1.48 1.64 1.66 1.58 1.56 1.54 1.59 1.71 1.81 2.03 2.01 1.90 1.78 1.63 1.44 1.24 1.07 0.86 0.66 0.71 0.75 0.78 0.70 0.63 0.58 0.46 0.41 0.33 0.26 0.23 0.22 0.20 0.22 0.22 0.20 0.18
0.52 0.62 0.74 0.78 0.82 0.84 0.98 1.25 1.44 1.48 1.43 1.36 1.34 1.40 1.58 1.74 1.95 2.05 2.02 1.90 1.78 1.64 1.47 1.34 1.15 0.92 0.81 0.80 0.87 0.91 0.84 0.76 0.67 0.63 0.52 0.38 0.32 0.30 0.28 0.27 0.27 0.25 0.22
0.55 0.64 0.72 0.77 0.80 0.83 0.82 0.90 1.02 1.15 1.17 1.13 1.13 1.13 1.17 1.32 1.58 1.77 1.85 1.88 1.91 1.86 1.76 1.58 1.35 1.18 1.03 0.90 0.90 0.92 0.89 0.91 0.84 0.85 0.79 0.65 0.52 0.48 0.43 0.37 0.32 0.29 0.27
0.51 0.56 0.60 0.68 0.77 0.80 0.77 0.76 0.78 0.83 0.84 0.89 0.94 0.96 0.99 1.03 1.18 1.34 1.47 1.67 1.89 1.88 1.86 1.77 1.54 1.28 1.12 1.00 1.01 1.03 1.03 1.00 0.96 0.86 0.84 0.75 0.66 0.56 0.49 0.43 0.36 0.32 0.29
0.42 0.47 0.52 0.55 0.61 0.68 0.72 0.73 0.63 0.59 0.64 0.70 0.74 0.75 0.76 0.84 0.93 1.00 1.07 1.36 1.67 1.80 1.77 1.73 1.62 1.42 1.17 1.06 0.96 0.92 1.02 1.17 1.16 1.06 1.01 0.86 0.75 0.63 0.54 0.48 0.42 0.38 0.33
0.39 0.44 0.44 0.46 0.56 0.57 0.67 0.65 0.50 0.48 0.51 0.61 0.69 0.67 0.60 0.59 0.63 0.69 0.77 0.91 1.13 1.34 1.56 1.68 1.64 1.45 1.25 1.10 1.04 1.02 1.04 1.10 1.17 1.07 1.06 1.09 0.99 0.90 0.82 0.72 0.69 0.64 0.52
0.35 0.38 0.39 0.40 0.45 0.57 0.58 0.42 0.39 0.42 0.50 0.56 0.63 0.68 0.61 0.52 0.56 0.57 0.66 0.73 0.72 0.80 1.04 1.30 1.43 1.42 1.45 1.26 1.17 1.10 1.03 1.08 1.09 1.02 1.05 1.09 1.09 1.06 1.01 0.97 0.96 0.88 0.76
0.42 0.42 0.44 0.44 0.44 0.49 0.46 0.33 0.34 0.38 0.45 0.51 0.60 0.68 0.73 0.65 0.64 0.72 0.70 0.72 0.67 0.64 0.79 0.79 0.93 1.22 1.35 1.38 1.30 1.31 1.42 1.34 1.18 1.05 0.93 0.94 0.93 0.92 0.92 0.94 0.95 0.85 0.75
0.42 0.44 0.48 0.48 0.43 0.40 0.39 0.30 0.29 0.38 0.46 0.52 0.55 0.61 0.67 0.64 0.75 0.82 0.80 0.89 0.86 0.76 0.88 0.91 0.92 0.94 1.00 1.09 1.18 1.21 1.27 1.30 1.27 1.14 0.92 0.79 0.78 0.74 0.72 0.71 0.70 0.71 0.68
0.24 0.32 0.34 0.38 0.41 0.38 0.46 0.33 0.32 0.38 0.49 0.60 0.63 0.62 0.75 0.73 0.76 0.74 0.71 0.91 0.93 0.82 0.73 0.76 0.75 0.69 0.64 0.71 0.86 0.97 1.11 1.15 1.09 0.99 0.79 0.66 0.63 0.62 0.63 0.53 0.42 0.42 0.43

GEFSMA_prec_meanprecacc_096.txt.gz
Total_Precipitation_Accumulation
0.74 0.74 0.68 0.70 0.60 0.56 0.59 0.62 0.58 0.55 0.47 0.36 0.29 0.29 0.30 0.25 0.22 0.25 0.34 0.45 0.64 0.71 0.66 0.50 0.34 0.27 0.28 0.29 0.31 0.38 0.45 0.48 0.52 0.52 0.43 0.33 0.25 0.19 0.12 0.10 0.11 0.14 0.14
0.79 0.83 0.79 0.76 0.72 0.64 0.64 0.77 0.67 0.64 0.60 0.50 0.32 0.31 0.31 0.27 0.22 0.22 0.30 0.51 0.67 0.67 0.76 0.76 0.58 0.42 0.33 0.30 0.32 0.35 0.41 0.43 0.43 0.46 0.42 0.32 0.22 0.16 0.10 0.09 0.10 0.12 0.13
0.76 0.79 0.80 0.75 0.73 0.75 0.73 0.77 0.77 0.73 0.60 0.51 0.39 0.31 0.29 0.26 0.24 0.20 0.17 0.22 0.29 0.42 0.58 0.68 0.69 0.57 0.44 0.37 0.35 0.31 0.31 0.33 0.36 0.41 0.44 0.36 0.26 0.19 0.15 0.14 0.12 0.11 0.10
0.81 0.80 0.84 0.85 0.87 0.90 0.85 0.85 0.87 0.84 0.70 0.61 0.55 0.45 0.33 0.29 0.27 0.25 0.19 0.15 0.16 0.18 0.33 0.42 0.51 0.53 0.53 0.50 0.48 0.37 0.29 0.24 0.24 0.32 0.40 0.39 0.31 0.24 0.22 0.22 0.18 0.14 0.10
0.88 0.97 0.97 1.03 1.01 1.01 1.00 0.96 0.93 0.84 0.77 0.69 0.58 0.51 0.40 0.31 0.29 0.27 0.29 0.24 0.21 0.17 0.18 0.22 0.30 0.30 0.33 0.36 0.42 0.43 0.32 0.22 0.18 0.22 0.26 0.29 0.28 0.24 0.25 0.25 0.18 0.15 0.12
1.19 1.30 1.35 1.29 1.29 1.26 1.22 1.15 1.18 1.06 0.85 0.80 0.73 0.57 0.41 0.35 0.33 0.30 0.31 0.30 0.24 0.21 0.19 0.14 0.15 0.17 0.19 0.23 0.27 0.32 0.30 0.26 0.19 0.18 0.20 0.22 0.22 0.20 0.23 0.27 0.24 0.22 0.20
1.57 1.64 1.57 1.62 1.63 1.48 1.46 1.50 1.53 1.45 1.16 0.96 0.95 0.78 0.55 0.37 0.36 0.34 0.32 0.30 0.28 0.29 0.30 0.22 0.13 0.13 0.13 0.16 0.15 0.23 0.29 0.32 0.28 0.22 0.21 0.20 0.19 0.17 0.17 0.21 0.23 0.25 0.28
1.78 1.78 1.86 1.90 1.91 1.88 1.83 1.69 1.72 1.79 1.53 1.25 1.25 1.42 1.04 0.70 0.41 0.33 0.35 0.31 0.29 0.33 0.35 0.34 0.26 0.18 0.13 0.13 0.09 0.14 0.22 0.33 0.36 0.28 0.23 0.22 0.19 0.13 0.12 0.14 0.18 0.21 0.26
2.01 2.03 2.07 2.10 2.06 1.90 1.87 1.94 2.01 2.29 2.05 1.66 1.45 1.59 1.30 1.01 0.75 0.43 0.39 0.42 0.40 0.38 0.42 0.48 0.42 0.34 0.27 0.19 0.16 0.11 0.11 0.16 0.28 0.31 0.29 0.26 0.23 0.16 0.12 0.12 0.15 0.18 0.20
1.93 2.03 2.04 2.02 1.98 1.89 1.94 2.00 2.00 2.28 2.41 2.07 1.77 1.44 1.14 1.03 1.03 0.77 0.51 0.47 0.51 0.43 0.42 0.46 0.45 0.45 0.40 0.29 0.26 0.15 0.12 0.11 0.18 0.28 0.35 0.35 0.29 0.23 0.18 0.15 0.15 0.16 0.18
1.80 1.82 1.82 1.89 1.92 1.95 1.99 2.12 2.18 2.36 2.36 2.30 2.06 1.88 1.69 1.35 1.00 0.95 0.88 0.66 0.60 0.49 0.45 0.49 0.53 0.52 0.49 0.46 0.44 0.35 0.22 0.13 0.15 0.28 0.38 0.41 0.37 0.31 0.27 0.22 0.20 0.19 0.18
1.79 1.71 1.69 1.73 1.84 1.98 2.02 2.06 2.15 2.35 2.44 2.50 2.35 2.07 1.95 1.76 1.45 1.29 1.03 0.89 0.83 0.67 0.58 0.54 0.55 0.54 0.54 0.53 0.54 0.65 0.48 0.24 0.16 0.22 0.32 0.43 0.46 0.43 0.36 0.33 0.30 0.27 0.25
1.49 1.51 1.58 1.65 1.76 1.89 1.95 2.03 2.15 2.15 2.25 2.49 2.49 2.27 2.04 1.82 1.72 1.58 1.40 1.13 0.97 0.75 0.64 0.59 0.56 0.56 0.56 0.61 0.66 0.78 0.61 0.36 0.22 0.19 0.18 0.22 0.32 0.41 0.43 0.38 0.36 0.35 0.34
1.39 1.32 1.35 1.44 1.64 1.84 1.91 1.96 1.96 1.94 1.99 2.16 2.18 2.19 2.15 1.90 1.79 1.61 1.50 1.54 1.32 1.07 0.80 0.60 0.52 0.52 0.54 0.59 0.71 0.83 0.61 0.48 0.33 0.24 0.20 0.18 0.19 0.24 0.32 0.38 0.43 0.42 0.40
1.20 1.13 1.14 1.18 1.26 1.49 1.73 1.87 1.79 1.71 1.69 1.79 1.86 1.95 2.06 2.08 1.99 1.83 1.76 1.69 1.58 1.32 1.09 0.84 0.66 0.54 0.57 0.61 0.78 0.68 0.56 0.56 0.47 0.34 0.26 0.22 0.20 0.20 0.23 0.27 0.32 0.33 0.36
1.01 1.01 0.97 1.00 1.10 1.21 1.41 1.62 1.69 1.65 1.61 1.63 1.73 1.87 1.98 2.07 2.14 1.93 1.84 1.75 1.58 1.41 1.22 0.95 0.77 0.64 0.70 0.70 0.81 0.65 0.60 0.69 0.56 0.45 0.36 0.30 0.24 0.21 0.22 0.24 0.23 0.22 0.22
0.76 0.79 0.93 0.98 1.03 1.08 1.25 1.50 1.66 1.69 1.62 1.60 1.58 1.62 1.73 1.83 2.07 2.05 1.95 1.82 1.66 1.47 1.28 1.11 0.90 0.70 0.75 0.79 0.84 0.76 0.69 0.65 0.53 0.50 0.42 0.36 0.31 0.29 0.26 0.28 0.28 0.26 0.24
0.52 0.63 0.75 0.79 0.83 0.86 1.00 1.28 1.48 1.52 1.47 1.38 1.35 1.41 1.60 1.78 2.00 2.11 2.07 1.94 1.80 1.67 1.52 1.39 1.19 0.96 0.84 0.83 0.91 0.97 0.91 0.84 0.76 0.74 0.63 0.49 0.41 0.38 0.35 0.32 0.32 0.30 0.28
0.55 0.64 0.73 0.79 0.81 0.85 0.85 0.93 1.05 1.17 1.19 1.15 1.14 1.14 1.19 1.36 1.62 1.82 1.89 1.91 1.93 1.89 1.81 1.62 1.39 1.21 1.06 0.93 0.94 0.96 0.94 0.97 0.91 0.94 0.90 0.76 0.64 0.58 0.52 0.44 0.38 0.34 0.31
0.51 0.56 0.60 0.68 0.77 0.81 0.79 0.78 0.80 0.85 0.85 0.90 0.95 0.98 1.01 1.05 1.21 1.37 1.50 1.71 1.92 1.91 1.89 1.80 1.57 1.31 1.15 1.04 1.04 1.05 1.06 1.02 0.99 0.91 0.91 0.84 0.77 0.68 0.60 0.52 0.44 0.38 0.34
0.42 0.47 0.52 0.55 0.62 0.68 0.72 0.74 0.64 0.61 0.65 0.72 0.77 0.77 0.79 0.87 0.97 1.04 1.11 1.40 1.71 1.84 1.81 1.75 1.64 1.44 1.19 1.08 0.99 0.95 1.04 1.19 1.19 1.11 1.07 0.93 0.83 0.72 0.64 0.58 0.52 0.46 0.40
0.39 0.44 0.44 0.46 0.56 0.57 0.68 0.65 0.50 0.49 0.52 0.62 0.71 0.68 0.62 0.61 0.66 0.73 0.80 0.94 1.16 1.37 1.58 1.69 1.66 1.46 1.27 1.12 1.06 1.06 1.07 1.13 1.20 1.11 1.12 1.16 1.07 0.98 0.90 0.80 0.78 0.73 0.61
0.35 0.38 0.39 0.40 0.45 0.57 0.58 0.42 0.39 0.43 0.50 0.56 0.63 0.68 0.62 0.53 0.57 0.60 0.70 0.78 0.77 0.82 1.05 1.32 1.45 1.44 1.47 1.29 1.20 1.13 1.07 1.11 1.12 1.06 1.11 1.16 1.16 1.12 1.07 1.04 1.05 0.97 0.85
0.42 0.42 0.44 0.44 0.44 0.49 0.46 0.33 0.34 0.38 0.45 0.52 0.61 0.69 0.73 0.66 0.65 0.73 0.72 0.74 0.69 0.65 0.81 0.82 0.96 1.24 1.37 1.40 1.33 1.34 1.45 1.38 1.22 1.10 1.00 1.01 1.00 0.99 0.99 1.01 1.03 0.93 0.83
0.42 0.44 0.48 0.48 0.43 0.40 0.39 0.30 0.29 0.38 0.46 0.53 0.56 0.62 0.69 0.65 0.77 0.84 0.81 0.90 0.87 0.78 0.90 0.93 0.95 0.97 1.03 1.11 1.20 1.24 1.30 1.34 1.31 1.18 0.96 0.85 0.83 0.81 0.80 0.79 0.78 0.79 0.76
0.24 0.32 0.34 0.38 0.41 0.38 0.46 0.33 0.32 0.38 0.49 0.60 0.63 0.62 0.75 0.74 0.78 0.75 0.72 0.91 0.94 0.83 0.74 0.79 0.80 0.77 0.69 0.74 0.89 1.02 1.16 1.20 1.14 1.03 0.82 0.71 0.69 0.70 0.71 0.59 0.48 0.48 0.50

GEFSMA_prec_meanprecacc_102.txt.gz
Total_Precipitation_Accumulation
0.75 0.75 0.70 0.73 0.64 0.61 0.66 0.70 0.68 0.68 0.58 0.44 0.36 0.34 0.34 0.27 0.25 0.27 0.36 0.45 0.66 0.75 0.74 0.61 0.46 0.37 0.37 0.35 0.37 0.44 0.51 0.54 0.58 0.59 0.48 0.38 0.29 0.22 0.14 0.12 0.13 0.16 0.15
0.80 0.84 0.80 0.78 0.74 0.68 0.70 0.84 0.75 0.75 0.70 0.58 0.40 0.38 0.36 0.30 0.25 0.24 0.32 0.53 0.68 0.69 0.81 0.85 0.69 0.53 0.43 0.38 0.39 0.43 0.47 0.50 0.50 0.52 0.48 0.37 0.26 0.20 0.13 0.12 0.12 0.14 0.15
0.77 0.81 0.82 0.77 0.76 0.77 0.77 0.82 0.82 0.81 0.68 0.58 0.46 0.38 0.35 0.32 0.27 0.23 0.20 0.25 0.32 0.44 0.60 0.73 0.79 0.67 0.55 0.46 0.44 0.39 0.37 0.39 0.42 0.47 0.50 0.41 0.30 0.23 0.17 0.16 0.15 0.14 0.11
0.82 0.81 0.86 0.87 0.91 0.94 0.90 0.90 0.92 0.90 0.79 0.70 0.62 0.52 0.40 0.37 0.34 0.30 0.23 0.19 0.19 0.21 0.36 0.46 0.56 0.60 0.62 0.61 0.61 0.47 0.36 0.29 0.30 0.39 0.47 0.45 0.35 0.28 0.25 0.25 0.21 0.17 0.12
0.89 1.00 1.00 1.06 1.04 1.05 1.05 1.01 0.99 0.91 0.87 0.79 0.67 0.58 0.49 0.43 0.39 0.33 0.34 0.28 0.25 0.21 0.24 0.25 0.33 0.35 0.40 0.46 0.54 0.56 0.43 0.29 0.23 0.28 0.33 0.35 0.33 0.29 0.30 0.29 0.22 0.18 0.15
1.21 1.34 1.39 1.33 1.31 1.29 1.27 1.21 1.25 1.14 0.94 0.89 0.81 0.65 0.49 0.44 0.43 0.38 0.38 0.35 0.29 0.24 0.22 0.17 0.19 0.20 0.22 0.28 0.34 0.42 0.41 0.34 0.26 0.24 0.27 0.28 0.27 0.24 0.28 0.31 0.28 0.25 0.23
1.59 1.69 1.60 1.66 1.67 1.52 1.50 1.55 1.58 1.50 1.22 1.04 1.05 0.87 0.61 0.42 0.42 0.41 0.39 0.35 0.34 0.34 0.34 0.25 0.17 0.17 0.17 0.18 0.18 0.28 0.37 0.41 0.35 0.28 0.27 0.26 0.25 0.21 0.20 0.24 0.26 0.28 0.30
1.80 1.82 1.88 1.92 1.94 1.92 1.86 1.73 1.77 1.83 1.58 1.32 1.36 1.54 1.14 0.77 0.46 0.37 0.40 0.36 0.35 0.38 0.40 0.37 0.28 0.23 0.16 0.18 0.12 0.17 0.26 0.39 0.44 0.38 0.31 0.29 0.25 0.19 0.16 0.18 0.21 0.23 0.28
2.03 2.04 2.08 2.12 2.09 1.93 1.91 1.98 2.05 2.34 2.11 1.72 1.54 1.72 1.44 1.13 0.83 0.48 0.43 0.47 0.45 0.44 0.48 0.53 0.45 0.37 0.30 0.24 0.20 0.15 0.13 0.19 0.33 0.39 0.40 0.36 0.32 0.23 0.17 0.16 0.17 0.21 0.23
1.94 2.04 2.05 2.04 2.00 1.92 1.97 2.02 2.03 2.33 2.47 2.14 1.83 1.52 1.25 1.15 1.14 0.84 0.57 0.52 0.55 0.47 0.47 0.50 0.48 0.47 0.43 0.35 0.33 0.20 0.13 0.13 0.21 0.34 0.45 0.46 0.41 0.34 0.25 0.21 0.20 0.19 0.21
1.82 1.84 1.84 1.91 1.94 1.98 2.02 2.14 2.20 2.40 2.40 2.35 2.13 1.97 1.77 1.44 1.08 1.03 0.95 0.72 0.65 0.53 0.50 0.53 0.57 0.56 0.54 0.51 0.54 0.41 0.24 0.14 0.17 0.32 0.45 0.51 0.49 0.43 0.38 0.30 0.26 0.24 0.23
1.80 1.72 1.71 1.75 1.86 2.01 2.05 2.09 2.17 2.38 2.48 2.54 2.40 2.16 2.05 1.86 1.56 1.38 1.11 0.96 0.89 0.71 0.62 0.58 0.59 0.59 0.58 0.57 0.59 0.72 0.54 0.27 0.18 0.25 0.38 0.52 0.60 0.58 0.50 0.43 0.37 0.34 0.32
1.51 1.52 1.60 1.68 1.79 1.91 1.97 2.05 2.18 2.19 2.28 2.53 2.53 2.33 2.11 1.90 1.83 1.67 1.48 1.19 1.03 0.80 0.69 0.62 0.59 0.60 0.59 0.64 0.70 0.83 0.67 0.41 0.26 0.21 0.21 0.26 0.38 0.54 0.62 0.56 0.49 0.46 0.44
1.40 1.33 1.37 1.46 1.66 1.85 1.93 2.00 2.00 1.98 2.01 2.18 2.21 2.24 2.20 1.95 1.86 1.69 1.58 1.61 1.37 1.12 0.86 0.64 0.55 0.56 0.57 0.63 0.76 0.88 0.64 0.52 0.38 0.28 0.23 0.21 0.22 0.27 0.40 0.54 0.61 0.58 0.55
1.21 1.15 1.16 1.19 1.28 1.51 1.75 1.91 1.84 1.75 1.73 1.84 1.91 2.00 2.12 2.14 2.04 1.89 1.82 1.76 1.66 1.39 1.15 0.90 0.71 0.57 0.61 0.66 0.83 0.72 0.59 0.59 0.52 0.41 0.31 0.25 0.22 0.23 0.26 0.32 0.40 0.45 0.51
1.02 1.02 0.99 1.02 1.13 1.24 1.44 1.66 1.74 1.69 1.65 1.67 1.77 1.91 2.02 2.12 2.17 1.97 1.89 1.81 1.65 1.48 1.28 1.00 0.81 0.67 0.73 0.73 0.85 0.69 0.64 0.72 0.60 0.50 0.40 0.33 0.27 0.24 0.25 0.27 0.27 0.27 0.27
0.77 0.80 0.95 1.00 1.06 1.13 1.29 1.54 1.70 1.72 1.64 1.61 1.60 1.65 1.77 1.87 2.11 2.08 1.98 1.85 1.69 1.51 1.32 1.15 0.93 0.73 0.78 0.82 0.87 0.80 0.73 0.69 0.57 0.54 0.46 0.39 0.34 0.32 0.29 0.31 0.31 0.29 0.27
0.53 0.64 0.76 0.81 0.85 0.88 1.04 1.32 1.51 1.54 1.48 1.40 1.37 1.43 1.62 1.80 2.02 2.13 2.09 1.96 1.83 1.70 1.55 1.42 1.22 0.99 0.87 0.86 0.95 1.00 0.94 0.88 0.80 0.79 0.68 0.52 0.44 0.41 0.38 0.36 0.36 0.34 0.31
0.56 0.65 0.74 0.79 0.82 0.86 0.87 0.96 1.08 1.20 1.21 1.17 1.16 1.17 1.21 1.37 1.64 1.84 1.91 1.93 1.96 1.92 1.84 1.65 1.42 1.25 1.10 0.96 0.97 1.00 0.97 1.01 0.95 0.99 0.95 0.80 0.68 0.62 0.55 0.48 0.42 0.37 0.34
0.51 0.56 0.60 0.68 0.78 0.81 0.80 0.80 0.81 0.87 0.88 0.92 0.96 1.00 1.03 1.06 1.22 1.40 1.54 1.74 1.95 1.94 1.92 1.83 1.60 1.34 1.18 1.07 1.08 1.08 1.09 1.06 1.03 0.94 0.95 0.87 0.81 0.72 0.64 0.56 0.48 0.42 0.39
0.42 0.47 0.52 0.55 0.62 0.69 0.74 0.75 0.65 0.62 0.68 0.74 0.78 0.79 0.81 0.89 1.00 1.08 1.15 1.45 1.75 1.87 1.84 1.79 1.68 1.48 1.22 1.12 1.02 0.99 1.08 1.23 1.23 1.15 1.11 0.96 0.86 0.76 0.69 0.63 0.57 0.51 0.46
0.39 0.44 0.44 0.46 0.56 0.57 0.68 0.65 0.51 0.50 0.53 0.63 0.72 0.70 0.64 0.64 0.70 0.76 0.83 0.98 1.21 1.41 1.62 1.74 1.70 1.50 1.31 1.16 1.10 1.11 1.12 1.17 1.24 1.15 1.15 1.19 1.11 1.03 0.94 0.84 0.83 0.79 0.68
0.35 0.38 0.39 0.40 0.45 0.57 0.58 0.42 0.39 0.43 0.51 0.57 0.65 0.70 0.63 0.54 0.60 0.63 0.72 0.80 0.80 0.86 1.09 1.36 1.49 1.48 1.52 1.33 1.24 1.17 1.12 1.16 1.18 1.13 1.17 1.20 1.19 1.15 1.11 1.08 1.10 1.03 0.91
0.42 0.42 0.44 0.44 0.44 0.49 0.46 0.33 0.34 0.38 0.45 0.52 0.61 0.70 0.75 0.67 0.66 0.75 0.74 0.76 0.71 0.68 0.84 0.85 1.00 1.29 1.42 1.44 1.36 1.39 1.51 1.44 1.27 1.15 1.06 1.06 1.03 1.01 1.02 1.04 1.08 0.98 0.89
0.42 0.44 0.48 0.48 0.43 0.40 0.39 0.30 0.29 0.38 0.46 0.53 0.56 0.62 0.69 0.66 0.77 0.85 0.82 0.91 0.89 0.79 0.91 0.95 0.98 1.00 1.06 1.14 1.23 1.28 1.35 1.39 1.36 1.22 1.01 0.90 0.88 0.85 0.84 0.82 0.82 0.85 0.82
0.24 0.32 0.34 0.38 0.41 0.38 0.46 0.33 0.32 0.38 0.49 0.60 0.63 0.62 0.76 0.75 0.78 0.76 0.73 0.92 0.95 0.85 0.75 0.81 0.81 0.78 0.71 0.77 0.92 1.05 1.21 1.25 1.20 1.09 0.88 0.76 0.75 0.76 0.76 0.63 0.52 0.52 0.55

GEFSMA_prec_meanprecacc_108.txt.gz
Total_Precipitation_Accumulation
0.76 0.77 0.71 0.76 0.68 0.66 0.72 0.77 0.75 0.76 0.66 0.51 0.43 0.42 0.44 0.34 0.32 0.35 0.44 0.52 0.68 0.77 0.76 0.63 0.48 0.41 0.42 0.41 0.42 0.50 0.57 0.59 0.63 0.64 0.53 0.42 0.33 0.26 0.17 0.15 0.17 0.19 0.18
0.81 0.86 0.82 0.81 0.78 0.71 0.73 0.88 0.80 0.82 0.78 0.69 0.50 0.44 0.42 0.37 0.32 0.31 0.40 0.60 0.71 0.71 0.83 0.86 0.71 0.57 0.48 0.45 0.45 0.50 0.54 0.55 0.54 0.57 0.53 0.41 0.30 0.24 0.16 0.14 0.15 0.17 0.17
0.77 0.82 0.84 0.80 0.79 0.80 0.80 0.85 0.86 0.89 0.77 0.68 0.56 0.47 0.41 0.36 0.31 0.28 0.28 0.34 0.37 0.47 0.62 0.75 0.81 0.70 0.60 0.53 0.52 0.47 0.44 0.44 0.47 0.52 0.56 0.45 0.34 0.26 0.20 0.18 0.18 0.16 0.13
0.83 0.84 0.89 0.90 0.94 0.96 0.93 0.94 0.97 0.96 0.87 0.80 0.72 0.62 0.46 0.42 0.38 0.34 0.29 0.26 0.26 0.26 0.40 0.47 0.58 0.62 0.66 0.67 0.70 0.56 0.44 0.35 0.34 0.43 0.52 0.49 0.39 0.31 0.27 0.27 0.23 0.19 0.13
0.90 1.02 1.05 1.10 1.08 1.08 1.10 1.06 1.06 0.98 0.94 0.89 0.77 0.68 0.56 0.51 0.45 0.37 0.38 0.34 0.31 0.26 0.31 0.30 0.34 0.36 0.42 0.51 0.60 0.64 0.50 0.34 0.28 0.31 0.36 0.40 0.36 0.32 0.32 0.31 0.24 0.21 0.18
1.22 1.36 1.43 1.37 1.36 1.34 1.32 1.26 1.32 1.21 1.02 0.98 0.90 0.75 0.57 0.51 0.50 0.43 0.42 0.40 0.36 0.31 0.30 0.26 0.23 0.21 0.23 0.30 0.37 0.47 0.48 0.39 0.31 0.27 0.30 0.31 0.30 0.27 0.30 0.33 0.31 0.28 0.26
1.60 1.71 1.63 1.70 1.72 1.57 1.56 1.60 1.64 1.57 1.31 1.15 1.17 0.99 0.70 0.48 0.48 0.48 0.44 0.40 0.39 0.42 0.44 0.39 0.28 0.25 0.20 0.20 0.20 0.31 0.42 0.47 0.42 0.34 0.31 0.31 0.29 0.24 0.22 0.26 0.28 0.30 0.32
1.82 1.86 1.93 1.98 2.00 1.97 1.92 1.80 1.84 1.91 1.66 1.42 1.47 1.66 1.24 0.85 0.52 0.43 0.45 0.41 0.41 0.47 0.51 0.49 0.39 0.30 0.23 0.25 0.15 0.19 0.29 0.44 0.50 0.44 0.37 0.34 0.31 0.23 0.20 0.20 0.23 0.26 0.30
2.06 2.08 2.13 2.18 2.16 2.00 1.97 2.05 2.13 2.41 2.19 1.83 1.66 1.84 1.56 1.23 0.93 0.58 0.50 0.52 0.52 0.52 0.58 0.66 0.58 0.47 0.39 0.34 0.31 0.21 0.15 0.21 0.37 0.45 0.46 0.42 0.37 0.27 0.21 0.19 0.21 0.24 0.26
2.00 2.10 2.10 2.09 2.06 1.98 2.02 2.07 2.09 2.41 2.56 2.23 1.94 1.62 1.36 1.27 1.27 0.97 0.68 0.61 0.63 0.54 0.55 0.59 0.59 0.62 0.55 0.50 0.48 0.31 0.18 0.15 0.24 0.39 0.52 0.56 0.49 0.40 0.30 0.25 0.24 0.23 0.24
1.86 1.88 1.89 1.98 2.00 2.04 2.06 2.19 2.26 2.48 2.48 2.45 2.24 2.08 1.86 1.52 1.17 1.14 1.07 0.84 0.76 0.62 0.58 0.62 0.66 0.73 0.70 0.65 0.70 0.55 0.33 0.17 0.19 0.36 0.54 0.63 0.60 0.53 0.45 0.36 0.32 0.28 0.26
1.83 1.76 1.74 1.80 1.92 2.07 2.10 2.14 2.24 2.46 2.56 2.62 2.50 2.25 2.13 1.94 1.64 1.48 1.21 1.05 1.00 0.82 0.72 0.66 0.66 0.69 0.74 0.71 0.72 0.89 0.67 0.35 0.21 0.28 0.43 0.61 0.73 0.71 0.62 0.53 0.44 0.39 0.37
1.52 1.54 1.63 1.71 1.84 1.97 2.03 2.11 2.23 2.25 2.35 2.60 2.59 2.40 2.17 1.97 1.91 1.76 1.59 1.28 1.10 0.87 0.76 0.70 0.65 0.65 0.67 0.74 0.82 0.97 0.79 0.51 0.32 0.25 0.23 0.29 0.44 0.63 0.74 0.68 0.61 0.56 0.53
1.42 1.34 1.39 1.48 1.71 1.90 1.97 2.04 2.06 2.03 2.07 2.24 2.24 2.29 2.25 1.99 1.91 1.76 1.68 1.71 1.44 1.18 0.93 0.71 0.61 0.61 0.62 0.71 0.86 0.98 0.71 0.60 0.43 0.33 0.27 0.24 0.25 0.31 0.46 0.64 0.74 0.72 0.69
1.22 1.17 1.18 1.21 1.32 1.54 1.79 1.95 1.88 1.81 1.78 1.90 1.95 2.05 2.16 2.17 2.09 1.95 1.91 1.87 1.74 1.46 1.23 0.99 0.78 0.64 0.67 0.72 0.89 0.77 0.66 0.66 0.57 0.45 0.35 0.29 0.26 0.26 0.30 0.36 0.46 0.54 0.65
1.04 1.03 1.00 1.04 1.16 1.27 1.47 1.70 1.79 1.75 1.70 1.73 1.82 1.95 2.07 2.17 2.23 2.03 1.96 1.91 1.73 1.56 1.35 1.06 0.86 0.72 0.77 0.75 0.89 0.74 0.70 0.80 0.65 0.54 0.44 0.37 0.30 0.28 0.29 0.30 0.29 0.30 0.31
0.78 0.81 0.96 1.01 1.08 1.16 1.33 1.58 1.75 1.76 1.67 1.65 1.63 1.69 1.82 1.93 2.16 2.13 2.04 1.92 1.76 1.57 1.38 1.20 0.97 0.77 0.81 0.85 0.90 0.85 0.78 0.74 0.62 0.59 0.50 0.42 0.36 0.34 0.32 0.35 0.34 0.32 0.29
0.54 0.66 0.77 0.82 0.87 0.91 1.08 1.37 1.56 1.59 1.53 1.44 1.41 1.47 1.66 1.86 2.06 2.18 2.14 2.01 1.87 1.74 1.59 1.46 1.26 1.03 0.90 0.88 0.98 1.04 0.98 0.93 0.86 0.85 0.72 0.56 0.47 0.43 0.40 0.39 0.40 0.37 0.34
0.57 0.66 0.75 0.80 0.83 0.88 0.90 1.00 1.15 1.26 1.25 1.19 1.19 1.21 1.24 1.41 1.67 1.88 1.95 1.97 1.99 1.95 1.88 1.70 1.45 1.28 1.12 0.98 1.00 1.03 1.00 1.06 1.00 1.03 0.99 0.83 0.70 0.64 0.57 0.50 0.45 0.41 0.37
0.51 0.57 0.61 0.69 0.78 0.82 0.81 0.82 0.86 0.92 0.91 0.94 0.99 1.04 1.06 1.08 1.25 1.43 1.57 1.78 1.98 1.97 1.96 1.87 1.63 1.37 1.21 1.11 1.11 1.13 1.13 1.11 1.08 0.98 0.98 0.89 0.83 0.75 0.66 0.57 0.50 0.44 0.42
0.42 0.48 0.53 0.56 0.63 0.70 0.74 0.75 0.66 0.64 0.70 0.77 0.82 0.82 0.83 0.90 1.02 1.10 1.17 1.48 1.79 1.92 1.88 1.83 1.72 1.52 1.26 1.17 1.07 1.04 1.14 1.29 1.29 1.20 1.16 1.00 0.90 0.79 0.71 0.66 0.60 0.54 0.50
0.39 0.44 0.44 0.47 0.56 0.57 0.68 0.65 0.51 0.51 0.55 0.65 0.75 0.73 0.65 0.66 0.72 0.76 0.84 0.99 1.23 1.44 1.65 1.78 1.75 1.55 1.35 1.21 1.15 1.17 1.19 1.24 1.30 1.20 1.22 1.25 1.17 1.08 0.99 0.89 0.87 0.82 0.71
0.35 0.38 0.39 0.40 0.46 0.57 0.58 0.42 0.39 0.44 0.52 0.58 0.66 0.72 0.65 0.55 0.61 0.64 0.74 0.81 0.82 0.87 1.11 1.39 1.53 1.52 1.55 1.38 1.30 1.23 1.18 1.23 1.24 1.20 1.25 1.26 1.27 1.22 1.16 1.11 1.14 1.06 0.94
0.42 0.42 0.44 0.44 0.44 0.49 0.46 0.33 0.34 0.38 0.46 0.53 0.63 0.72 0.76 0.68 0.67 0.76 0.76 0.78 0.74 0.70 0.85 0.87 1.03 1.32 1.45 1.48 1.41 1.43 1.56 1.50 1.35 1.22 1.13 1.12 1.10 1.08 1.08 1.10 1.13 1.02 0.92
0.42 0.44 0.48 0.48 0.43 0.40 0.39 0.30 0.29 0.38 0.46 0.53 0.56 0.62 0.69 0.66 0.77 0.85 0.84 0.95 0.92 0.82 0.92 0.96 0.99 1.02 1.08 1.17 1.26 1.32 1.39 1.44 1.42 1.29 1.08 0.97 0.94 0.93 0.91 0.90 0.89 0.89 0.85
0.24 0.32 0.34 0.38 0.41 0.38 0.46 0.33 0.32 0.38 0.49 0.60 0.64 0.63 0.76 0.75 0.78 0.76 0.74 0.95 0.97 0.87 0.78 0.83 0.83 0.79 0.73 0.78 0.93 1.07 1.25 1.30 1.26 1.16 0.96 0.83 0.82 0.84 0.82 0.68 0.57 0.57 0.59

GEFSMA_prec_meanprecacc_114.txt.gz
Total_Precipitation_Accumulation
0.76 0.77 0.72 0.76 0.68 0.66 0.73 0.79 0.78 0.78 0.68 0.53 0.47 0.46 0.51 0.44 0.41 0.44 0.53 0.61 0.79 0.88 0.87 0.71 0.53 0.46 0.46 0.44 0.46 0.53 0.60 0.61 0.65 0.66 0.56 0.44 0.35 0.28 0.19 0.17 0.18 0.21 0.21
0.81 0.86 0.82 0.81 0.78 0.72 0.74 0.89 0.82 0.85 0.81 0.73 0.55 0.51 0.51 0.46 0.42 0.42 0.49 0.69 0.80 0.80 0.92 0.96 0.78 0.64 0.54 0.49 0.49 0.54 0.56 0.57 0.56 0.60 0.55 0.43 0.32 0.26 0.17 0.15 0.16 0.18 0.19
0.77 0.82 0.84 0.81 0.80 0.81 0.81 0.86 0.87 0.91 0.79 0.72 0.62 0.56 0.51 0.45 0.41 0.41 0.40 0.45 0.45 0.53 0.69 0.84 0.89 0.77 0.67 0.58 0.57 0.51 0.47 0.46 0.49 0.54 0.58 0.47 0.35 0.27 0.21 0.20 0.19 0.17 0.15
0.84 0.84 0.90 0.91 0.94 0.97 0.94 0.94 0.97 0.97 0.89 0.83 0.78 0.69 0.54 0.52 0.46 0.46 0.41 0.39 0.37 0.33 0.47 0.55 0.65 0.70 0.75 0.74 0.76 0.61 0.48 0.37 0.36 0.45 0.54 0.51 0.40 0.32 0.28 0.28 0.25 0.20 0.15
0.91 1.03 1.06 1.11 1.08 1.09 1.10 1.06 1.07 0.98 0.95 0.91 0.81 0.73 0.62 0.59 0.54 0.45 0.49 0.46 0.43 0.36 0.38 0.36 0.40 0.42 0.49 0.60 0.68 0.71 0.56 0.38 0.30 0.33 0.38 0.41 0.37 0.33 0.34 0.32 0.26 0.22 0.19
1.22 1.36 1.45 1.38 1.37 1.35 1.32 1.27 1.33 1.22 1.03 0.99 0.92 0.78 0.62 0.57 0.58 0.51 0.52 0.51 0.47 0.44 0.41 0.34 0.28 0.25 0.28 0.36 0.45 0.56 0.56 0.45 0.34 0.30 0.32 0.33 0.31 0.28 0.31 0.35 0.32 0.29 0.26
1.61 1.72 1.64 1.71 1.73 1.58 1.57 1.61 1.65 1.59 1.32 1.17 1.19 1.03 0.77 0.54 0.55 0.54 0.52 0.51 0.53 0.56 0.59 0.52 0.37 0.30 0.23 0.24 0.25 0.37 0.50 0.55 0.50 0.39 0.34 0.34 0.32 0.26 0.24 0.28 0.30 0.32 0.34
1.84 1.87 1.94 2.00 2.01 1.98 1.93 1.80 1.86 1.93 1.68 1.45 1.50 1.70 1.30 0.90 0.59 0.47 0.50 0.50 0.53 0.62 0.66 0.63 0.50 0.41 0.30 0.30 0.19 0.23 0.34 0.52 0.61 0.54 0.44 0.40 0.35 0.26 0.23 0.23 0.26 0.28 0.33
2.07 2.10 2.15 2.20 2.17 2.01 1.98 2.06 2.14 2.43 2.22 1.86 1.68 1.87 1.60 1.28 0.99 0.63 0.54 0.57 0.60 0.63 0.72 0.81 0.72 0.64 0.55 0.43 0.38 0.26 0.19 0.26 0.46 0.57 0.57 0.50 0.44 0.32 0.25 0.23 0.24 0.27 0.29
2.00 2.12 2.13 2.11 2.07 1.99 2.04 2.08 2.10 2.43 2.58 2.26 1.97 1.65 1.38 1.30 1.30 1.01 0.73 0.66 0.70 0.63 0.66 0.73 0.73 0.78 0.77 0.68 0.61 0.40 0.25 0.20 0.32 0.52 0.66 0.68 0.59 0.48 0.36 0.31 0.30 0.28 0.29
1.87 1.90 1.92 2.00 2.02 2.05 2.08 2.21 2.29 2.50 2.50 2.46 2.26 2.11 1.88 1.55 1.19 1.17 1.11 0.88 0.82 0.70 0.70 0.77 0.82 0.91 0.89 0.86 0.87 0.66 0.42 0.25 0.27 0.46 0.66 0.76 0.73 0.64 0.56 0.44 0.38 0.34 0.32
1.84 1.78 1.75 1.82 1.93 2.08 2.13 2.17 2.27 2.48 2.59 2.64 2.52 2.29 2.15 1.96 1.66 1.49 1.23 1.10 1.06 0.90 0.83 0.80 0.81 0.88 0.98 0.99 0.95 1.05 0.80 0.44 0.27 0.34 0.51 0.72 0.86 0.85 0.77 0.69 0.60 0.50 0.45
1.54 1.56 1.64 1.73 1.86 1.98 2.05 2.14 2.26 2.28 2.38 2.61 2.61 2.43 2.20 1.99 1.92 1.77 1.60 1.30 1.14 0.94 0.87 0.83 0.78 0.77 0.82 0.94 1.04 1.15 0.94 0.65 0.41 0.31 0.28 0.34 0.52 0.74 0.87 0.83 0.79 0.74 0.66
1.43 1.36 1.41 1.50 1.72 1.92 2.00 2.07 2.08 2.05 2.09 2.25 2.26 2.32 2.27 2.00 1.92 1.77 1.69 1.72 1.46 1.22 1.00 0.81 0.73 0.73 0.74 0.83 0.99 1.09 0.81 0.71 0.53 0.39 0.32 0.28 0.29 0.37 0.53 0.74 0.87 0.89 0.89
1.23 1.18 1.20 1.22 1.33 1.56 1.82 1.97 1.90 1.82 1.79 1.90 1.96 2.07 2.17 2.18 2.10 1.96 1.91 1.88 1.76 1.49 1.28 1.05 0.86 0.74 0.74 0.80 0.99 0.85 0.72 0.71 0.62 0.49 0.39 0.33 0.29 0.30 0.34 0.41 0.53 0.64 0.78
1.04 1.04 1.01 1.06 1.18 1.29 1.49 1.71 1.80 1.75 1.71 1.74 1.83 1.97 2.09 2.18 2.24 2.04 1.98 1.92 1.75 1.58 1.39 1.11 0.91 0.79 0.84 0.83 0.98 0.83 0.77 0.85 0.70 0.58 0.48 0.40 0.33 0.31 0.32 0.33 0.33 0.33 0.36
0.79 0.82 0.96 1.03 1.10 1.18 1.34 1.59 1.76 1.77 1.69 1.67 1.65 1.71 1.85 1.96 2.18 2.16 2.06 1.94 1.78 1.58 1.40 1.24 1.02 0.82 0.86 0.90 0.96 0.91 0.83 0.77 0.65 0.62 0.53 0.44 0.39 0.36 0.34 0.37 0.37 0.34 0.32
0.54 0.66 0.78 0.83 0.88 0.93 1.09 1.38 1.58 1.61 1.56 1.46 1.43 1.51 1.72 1.91 2.12 2.22 2.17 2.03 1.90 1.75 1.61 1.50 1.31 1.05 0.92 0.92 1.02 1.08 1.01 0.95 0.88 0.87 0.74 0.58 0.49 0.45 0.41 0.40 0.41 0.39 0.36
0.57 0.66 0.75 0.80 0.84 0.89 0.92 1.02 1.18 1.29 1.27 1.22 1.23 1.26 1.29 1.47 1.73 1.93 1.98 1.99 2.01 1.97 1.89 1.71 1.47 1.30 1.15 1.01 1.02 1.06 1.03 1.08 1.02 1.05 1.01 0.84 0.72 0.66 0.59 0.52 0.46 0.43 0.39
0.51 0.57 0.61 0.69 0.79 0.84 0.83 0.83 0.87 0.94 0.95 0.99 1.03 1.09 1.11 1.12 1.28 1.45 1.59 1.79 2.00 1.99 1.97 1.88 1.64 1.40 1.24 1.12 1.13 1.14 1.14 1.13 1.11 1.01 1.00 0.92 0.85 0.77 0.68 0.59 0.51 0.46 0.44
0.42 0.48 0.53 0.56 0.63 0.70 0.76 0.76 0.67 0.66 0.73 0.80 0.84 0.84 0.85 0.92 1.04 1.11 1.18 1.50 1.81 1.93 1.90 1.85 1.73 1.53 1.28 1.18 1.08 1.05 1.15 1.32 1.32 1.25 1.20 1.03 0.93 0.81 0.73 0.68 0.62 0.55 0.51
0.39 0.44 0.44 0.47 0.56 0.58 0.68 0.66 0.52 0.52 0.56 0.66 0.75 0.74 0.67 0.67 0.73 0.77 0.85 1.01 1.25 1.46 1.66 1.80 1.76 1.56 1.36 1.22 1.16 1.18 1.20 1.26 1.32 1.23 1.27 1.30 1.21 1.11 1.01 0.90 0.88 0.85 0.75
0.35 0.38 0.39 0.40 0.46 0.57 0.58 0.42 0.40 0.44 0.52 0.58 0.66 0.73 0.66 0.56 0.61 0.65 0.75 0.83 0.83 0.89 1.13 1.41 1.55 1.53 1.57 1.39 1.31 1.24 1.19 1.23 1.26 1.23 1.29 1.31 1.32 1.26 1.20 1.14 1.18 1.09 0.98
0.42 0.42 0.44 0.44 0.44 0.49 0.46 0.33 0.34 0.38 0.46 0.53 0.63 0.72 0.77 0.68 0.67 0.76 0.77 0.79 0.74 0.70 0.86 0.88 1.05 1.33 1.46 1.49 1.42 1.45 1.57 1.51 1.37 1.25 1.16 1.16 1.14 1.15 1.16 1.15 1.19 1.09 0.99
0.42 0.44 0.48 0.48 0.43 0.40 0.39 0.30 0.29 0.38 0.46 0.53 0.56 0.62 0.69 0.66 0.78 0.85 0.84 0.95 0.92 0.82 0.92 0.96 0.99 1.02 1.10 1.18 1.28 1.34 1.41 1.47 1.44 1.32 1.10 0.99 0.96 0.98 1.01 0.99 0.98 0.99 0.95
0.24 0.32 0.34 0.38 0.41 0.38 0.46 0.33 0.32 0.38 0.49 0.60 0.64 0.63 0.76 0.75 0.78 0.76 0.74 0.95 0.97 0.87 0.78 0.83 0.83 0.80 0.73 0.79 0.95 1.09 1.27 1.33 1.28 1.18 0.98 0.85 0.84 0.87 0.86 0.73 0.64 0.65 0.67

GEFSMA_prec_meanprecacc_120.txt.gz
Total_Precipitation_Accumulation
0.76 0.78 0.72 0.76 0.69 0.67 0.73 0.80 0.79 0.80 0.71 0.57 0.51 0.50 0.54 0.46 0.43 0.46 0.56 0.64 0.84 0.96 0.98 0.82 0.64 0.58 0.57 0.53 0.54 0.61 0.65 0.66 0.70 0.70 0.59 0.47 0.38 0.32 0.23 0.21 0.22 0.25 0.25
0.81 0.86 0.83 0.82 0.79 0.72 0.74 0.89 0.83 0.86 0.83 0.75 0.58 0.54 0.54 0.48 0.43 0.44 0.52 0.73 0.84 0.85 1.01 1.08 0.92 0.76 0.66 0.60 0.59 0.63 0.64 0.63 0.61 0.65 0.62 0.48 0.35 0.29 0.21 0.19 0.20 0.22 0.24
0.77 0.82 0.85 0.81 0.80 0.81 0.81 0.86 0.87 0.91 0.81 0.74 0.65 0.58 0.54 0.47 0.43 0.43 0.43 0.49 0.49 0.58 0.74 0.93 1.02 0.90 0.79 0.71 0.68 0.62 0.55 0.52 0.54 0.59 0.63 0.52 0.39 0.30 0.24 0.23 0.22 0.21 0.19
0.84 0.84 0.90 0.91 0.94 0.97 0.94 0.95 0.97 0.98 0.90 0.86 0.81 0.71 0.56 0.54 0.49 0.49 0.45 0.43 0.42 0.38 0.51 0.61 0.75 0.81 0.86 0.87 0.88 0.71 0.57 0.44 0.41 0.51 0.60 0.55 0.43 0.35 0.31 0.30 0.27 0.24 0.18
0.91 1.03 1.06 1.11 1.08 1.09 1.10 1.07 1.08 0.99 0.95 0.92 0.83 0.76 0.65 0.62 0.56 0.48 0.54 0.51 0.47 0.40 0.43 0.42 0.47 0.50 0.58 0.70 0.80 0.83 0.68 0.47 0.36 0.39 0.44 0.46 0.40 0.36 0.36 0.34 0.28 0.25 0.21
1.22 1.36 1.45 1.38 1.37 1.35 1.32 1.27 1.34 1.23 1.04 1.00 0.94 0.81 0.65 0.60 0.62 0.56 0.58 0.56 0.52 0.48 0.46 0.39 0.32 0.29 0.33 0.44 0.55 0.68 0.68 0.58 0.44 0.37 0.38 0.38 0.35 0.30 0.33 0.37 0.34 0.32 0.28
1.61 1.72 1.64 1.71 1.73 1.59 1.57 1.62 1.66 1.59 1.33 1.18 1.21 1.05 0.79 0.58 0.60 0.60 0.58 0.58 0.59 0.61 0.64 0.58 0.41 0.32 0.26 0.29 0.31 0.47 0.61 0.69 0.66 0.51 0.44 0.42 0.39 0.30 0.28 0.31 0.33 0.34 0.36
1.84 1.87 1.95 2.00 2.02 1.99 1.94 1.82 1.87 1.94 1.70 1.46 1.52 1.72 1.32 0.92 0.63 0.52 0.56 0.56 0.61 0.68 0.72 0.68 0.54 0.45 0.33 0.33 0.22 0.29 0.42 0.62 0.75 0.68 0.57 0.52 0.45 0.32 0.28 0.28 0.29 0.31 0.35
2.07 2.10 2.15 2.20 2.18 2.02 1.99 2.07 2.15 2.44 2.23 1.87 1.70 1.89 1.62 1.29 1.03 0.67 0.59 0.62 0.66 0.70 0.77 0.86 0.77 0.69 0.59 0.47 0.41 0.28 0.23 0.32 0.57 0.72 0.72 0.64 0.55 0.42 0.34 0.31 0.31 0.33 0.33
2.00 2.12 2.13 2.12 2.07 1.99 2.04 2.09 2.10 2.44 2.58 2.27 1.98 1.66 1.40 1.32 1.32 1.03 0.76 0.69 0.75 0.68 0.70 0.77 0.78 0.86 0.84 0.73 0.64 0.43 0.28 0.24 0.39 0.63 0.81 0.85 0.73 0.59 0.45 0.39 0.37 0.37 0.37
1.87 1.90 1.92 2.01 2.03 2.05 2.09 2.22 2.29 2.50 2.50 2.47 2.28 2.13 1.90 1.56 1.21 1.19 1.13 0.91 0.85 0.74 0.74 0.81 0.87 0.97 0.95 0.92 0.92 0.69 0.45 0.27 0.31 0.53 0.77 0.93 0.92 0.80 0.69 0.56 0.48 0.44 0.42
1.84 1.78 1.75 1.82 1.93 2.08 2.13 2.18 2.28 2.49 2.60 2.65 2.54 2.30 2.16 1.97 1.67 1.51 1.25 1.12 1.09 0.93 0.88 0.85 0.86 0.92 1.03 1.06 1.01 1.10 0.84 0.46 0.29 0.38 0.57 0.82 1.00 1.02 0.93 0.85 0.74 0.64 0.57
1.55 1.57 1.65 1.74 1.86 1.98 2.06 2.14 2.27 2.29 2.40 2.63 2.62 2.44 2.21 2.00 1.93 1.78 1.62 1.33 1.16 0.98 0.94 0.89 0.83 0.82 0.86 1.00 1.09 1.20 0.98 0.68 0.43 0.33 0.30 0.38 0.57 0.83 1.00 0.99 0.95 0.92 0.85
1.44 1.37 1.41 1.51 1.73 1.93 2.00 2.08 2.09 2.06 2.10 2.27 2.28 2.33 2.28 2.01 1.93 1.78 1.70 1.74 1.47 1.26 1.06 0.87 0.79 0.79 0.79 0.88 1.04 1.15 0.84 0.74 0.56 0.42 0.34 0.30 0.31 0.40 0.60 0.86 1.01 1.05 1.07
1.24 1.18 1.20 1.23 1.35 1.58 1.83 1.98 1.91 1.82 1.80 1.92 1.97 2.07 2.19 2.20 2.10 1.98 1.93 1.90 1.78 1.52 1.31 1.09 0.91 0.78 0.78 0.84 1.03 0.90 0.77 0.76 0.67 0.54 0.43 0.37 0.32 0.32 0.37 0.45 0.59 0.72 0.88
1.04 1.04 1.01 1.06 1.19 1.30 1.49 1.72 1.80 1.76 1.72 1.75 1.85 1.98 2.10 2.19 2.25 2.06 2.00 1.94 1.77 1.60 1.42 1.14 0.94 0.84 0.88 0.86 1.02 0.88 0.84 0.92 0.75 0.62 0.53 0.45 0.37 0.34 0.34 0.35 0.36 0.37 0.41
0.79 0.82 0.96 1.03 1.11 1.18 1.35 1.60 1.76 1.77 1.70 1.68 1.67 1.73 1.86 1.96 2.19 2.17 2.09 1.96 1.80 1.60 1.43 1.26 1.05 0.86 0.91 0.97 1.02 0.98 0.89 0.84 0.69 0.66 0.56 0.48 0.43 0.41 0.38 0.40 0.39 0.36 0.35
0.54 0.66 0.78 0.83 0.88 0.93 1.09 1.39 1.58 1.62 1.56 1.47 1.45 1.54 1.73 1.92 2.14 2.23 2.19 2.04 1.92 1.77 1.63 1.53 1.35 1.09 0.98 0.99 1.10 1.15 1.08 1.00 0.91 0.91 0.77 0.60 0.51 0.48 0.45 0.43 0.43 0.41 0.38
0.57 0.66 0.75 0.80 0.84 0.89 0.92 1.02 1.18 1.29 1.28 1.22 1.24 1.28 1.33 1.51 1.75 1.95 2.00 2.02 2.04 2.00 1.92 1.75 1.54 1.36 1.19 1.07 1.10 1.13 1.09 1.13 1.06 1.08 1.05 0.87 0.74 0.68 0.62 0.55 0.49 0.45 0.42
0.51 0.57 0.61 0.69 0.79 0.84 0.83 0.83 0.87 0.95 0.96 0.99 1.04 1.10 1.14 1.15 1.31 1.49 1.62 1.82 2.03 2.03 2.01 1.90 1.69 1.47 1.32 1.19 1.19 1.20 1.21 1.20 1.17 1.05 1.04 0.95 0.88 0.79 0.70 0.62 0.54 0.49 0.46
0.42 0.48 0.53 0.57 0.63 0.71 0.76 0.77 0.68 0.66 0.73 0.81 0.85 0.85 0.88 0.95 1.06 1.13 1.20 1.52 1.83 1.96 1.93 1.87 1.76 1.59 1.37 1.26 1.14 1.09 1.18 1.36 1.36 1.29 1.25 1.07 0.95 0.84 0.76 0.70 0.64 0.58 0.54
0.39 0.44 0.44 0.47 0.56 0.58 0.69 0.66 0.52 0.52 0.56 0.67 0.76 0.76 0.68 0.68 0.74 0.79 0.87 1.04 1.28 1.48 1.69 1.83 1.78 1.59 1.40 1.27 1.20 1.20 1.22 1.28 1.34 1.25 1.30 1.34 1.24 1.14 1.04 0.92 0.90 0.86 0.77
0.35 0.38 0.39 0.40 0.46 0.58 0.58 0.42 0.40 0.45 0.53 0.59 0.67 0.73 0.67 0.57 0.63 0.67 0.76 0.84 0.85 0.92 1.16 1.44 1.57 1.54 1.59 1.41 1.33 1.26 1.21 1.25 1.28 1.24 1.30 1.33 1.35 1.29 1.22 1.16 1.20 1.12 1.00
0.42 0.42 0.44 0.44 0.44 0.49 0.46 0.33 0.34 0.39 0.46 0.53 0.63 0.72 0.77 0.69 0.68 0.77 0.78 0.80 0.75 0.71 0.88 0.90 1.06 1.34 1.47 1.50 1.44 1.48 1.60 1.54 1.39 1.26 1.18 1.18 1.16 1.19 1.20 1.19 1.23 1.13 1.02
0.42 0.44 0.48 0.48 0.43 0.40 0.39 0.30 0.29 0.38 0.46 0.53 0.56 0.62 0.70 0.66 0.78 0.85 0.85 0.96 0.93 0.83 0.93 0.98 1.01 1.03 1.11 1.21 1.30 1.36 1.43 1.48 1.45 1.33 1.12 1.00 0.98 1.00 1.04 1.03 1.02 1.02 0.98
0.24 0.32 0.34 0.38 0.41 0.38 0.46 0.33 0.32 0.38 0.49 0.60 0.64 0.63 0.76 0.75 0.78 0.76 0.74 0.95 0.98 0.87 0.79 0.84 0.84 0.80 0.74 0.81 0.96 1.11 1.28 1.34 1.30 1.20 0.99 0.87 0.85 0.88 0.88 0.75 0.67 0.67 0.68

GEFSMA_prec_meanprecacc_126.txt.gz
Total_Precipitation_Accumulation
0.76 0.78 0.73 0.77 0.69 0.67 0.74 0.81 0.80 0.81 0.72 0.59 0.54 0.54 0.60 0.52 0.47 0.50 0.59 0.67 0.87 1.01 1.05 0.91 0.73 0.66 0.64 0.62 0.64 0.74 0.80 0.82 0.82 0.80 0.66 0.55 0.47 0.41 0.32 0.30 0.30 0.30 0.30
0.81 0.86 0.83 0.82 0.79 0.73 0.75 0.90 0.84 0.88 0.85 0.77 0.60 0.57 0.58 0.54 0.49 0.49 0.56 0.78 0.87 0.88 1.06 1.18 1.03 0.88 0.77 0.70 0.66 0.74 0.77 0.76 0.72 0.74 0.69 0.54 0.42 0.36 0.28 0.26 0.27 0.28 0.29
0.77 0.82 0.85 0.82 0.81 0.82 0.81 0.86 0.88 0.93 0.83 0.76 0.68 0.61 0.57 0.51 0.47 0.48 0.49 0.54 0.53 0.60 0.78 1.00 1.12 1.02 0.92 0.84 0.77 0.69 0.66 0.63 0.64 0.68 0.71 0.57 0.44 0.36 0.31 0.29 0.28 0.27 0.25
0.84 0.84 0.90 0.91 0.95 0.98 0.95 0.95 0.98 0.99 0.93 0.89 0.84 0.76 0.59 0.57 0.52 0.54 0.51 0.49 0.48 0.42 0.55 0.64 0.80 0.90 0.98 1.00 0.98 0.80 0.67 0.54 0.50 0.59 0.68 0.61 0.48 0.39 0.36 0.36 0.32 0.29 0.23
0.91 1.03 1.06 1.11 1.08 1.09 1.11 1.08 1.08 1.00 0.98 0.95 0.86 0.81 0.70 0.66 0.61 0.53 0.60 0.58 0.53 0.44 0.48 0.45 0.50 0.54 0.65 0.80 0.91 0.93 0.77 0.57 0.44 0.47 0.52 0.53 0.46 0.41 0.41 0.39 0.33 0.29 0.24
1.22 1.36 1.45 1.39 1.37 1.36 1.33 1.28 1.35 1.24 1.05 1.02 0.96 0.84 0.70 0.65 0.68 0.62 0.64 0.63 0.59 0.52 0.49 0.42 0.39 0.34 0.37 0.49 0.61 0.77 0.78 0.68 0.54 0.46 0.47 0.46 0.41 0.36 0.39 0.42 0.39 0.35 0.31
1.61 1.72 1.65 1.72 1.74 1.59 1.58 1.63 1.67 1.61 1.34 1.20 1.24 1.09 0.83 0.62 0.66 0.66 0.65 0.65 0.65 0.66 0.69 0.62 0.48 0.40 0.33 0.33 0.35 0.53 0.71 0.79 0.77 0.62 0.54 0.51 0.46 0.35 0.32 0.35 0.36 0.38 0.39
1.84 1.88 1.95 2.01 2.03 2.00 1.95 1.83 1.89 1.96 1.71 1.48 1.55 1.78 1.37 0.98 0.68 0.56 0.63 0.63 0.68 0.74 0.77 0.73 0.59 0.51 0.41 0.41 0.25 0.32 0.48 0.72 0.86 0.81 0.68 0.62 0.53 0.38 0.33 0.32 0.33 0.34 0.39
2.07 2.10 2.15 2.21 2.19 2.03 2.01 2.09 2.17 2.47 2.26 1.90 1.74 1.95 1.69 1.36 1.08 0.71 0.63 0.67 0.71 0.77 0.83 0.91 0.83 0.76 0.66 0.57 0.48 0.31 0.25 0.38 0.67 0.86 0.85 0.74 0.63 0.48 0.39 0.36 0.35 0.37 0.38
2.01 2.12 2.13 2.12 2.08 2.00 2.06 2.11 2.13 2.47 2.62 2.31 2.02 1.70 1.45 1.38 1.39 1.09 0.79 0.74 0.80 0.75 0.76 0.83 0.84 0.93 0.92 0.82 0.72 0.47 0.30 0.26 0.45 0.75 0.95 1.00 0.84 0.66 0.50 0.44 0.41 0.41 0.41
1.87 1.90 1.93 2.01 2.03 2.06 2.10 2.24 2.33 2.54 2.54 2.51 2.33 2.17 1.94 1.61 1.26 1.25 1.18 0.96 0.90 0.79 0.80 0.86 0.92 1.04 1.04 1.00 1.01 0.74 0.48 0.30 0.34 0.60 0.89 1.08 1.06 0.91 0.76 0.62 0.54 0.48 0.46
1.85 1.78 1.76 1.82 1.94 2.09 2.14 2.20 2.31 2.53 2.63 2.69 2.59 2.35 2.21 2.04 1.73 1.57 1.31 1.18 1.14 0.97 0.92 0.89 0.90 0.98 1.11 1.13 1.07 1.15 0.87 0.50 0.32 0.41 0.62 0.89 1.13 1.17 1.05 0.95 0.84 0.72 0.64
1.55 1.57 1.65 1.74 1.87 1.99 2.07 2.16 2.29 2.31 2.42 2.66 2.66 2.48 2.26 2.05 1.99 1.84 1.68 1.38 1.20 1.02 0.98 0.94 0.88 0.87 0.90 1.05 1.14 1.25 1.01 0.71 0.46 0.36 0.32 0.39 0.61 0.90 1.10 1.09 1.08 1.06 0.99
1.44 1.37 1.42 1.52 1.74 1.94 2.02 2.10 2.12 2.08 2.13 2.30 2.31 2.36 2.31 2.04 1.97 1.82 1.75 1.80 1.53 1.31 1.10 0.91 0.82 0.82 0.82 0.92 1.10 1.21 0.89 0.77 0.59 0.44 0.36 0.31 0.32 0.42 0.63 0.91 1.08 1.16 1.20
1.24 1.18 1.20 1.24 1.36 1.59 1.85 2.01 1.94 1.86 1.83 1.96 2.01 2.11 2.22 2.22 2.13 2.01 1.96 1.96 1.85 1.59 1.37 1.14 0.94 0.81 0.82 0.88 1.07 0.95 0.83 0.80 0.71 0.58 0.45 0.38 0.33 0.34 0.38 0.47 0.63 0.77 0.95
1.04 1.04 1.02 1.07 1.20 1.31 1.52 1.75 1.84 1.79 1.75 1.79 1.89 2.02 2.13 2.22 2.27 2.08 2.02 1.98 1.81 1.65 1.48 1.19 0.99 0.88 0.92 0.89 1.05 0.92 0.89 0.98 0.79 0.67 0.56 0.47 0.39 0.36 0.37 0.37 0.37 0.39 0.43
0.79 0.82 0.96 1.04 1.12 1.19 1.36 1.62 1.80 1.80 1.72 1.71 1.70 1.77 1.91 2.00 2.23 2.20 2.11 2.00 1.84 1.65 1.48 1.31 1.10 0.90 0.97 1.03 1.05 1.00 0.92 0.87 0.73 0.70 0.60 0.51 0.46 0.43 0.40 0.41 0.40 0.37 0.36
0.55 0.66 0.78 0.84 0.89 0.94 1.12 1.40 1.60 1.64 1.59 1.49 1.48 1.58 1.79 1.96 2.17 2.27 2.21 2.07 1.94 1.80 1.68 1.58 1.40 1.14 1.02 1.06 1.15 1.18 1.10 1.04 0.97 0.94 0.80 0.63 0.53 0.50 0.47 0.45 0.45 0.42 0.38
0.57 0.66 0.76 0.81 0.84 0.90 0.93 1.03 1.19 1.31 1.30 1.24 1.27 1.31 1.37 1.54 1.79 1.98 2.03 2.05 2.07 2.03 1.96 1.80 1.58 1.40 1.23 1.11 1.15 1.17 1.12 1.17 1.10 1.12 1.08 0.91 0.77 0.70 0.63 0.58 0.51 0.47 0.43
0.51 0.58 0.62 0.70 0.79 0.84 0.84 0.84 0.88 0.97 0.98 1.01 1.06 1.13 1.17 1.19 1.36 1.53 1.65 1.86 2.07 2.07 2.05 1.96 1.74 1.52 1.36 1.23 1.25 1.27 1.27 1.25 1.21 1.08 1.07 0.99 0.92 0.83 0.73 0.64 0.57 0.52 0.48
0.42 0.48 0.54 0.57 0.64 0.71 0.76 0.78 0.68 0.67 0.74 0.82 0.87 0.87 0.90 0.97 1.08 1.17 1.23 1.55 1.87 2.01 1.97 1.92 1.80 1.65 1.43 1.30 1.18 1.15 1.26 1.44 1.43 1.35 1.30 1.11 0.99 0.88 0.79 0.73 0.67 0.61 0.57
0.39 0.44 0.45 0.47 0.57 0.58 0.69 0.67 0.52 0.52 0.56 0.67 0.77 0.78 0.69 0.70 0.75 0.82 0.89 1.06 1.31 1.52 1.74 1.88 1.83 1.64 1.46 1.33 1.25 1.25 1.27 1.34 1.41 1.32 1.37 1.40 1.29 1.19 1.08 0.96 0.93 0.88 0.78
0.35 0.38 0.39 0.40 0.46 0.58 0.58 0.42 0.41 0.45 0.53 0.59 0.67 0.75 0.69 0.59 0.65 0.70 0.80 0.87 0.89 0.95 1.20 1.49 1.61 1.58 1.63 1.47 1.40 1.31 1.25 1.29 1.32 1.29 1.35 1.37 1.39 1.33 1.26 1.21 1.24 1.15 1.03
0.42 0.42 0.44 0.44 0.44 0.49 0.46 0.33 0.34 0.39 0.46 0.53 0.63 0.73 0.79 0.71 0.70 0.80 0.81 0.83 0.79 0.74 0.91 0.93 1.09 1.36 1.49 1.54 1.49 1.53 1.65 1.58 1.42 1.30 1.22 1.21 1.19 1.22 1.23 1.22 1.26 1.15 1.05
0.42 0.45 0.48 0.48 0.43 0.40 0.39 0.30 0.29 0.38 0.46 0.53 0.56 0.62 0.70 0.67 0.79 0.87 0.87 0.98 0.96 0.85 0.96 1.00 1.04 1.05 1.13 1.23 1.33 1.39 1.46 1.53 1.50 1.37 1.15 1.03 1.00 1.02 1.07 1.07 1.05 1.05 1.00
0.25 0.32 0.34 0.38 0.41 0.39 0.46 0.33 0.32 0.38 0.49 0.60 0.64 0.63 0.76 0.75 0.78 0.77 0.75 0.96 0.99 0.89 0.81 0.86 0.86 0.82 0.75 0.82 0.98 1.14 1.32 1.38 1.35 1.26 1.04 0.90 0.88 0.91 0.90 0.78 0.69 0.69 0.70

GEFSMA_prec_meanprecacc_132.txt.gz
Total_Precipitation_Accumulation
0.76 0.78 0.73 0.77 0.69 0.67 0.74 0.81 0.81 0.82 0.74 0.61 0.56 0.56 0.62 0.54 0.49 0.52 0.63 0.71 0.89 1.03 1.08 0.96 0.80 0.73 0.73 0.73 0.77 0.87 0.95 0.99 1.00 0.96 0.79 0.69 0.62 0.54 0.45 0.41 0.39 0.36 0.35
0.81 0.86 0.83 0.82 0.79 0.73 0.75 0.90 0.84 0.88 0.86 0.79 0.62 0.59 0.61 0.57 0.52 0.52 0.61 0.84 0.90 0.90 1.09 1.22 1.08 0.93 0.83 0.79 0.77 0.85 0.91 0.93 0.89 0.88 0.80 0.66 0.54 0.48 0.39 0.36 0.35 0.33 0.34
0.77 0.82 0.85 0.82 0.81 0.82 0.82 0.87 0.88 0.93 0.84 0.78 0.69 0.63 0.60 0.53 0.47 0.51 0.53 0.61 0.60 0.63 0.80 1.04 1.18 1.08 0.99 0.95 0.87 0.80 0.77 0.77 0.76 0.78 0.80 0.66 0.52 0.45 0.41 0.39 0.36 0.33 0.30
0.84 0.84 0.90 0.91 0.95 0.98 0.95 0.96 0.99 1.00 0.94 0.91 0.87 0.78 0.62 0.61 0.53 0.56 0.55 0.54 0.58 0.52 0.60 0.67 0.84 0.96 1.05 1.11 1.08 0.90 0.76 0.62 0.58 0.67 0.75 0.68 0.54 0.46 0.45 0.46 0.41 0.37 0.32
0.91 1.03 1.06 1.11 1.09 1.10 1.12 1.08 1.09 1.02 1.00 0.99 0.89 0.84 0.73 0.70 0.65 0.56 0.64 0.63 0.63 0.56 0.57 0.49 0.52 0.57 0.70 0.88 0.99 1.02 0.86 0.65 0.51 0.53 0.58 0.58 0.51 0.46 0.48 0.47 0.40 0.38 0.35
1.22 1.36 1.45 1.40 1.38 1.37 1.35 1.30 1.38 1.27 1.08 1.05 0.98 0.87 0.73 0.68 0.72 0.68 0.70 0.70 0.72 0.67 0.61 0.50 0.44 0.36 0.40 0.55 0.68 0.86 0.87 0.76 0.63 0.53 0.53 0.51 0.46 0.40 0.43 0.46 0.44 0.42 0.40
1.61 1.72 1.65 1.73 1.76 1.62 1.61 1.65 1.71 1.65 1.39 1.24 1.29 1.14 0.87 0.65 0.71 0.71 0.70 0.73 0.77 0.85 0.86 0.73 0.57 0.48 0.38 0.36 0.39 0.58 0.80 0.88 0.87 0.71 0.63 0.60 0.51 0.40 0.37 0.39 0.40 0.42 0.44
1.84 1.88 1.95 2.02 2.05 2.03 1.99 1.87 1.95 2.02 1.77 1.53 1.60 1.84 1.43 1.03 0.72 0.60 0.68 0.70 0.78 0.95 0.99 0.85 0.67 0.59 0.51 0.51 0.30 0.35 0.53 0.80 0.97 0.92 0.78 0.73 0.61 0.45 0.39 0.37 0.36 0.37 0.42
2.08 2.10 2.16 2.21 2.20 2.05 2.04 2.13 2.23 2.53 2.32 1.97 1.79 2.00 1.76 1.44 1.17 0.76 0.68 0.73 0.81 0.93 0.99 1.02 0.93 0.85 0.76 0.70 0.58 0.35 0.28 0.42 0.74 0.96 0.96 0.85 0.72 0.56 0.46 0.42 0.40 0.41 0.41
2.01 2.12 2.13 2.13 2.09 2.02 2.08 2.14 2.18 2.54 2.70 2.38 2.08 1.75 1.52 1.47 1.49 1.18 0.85 0.79 0.85 0.83 0.87 0.92 0.94 1.03 1.01 0.93 0.84 0.53 0.33 0.28 0.50 0.83 1.07 1.12 0.95 0.74 0.56 0.49 0.46 0.46 0.45
1.87 1.91 1.93 2.01 2.04 2.07 2.12 2.27 2.37 2.60 2.62 2.59 2.41 2.23 2.00 1.69 1.34 1.34 1.28 1.04 0.97 0.85 0.87 0.95 1.03 1.13 1.14 1.10 1.13 0.84 0.53 0.32 0.38 0.66 0.98 1.20 1.18 1.02 0.84 0.69 0.59 0.53 0.51
1.85 1.79 1.76 1.82 1.94 2.11 2.16 2.24 2.36 2.60 2.70 2.76 2.68 2.42 2.29 2.10 1.79 1.65 1.41 1.28 1.24 1.04 0.97 0.97 1.00 1.08 1.21 1.25 1.16 1.25 0.94 0.53 0.35 0.45 0.67 0.97 1.22 1.27 1.16 1.05 0.91 0.78 0.70
1.56 1.58 1.66 1.75 1.88 2.01 2.09 2.20 2.33 2.38 2.48 2.72 2.72 2.54 2.33 2.10 2.05 1.92 1.79 1.48 1.30 1.10 1.04 1.00 0.95 0.97 0.98 1.17 1.24 1.33 1.06 0.74 0.49 0.38 0.35 0.44 0.67 0.97 1.20 1.21 1.19 1.15 1.07
1.45 1.38 1.42 1.53 1.76 1.96 2.04 2.13 2.15 2.12 2.16 2.35 2.35 2.41 2.36 2.07 2.01 1.89 1.84 1.91 1.63 1.40 1.20 0.99 0.89 0.90 0.88 1.01 1.19 1.27 0.94 0.81 0.62 0.46 0.37 0.34 0.36 0.47 0.69 0.99 1.19 1.27 1.31
1.24 1.19 1.21 1.25 1.37 1.61 1.87 2.03 1.98 1.90 1.86 2.01 2.06 2.16 2.26 2.26 2.17 2.06 2.02 2.03 1.94 1.69 1.48 1.25 1.02 0.88 0.87 0.93 1.15 1.03 0.92 0.85 0.75 0.60 0.47 0.40 0.35 0.36 0.41 0.50 0.66 0.82 1.00
1.04 1.04 1.03 1.08 1.22 1.32 1.53 1.77 1.87 1.82 1.79 1.84 1.93 2.07 2.19 2.28 2.33 2.13 2.09 2.04 1.88 1.74 1.59 1.31 1.07 0.94 0.98 0.92 1.11 1.01 0.98 1.04 0.83 0.69 0.59 0.50 0.41 0.38 0.38 0.38 0.38 0.41 0.44
0.80 0.83 0.99 1.04 1.12 1.21 1.38 1.64 1.82 1.83 1.76 1.76 1.74 1.82 1.98 2.07 2.29 2.27 2.18 2.06 1.91 1.72 1.57 1.42 1.20 0.99 1.04 1.08 1.11 1.10 1.01 0.94 0.78 0.72 0.61 0.53 0.47 0.45 0.42 0.44 0.42 0.39 0.37
0.55 0.67 0.81 0.85 0.89 0.94 1.13 1.43 1.62 1.66 1.63 1.54 1.52 1.62 1.84 2.01 2.22 2.33 2.29 2.14 2.02 1.87 1.75 1.67 1.49 1.23 1.12 1.15 1.21 1.25 1.19 1.11 1.05 0.99 0.83 0.65 0.55 0.52 0.48 0.46 0.46 0.43 0.40
0.58 0.67 0.77 0.82 0.85 0.91 0.94 1.05 1.21 1.32 1.31 1.26 1.29 1.34 1.40 1.58 1.86 2.05 2.10 2.11 2.13 2.09 2.03 1.87 1.67 1.48 1.32 1.22 1.25 1.25 1.19 1.25 1.17 1.17 1.13 0.94 0.79 0.72 0.66 0.59 0.53 0.49 0.44
0.53 0.59 0.65 0.72 0.80 0.85 0.85 0.86 0.89 0.97 0.99 1.03 1.08 1.15 1.20 1.23 1.42 1.60 1.71 1.93 2.14 2.14 2.13 2.04 1.82 1.59 1.43 1.32 1.35 1.36 1.34 1.32 1.27 1.14 1.12 1.03 0.95 0.85 0.76 0.66 0.59 0.54 0.50
0.43 0.49 0.56 0.60 0.65 0.72 0.77 0.79 0.69 0.68 0.75 0.84 0.89 0.89 0.91 0.99 1.10 1.19 1.26 1.60 1.93 2.08 2.05 2.00 1.87 1.72 1.48 1.36 1.25 1.21 1.33 1.51 1.50 1.41 1.35 1.17 1.04 0.91 0.82 0.76 0.69 0.63 0.59
0.40 0.45 0.46 0.49 0.60 0.61 0.70 0.67 0.53 0.53 0.58 0.69 0.79 0.79 0.70 0.70 0.76 0.82 0.90 1.07 1.34 1.56 1.81 1.95 1.89 1.70 1.51 1.38 1.31 1.29 1.31 1.39 1.47 1.38 1.44 1.47 1.37 1.28 1.14 1.00 0.96 0.90 0.80
0.36 0.39 0.40 0.42 0.48 0.60 0.60 0.43 0.41 0.46 0.54 0.60 0.68 0.76 0.69 0.60 0.67 0.72 0.81 0.88 0.90 0.96 1.22 1.55 1.67 1.64 1.70 1.55 1.47 1.37 1.30 1.34 1.37 1.35 1.43 1.47 1.48 1.41 1.33 1.27 1.30 1.18 1.05
0.42 0.43 0.46 0.47 0.47 0.52 0.48 0.34 0.35 0.40 0.46 0.53 0.63 0.73 0.79 0.71 0.71 0.81 0.82 0.85 0.81 0.76 0.93 0.96 1.13 1.41 1.56 1.63 1.59 1.61 1.72 1.64 1.47 1.35 1.28 1.30 1.26 1.27 1.27 1.26 1.31 1.20 1.09
0.42 0.45 0.49 0.50 0.47 0.44 0.43 0.32 0.31 0.39 0.46 0.53 0.56 0.62 0.70 0.68 0.81 0.89 0.88 1.00 0.99 0.87 0.98 1.03 1.07 1.09 1.18 1.29 1.41 1.47 1.54 1.59 1.56 1.42 1.20 1.09 1.06 1.06 1.10 1.10 1.09 1.09 1.04
0.25 0.33 0.35 0.39 0.43 0.42 0.51 0.37 0.35 0.39 0.50 0.60 0.64 0.63 0.76 0.76 0.81 0.80 0.78 0.99 1.01 0.92 0.83 0.88 0.88 0.84 0.78 0.85 1.03 1.20 1.38 1.44 1.41 1.31 1.08 0.94 0.93 0.95 0.94 0.81 0.72 0.72 0.73